GFSCGP_sfc_thetae_000.txt.gz
Theta_e
309 302 298 299 303 298 295 291 292 292 295 291 291 292 296 297 296 293 294 297 298 300 301 303 303 302 303 303 303 304 308 309 315 317 317 317 318 319 320 321 322 322 321 320
303 297 303 303 302 301 295 293 289 294 295 292 292 292 295 295 295 293 295 297 298 299 301 302 302 301 301 302 303 304 305 306 311 316 317 319 319 319 319 318 315 315 317 317
298 302 306 304 298 297 294 293 291 292 294 293 291 290 291 292 293 295 297 298 298 300 300 300 301 300 301 301 301 303 303 305 306 308 312 312 312 310 309 309 307 308 309 308
301 305 304 302 299 299 294 296 296 293 289 285 290 283 288 289 291 294 294 297 298 299 299 302 302 301 301 301 302 303 304 304 305 304 305 303 303 302 303 304 303 305 305 306
298 301 301 300 301 301 297 298 296 294 288 284 286 284 287 287 290 292 294 295 297 298 300 300 301 301 301 302 301 301 303 303 303 303 302 303 301 301 301 302 301 301 302 304
297 304 304 303 303 301 300 295 293 290 286 281 286 286 285 287 289 290 292 294 297 298 299 300 300 300 300 300 301 301 302 302 302 302 302 300 299 299 299 299 298 299 300 301
294 299 300 303 296 297 296 292 285 283 281 281 284 283 287 290 292 295 295 294 296 298 298 299 299 299 299 299 300 301 301 300 300 300 299 299 298 297 296 296 296 295 296 297
290 289 293 295 298 294 293 290 283 280 279 281 284 282 288 291 293 294 297 296 297 297 297 298 298 297 298 299 299 299 299 298 299 298 297 296 296 296 295 294 294 294 294 294
290 289 291 295 294 299 289 288 290 285 281 281 284 287 292 293 292 292 294 295 296 297 297 298 297 297 297 298 298 297 297 296 296 296 295 293 293 292 291 291 291 291 291 292
291 284 292 291 294 293 291 293 286 285 280 279 281 282 286 289 290 291 292 294 295 297 297 297 296 296 297 297 296 295 295 294 294 293 293 291 290 289 289 288 287 287 288 288
291 288 288 291 289 288 288 286 286 287 284 280 278 283 288 289 291 292 293 294 295 296 297 296 295 296 296 295 293 292 292 292 291 291 290 288 287 287 286 286 286 285 286 286
294 288 285 288 291 291 288 288 287 284 281 280 280 283 290 290 291 294 294 295 295 297 297 295 295 295 294 292 291 290 290 290 290 290 288 286 285 284 283 283 284 284 284 285
296 288 284 287 289 290 288 287 287 286 284 280 280 284 292 289 292 294 295 297 296 296 295 294 295 294 293 291 289 288 288 287 288 287 285 283 283 282 281 282 283 283 283 283
301 291 287 285 286 289 287 288 287 287 282 282 283 285 289 289 292 293 295 296 296 295 295 295 295 293 291 289 287 286 286 286 286 284 283 282 281 281 281 281 282 282 282 282
296 289 288 287 289 290 289 289 287 286 288 286 287 286 289 290 291 291 292 293 294 294 294 296 294 291 289 287 286 285 285 284 284 282 282 281 282 281 281 281 281 281 281 282
295 287 287 283 287 286 286 288 288 287 287 285 287 287 289 291 292 293 291 293 294 294 293 295 293 290 288 285 285 285 283 282 282 281 281 281 281 281 281 281 281 280 280 280
290 287 286 282 285 284 282 285 288 287 287 289 286 288 290 292 294 293 295 294 294 294 292 294 291 289 286 285 285 283 281 281 282 281 280 281 281 280 280 280 280 279 279 279
288 286 284 280 282 276 284 290 288 288 288 290 291 292 293 293 293 292 292 292 293 292 293 292 289 286 285 284 283 282 282 282 281 279 279 280 280 279 279 279 278 278 278 278
290 287 284 282 280 284 287 288 289 289 288 292 292 293 292 291 291 290 293 292 291 292 292 290 288 286 283 282 282 281 281 278 278 278 278 279 279 278 278 278 277 278 278 278
289 289 286 279 279 279 286 291 293 294 286 293 294 292 292 291 287 290 292 292 291 291 289 287 285 284 282 280 280 278 278 277 277 278 278 279 279 278 277 277 277 278 278 278
284 284 283 284 282 285 290 293 294 285 286 293 292 291 291 289 291 292 292 290 289 288 287 286 284 282 280 279 281 278 277 276 277 278 278 278 278 277 277 277 277 278 278 278
283 281 281 282 281 281 291 292 289 290 290 292 291 291 291 291 292 292 291 290 288 286 286 284 281 280 280 282 279 277 277 277 277 277 277 277 277 278 279 277 277 277 277 276
285 287 285 286 285 291 291 291 292 293 291 291 291 292 292 291 291 291 291 289 288 286 284 283 281 280 279 279 278 276 276 277 277 276 276 276 277 277 277 277 277 277 277 276
286 290 288 288 289 290 292 292 293 293 293 293 292 292 291 289 289 289 290 288 287 284 282 281 280 279 280 279 277 276 276 277 276 275 275 276 275 277 277 276 277 277 276 276
287 289 288 287 288 290 291 291 293 292 292 292 291 290 289 288 287 286 287 287 285 283 282 281 281 280 278 276 276 276 277 276 275 275 275 275 276 275 276 277 276 277 278 279
288 288 287 286 291 290 290 292 292 292 290 289 289 287 286 286 287 287 287 287 284 281 281 280 279 277 276 275 275 276 276 276 275 275 276 276 277 276 277 276 276 281 283 284

GFSCGP_sfc_thetae_003.txt.gz
Theta_e
305 301 298 301 303 301 296 296 296 297 298 296 295 294 299 300 300 299 299 301 302 303 305 306 306 306 308 308 309 310 314 318 323 324 324 325 322 319 317 315 314 313 314 314
300 297 304 304 303 300 297 295 294 296 297 296 296 295 299 299 299 299 299 301 302 303 304 304 305 306 306 306 308 308 309 311 318 323 324 324 318 315 313 312 311 311 309 308
295 300 306 303 300 300 296 294 294 295 296 296 293 294 295 297 297 297 300 302 302 303 303 304 304 305 306 305 306 307 308 309 309 312 313 313 313 312 310 308 308 307 307 306
299 304 303 302 299 300 296 297 298 295 294 290 294 287 292 295 294 296 298 301 301 303 303 304 304 305 305 305 307 307 307 308 308 310 309 308 307 305 305 305 305 304 305 304
297 300 300 299 300 301 298 301 299 297 293 289 289 288 292 291 292 294 297 299 301 303 304 303 303 304 304 305 305 306 306 306 306 306 306 305 303 304 303 302 301 301 301 302
299 305 305 303 303 303 297 296 295 292 289 285 288 289 290 291 292 294 296 298 300 302 302 302 303 303 304 305 305 305 304 303 303 303 303 302 301 299 298 297 296 297 297 297
296 300 303 306 297 298 297 296 287 284 283 284 287 286 291 294 294 297 298 297 300 302 302 302 302 302 303 304 304 304 303 301 301 300 299 299 298 297 295 294 293 292 292 293
289 289 296 301 299 295 296 295 288 282 282 284 286 285 291 295 297 296 299 299 300 301 301 301 302 302 302 302 302 301 300 299 299 297 295 295 295 293 292 291 291 290 290 291
288 290 294 298 297 300 292 292 294 286 285 284 288 290 295 295 295 294 296 298 300 300 300 301 300 301 301 300 299 299 298 297 297 295 292 291 290 290 289 289 289 289 289 289
293 285 292 292 296 294 296 296 289 287 283 281 284 285 290 292 293 293 294 297 298 299 300 299 299 300 300 298 297 297 296 295 294 292 291 289 288 288 288 288 287 287 287 288
291 289 288 291 291 288 290 290 289 289 287 283 281 286 292 292 293 295 295 297 298 299 299 299 299 299 297 295 295 294 294 293 292 289 288 287 287 286 286 286 286 286 286 286
292 289 284 287 292 293 292 291 291 286 283 283 284 286 293 293 293 295 295 297 298 300 299 298 299 296 294 293 292 292 292 291 290 288 286 286 285 285 285 285 285 285 285 286
295 289 284 288 291 292 289 289 289 288 286 282 283 287 293 293 295 295 296 297 298 298 297 297 297 294 292 291 290 289 289 289 287 286 285 284 284 284 284 284 284 284 284 285
300 290 288 285 287 289 287 287 287 289 284 284 284 288 291 292 294 295 297 298 298 297 297 296 296 294 292 290 289 288 287 287 286 285 284 284 284 284 283 284 284 284 284 284
297 290 288 287 290 290 290 289 287 287 290 288 289 287 291 292 294 295 296 296 296 295 296 296 295 292 290 288 288 287 286 285 285 284 283 283 283 284 284 283 283 283 283 283
295 288 288 284 288 289 288 289 290 289 287 288 288 288 293 294 294 296 296 295 296 295 296 297 294 291 289 288 287 286 284 284 284 283 282 283 283 283 283 283 282 282 282 282
292 288 287 285 286 286 284 286 288 289 289 291 287 293 292 293 294 295 295 296 296 296 295 296 294 291 288 287 287 285 283 283 283 282 282 282 282 282 282 282 282 281 281 281
290 289 287 281 285 278 287 290 290 289 288 289 290 290 293 294 294 294 295 295 295 295 294 295 292 289 287 287 285 284 283 283 282 281 281 282 282 281 282 281 281 281 281 281
290 289 285 282 280 284 288 288 288 288 288 292 291 292 292 293 293 293 295 295 294 294 295 293 291 287 286 285 284 283 282 281 281 281 281 281 281 281 280 280 280 280 281 281
290 290 289 281 280 280 287 291 294 293 286 293 293 292 291 292 289 291 294 294 292 292 291 289 287 285 284 282 282 281 281 280 280 280 280 281 281 280 279 280 280 280 280 280
285 285 284 285 282 285 291 293 293 285 287 293 293 292 292 291 292 293 294 292 290 289 287 286 285 283 282 281 281 281 280 279 280 280 280 280 280 279 280 280 280 280 280 280
285 283 282 283 282 281 293 293 289 291 291 292 292 292 292 292 293 293 293 291 289 287 286 285 282 281 281 282 282 279 279 279 279 280 279 279 279 279 280 280 280 280 279 278
285 287 285 286 285 291 291 292 292 292 291 291 292 292 292 292 292 293 292 291 288 287 285 284 282 281 281 281 280 278 279 279 279 278 278 278 278 279 279 279 279 279 279 278
287 290 287 287 289 289 290 291 292 293 292 293 293 292 292 292 292 291 291 289 287 286 284 283 281 280 280 280 280 278 278 278 278 277 277 278 278 280 279 279 279 278 278 278
288 290 287 286 288 290 291 291 292 291 292 291 291 291 291 290 289 289 289 288 287 285 283 282 280 280 280 279 278 278 278 278 277 277 277 277 278 277 278 278 278 279 280 280
288 288 287 286 290 290 290 291 292 291 290 291 291 289 288 288 288 289 288 288 285 283 281 280 280 280 278 277 277 277 278 277 276 276 277 277 278 278 278 277 278 281 282 283

GFSCGP_sfc_thetae_006.txt.gz
Theta_e
303 295 294 302 304 304 303 302 301 304 306 303 304 305 305 310 309 308 307 309 310 310 311 312 313 315 316 318 320 324 327 329 330 331 328 325 320 318 317 316 315 314 313 313
297 292 302 305 305 304 303 300 299 304 303 302 304 304 308 310 307 308 307 308 309 309 310 311 312 313 314 314 316 318 322 326 329 329 324 320 318 316 315 314 313 312 310 310
293 297 304 304 303 301 302 299 300 300 302 302 301 302 304 303 303 303 306 310 310 309 308 310 311 312 313 313 314 314 316 317 318 319 318 317 317 316 313 311 310 309 308 306
294 301 302 301 301 303 298 305 303 301 299 296 301 294 302 304 301 302 306 307 308 309 309 310 310 311 312 313 315 315 315 315 316 317 315 314 312 309 308 308 308 306 305 302
292 297 296 299 301 305 300 305 304 302 299 298 299 295 300 299 299 300 305 306 308 309 309 309 310 310 311 313 313 313 312 311 312 312 312 310 308 307 306 305 304 303 302 300
296 304 300 304 305 306 304 302 300 299 297 292 298 296 298 299 299 301 304 306 307 308 309 309 310 310 310 312 312 311 309 308 309 308 308 307 305 303 302 300 299 298 298 298
291 291 304 307 301 300 303 299 289 289 288 290 294 293 299 301 300 303 304 306 307 309 308 308 308 309 309 310 310 308 307 305 305 305 303 302 301 300 298 297 296 295 295 295
286 288 300 306 302 296 298 300 293 285 288 291 292 291 297 301 302 303 306 308 308 308 308 308 309 309 309 308 308 307 305 303 302 301 299 299 298 297 295 294 294 293 293 293
287 288 300 304 303 302 296 294 300 292 292 291 294 297 301 300 300 301 303 306 306 307 308 308 309 309 308 307 306 305 304 302 300 298 297 295 295 294 293 293 293 292 292 291
294 288 296 297 304 298 300 303 292 294 287 285 291 292 297 298 299 300 301 304 306 307 307 307 307 308 307 305 304 303 302 300 298 296 295 293 292 292 292 292 291 291 291 291
298 296 289 298 295 295 298 295 297 296 293 290 289 292 300 299 300 301 302 305 306 306 307 306 307 307 304 303 302 301 300 298 295 294 293 292 291 290 290 290 290 290 290 290
300 297 290 291 296 301 301 298 298 293 289 292 292 293 300 300 300 301 303 304 306 307 307 306 306 304 302 301 300 299 298 296 294 292 291 290 290 290 290 289 289 289 289 290
300 295 289 289 293 294 295 298 301 299 295 291 290 293 298 301 302 302 303 304 306 306 306 305 305 303 301 299 298 297 296 294 292 291 290 289 289 289 289 289 289 289 288 288
301 297 294 290 293 297 294 295 299 299 293 293 293 296 297 299 301 302 303 305 305 305 305 304 304 302 300 298 296 295 293 292 290 289 289 288 288 288 288 288 288 288 288 288
301 294 296 295 296 297 296 295 295 294 297 293 296 295 300 301 302 304 305 305 304 303 303 303 303 302 299 297 295 293 292 291 289 288 288 287 287 288 288 288 287 287 287 287
302 294 293 291 294 296 294 296 297 297 298 297 297 297 302 302 303 301 302 302 302 303 302 303 303 301 298 296 294 292 290 288 288 287 286 286 287 287 287 287 287 287 287 287
298 296 293 290 291 292 290 294 295 296 298 297 294 299 300 298 299 301 302 302 302 302 302 302 302 300 297 295 294 292 289 288 287 286 286 286 286 286 286 286 286 286 286 286
298 295 293 288 289 284 295 295 299 297 299 300 299 298 300 301 302 301 303 302 301 301 301 303 302 299 296 294 292 290 288 287 286 285 285 286 285 285 285 285 285 286 286 285
301 295 291 287 287 291 291 293 293 294 296 298 298 298 299 299 300 298 300 300 300 300 301 302 301 297 294 292 291 288 286 285 285 285 285 285 285 284 284 284 285 285 285 285
294 298 293 287 286 285 292 295 298 298 291 297 298 298 297 298 295 298 299 299 298 298 298 297 296 294 293 290 288 287 286 284 283 284 284 285 284 284 284 284 284 285 285 284
289 290 290 290 289 291 295 297 299 290 293 298 299 299 298 298 299 298 298 296 296 296 295 293 293 292 290 288 287 286 283 282 284 284 284 284 284 284 284 284 284 284 284 283
291 289 289 290 288 285 297 295 293 297 299 299 299 299 297 297 297 297 297 295 294 292 292 292 290 289 287 287 286 283 282 284 284 284 283 283 284 283 283 284 284 283 283 282
290 295 292 293 293 295 296 297 298 301 298 297 298 298 298 297 297 297 297 296 294 293 291 290 289 287 286 286 284 282 283 283 283 283 283 283 283 283 284 283 282 282 282 281
292 294 293 292 293 294 295 296 298 299 298 298 299 298 298 297 297 297 297 296 295 293 291 289 288 287 285 284 283 284 283 283 282 282 282 282 282 282 283 283 282 281 281 280
294 295 293 291 292 294 295 297 297 297 297 297 297 297 297 297 296 296 295 295 295 293 291 289 288 287 285 284 283 283 283 282 282 282 282 282 282 282 282 282 281 281 282 282
295 295 294 294 297 297 296 297 298 297 296 297 296 295 294 295 295 294 294 294 294 291 290 287 286 286 284 283 282 282 282 282 281 280 281 281 281 282 281 280 280 283 283 283

GFSCGP_sfc_thetae_009.txt.gz
Theta_e
301 295 292 297 301 301 302 301 301 304 307 307 305 305 307 310 311 311 310 311 312 312 313 315 317 318 320 323 326 328 328 330 332 331 327 323 319 318 316 315 314 313 312 312
295 291 298 301 301 301 301 300 301 304 306 305 304 303 308 310 311 313 310 310 311 311 311 313 314 315 316 318 321 323 327 329 327 324 323 320 318 316 315 314 311 310 308 308
291 295 300 298 296 299 301 300 300 300 304 305 303 302 305 310 311 309 310 312 312 311 310 311 313 314 315 315 316 317 318 319 320 320 319 318 317 316 312 310 309 307 306 303
293 297 297 297 295 299 297 304 303 301 300 295 304 293 302 306 303 304 307 310 311 311 311 312 312 313 314 315 317 316 317 317 318 318 317 315 311 308 308 308 307 306 304 301
289 293 294 294 297 301 299 306 303 302 301 300 299 296 301 306 302 304 306 309 310 311 311 311 312 312 314 315 315 314 313 313 314 313 313 311 308 307 307 306 304 303 302 300
292 300 299 298 302 304 306 303 302 302 299 291 298 297 298 301 303 305 306 308 309 310 310 311 312 312 312 314 313 313 310 309 310 310 309 308 306 305 303 302 300 300 299 298
290 290 296 301 296 301 303 297 291 288 289 289 299 297 300 301 303 305 305 307 309 310 310 309 309 310 311 311 310 309 308 307 307 306 305 304 303 302 300 299 297 296 296 295
286 284 292 297 299 296 298 298 292 285 286 291 296 292 298 304 305 307 308 309 309 309 310 309 310 311 311 310 309 308 306 304 304 303 301 301 301 299 297 296 295 295 294 294
286 288 297 299 304 302 296 296 300 295 296 293 294 299 301 303 303 304 306 308 308 309 309 309 310 311 310 309 308 307 305 303 302 300 299 298 297 296 295 295 294 294 293 292
291 286 293 299 303 301 300 304 294 296 287 287 293 295 296 299 301 303 303 306 308 309 309 310 310 310 310 308 307 307 305 302 300 298 297 296 295 294 294 294 292 292 292 292
294 289 288 295 297 295 297 296 299 299 296 291 289 293 303 301 302 303 304 307 308 309 309 309 310 310 308 307 306 304 302 300 298 297 296 295 293 293 293 292 291 291 291 291
297 292 286 291 297 303 302 299 300 294 291 294 293 293 303 303 303 304 305 306 309 309 309 309 309 308 306 305 304 302 302 299 297 295 294 293 292 292 292 291 291 290 290 290
300 293 288 289 294 298 296 300 302 301 299 294 291 294 303 304 304 305 305 306 308 309 308 308 308 307 305 304 303 301 300 297 295 294 293 292 291 291 290 290 290 290 289 289
303 296 294 291 294 297 295 297 300 298 294 294 295 296 299 302 303 304 305 307 308 308 308 307 307 306 305 303 302 300 298 296 293 292 291 291 290 289 290 289 289 289 289 288
301 295 297 297 298 299 298 297 298 297 298 295 297 297 301 302 304 305 306 306 306 306 306 306 306 306 304 302 300 298 296 294 292 291 290 289 289 289 289 289 289 288 288 288
301 295 296 294 297 298 296 298 299 299 299 299 299 299 306 306 307 305 306 306 305 305 306 306 307 306 304 301 299 296 294 292 291 289 288 288 288 288 288 288 287 287 288 288
297 297 294 290 295 295 291 296 297 298 300 300 296 301 306 301 302 304 305 305 305 306 306 306 306 306 304 301 298 295 293 291 289 288 288 287 287 287 287 287 287 287 287 288
297 297 296 291 292 285 296 299 301 299 301 302 302 304 303 303 304 305 306 305 305 305 305 305 306 305 302 299 297 294 291 290 288 287 287 287 287 286 286 286 286 286 287 287
302 298 293 289 290 295 298 295 297 297 297 303 301 303 303 303 302 300 303 305 303 304 304 306 306 303 299 296 294 291 289 288 287 286 286 286 286 285 285 285 285 286 286 286
299 300 295 292 287 286 294 297 300 302 293 303 304 303 301 300 296 298 301 301 301 302 302 302 301 298 296 294 292 290 289 287 285 285 285 286 285 285 284 285 285 286 286 285
291 292 290 289 289 294 298 299 300 290 294 299 302 302 301 299 301 301 300 299 300 300 299 298 297 295 294 291 291 290 286 284 284 284 285 285 285 285 285 284 285 285 284 284
291 288 289 290 288 287 300 298 294 299 301 301 302 302 301 300 299 299 298 297 296 295 294 295 294 292 290 290 290 286 284 285 284 285 285 285 285 284 285 285 285 285 284 283
293 297 294 296 295 298 300 299 301 303 301 301 301 301 300 298 298 298 297 296 295 294 293 294 292 289 289 288 288 285 284 284 284 284 284 284 284 284 285 284 284 283 282 281
295 296 296 294 296 297 299 299 301 303 301 302 301 300 300 298 298 298 298 297 295 295 293 292 291 289 287 286 285 285 284 284 283 283 283 283 283 284 284 284 283 282 281 281
296 296 295 294 295 296 297 299 299 299 300 299 299 300 299 299 298 298 298 297 297 295 293 292 291 290 287 285 285 284 284 284 282 283 282 283 283 283 283 283 282 282 282 282
297 297 295 296 299 299 298 299 300 298 298 298 297 296 297 299 297 297 296 297 296 294 293 291 290 288 287 285 284 284 284 283 282 281 282 282 282 283 282 282 281 285 285 285

GFSCGP_sfc_thetae_012.txt.gz
Theta_e
299 294 290 294 296 297 297 296 297 300 306 303 302 302 305 307 307 305 305 303 306 306 309 310 312 313 317 320 321 322 324 325 326 325 318 315 311 310 309 308 306 305 304 305
294 289 295 298 298 296 296 295 296 301 305 303 302 301 306 305 306 307 306 304 305 306 306 308 310 309 313 315 318 321 321 319 319 317 315 314 310 308 307 306 304 302 300 300
289 292 297 295 294 294 294 294 296 297 302 303 300 297 300 304 306 307 308 306 307 306 305 306 307 308 309 310 311 313 314 315 315 314 313 311 310 308 305 303 301 300 298 297
292 296 294 293 292 294 290 299 299 299 298 292 299 286 297 301 303 305 302 303 306 305 306 307 307 307 308 309 311 312 312 313 313 313 311 307 304 301 302 301 300 298 297 295
289 291 291 290 293 296 293 300 298 300 298 294 296 291 295 300 300 299 299 302 305 305 305 306 307 309 309 309 308 307 308 308 308 307 306 304 301 300 300 299 297 295 295 294
292 297 295 293 296 296 299 296 297 300 297 290 295 293 292 296 298 299 300 303 305 305 305 306 307 309 308 308 306 305 304 304 304 303 302 301 299 298 296 294 293 293 293 293
290 290 294 295 293 296 297 293 288 286 287 286 296 293 294 296 300 302 301 303 304 305 305 305 305 305 306 305 304 304 302 301 301 300 299 298 296 294 292 291 291 290 290 290
283 281 290 293 293 292 294 293 286 282 284 286 295 289 293 299 301 303 304 304 305 304 304 304 305 305 305 305 302 301 300 298 298 296 295 294 294 293 291 290 289 289 288 288
285 284 294 297 295 298 292 286 294 291 292 288 289 292 295 299 298 300 302 304 303 304 304 304 305 305 305 303 302 300 298 297 296 295 293 291 291 290 289 289 289 288 288 290
288 284 294 295 299 300 297 300 290 292 285 282 287 289 289 294 295 298 301 302 303 304 304 305 305 305 304 303 302 300 298 296 294 293 291 290 288 288 288 288 287 287 287 287
290 287 289 292 295 293 294 294 296 296 293 286 283 287 296 296 298 297 299 303 304 304 304 305 305 305 303 301 300 298 296 294 292 292 290 288 288 288 287 287 286 286 286 286
291 289 286 288 295 301 300 296 297 291 288 289 288 286 297 298 299 300 299 304 305 305 305 305 304 303 301 300 299 297 295 293 292 290 289 288 288 287 286 286 286 286 285 285
292 288 285 286 293 298 296 298 298 296 294 289 285 286 298 298 298 299 299 302 305 305 303 304 303 302 300 299 297 296 295 291 290 289 288 287 287 286 285 285 286 286 285 285
301 294 287 286 290 295 293 296 297 295 289 289 289 288 293 297 297 299 299 301 304 304 304 303 302 300 299 298 297 295 293 290 289 288 287 286 285 285 285 285 286 286 285 284
295 292 294 296 297 297 296 296 296 295 295 289 291 292 294 297 297 298 299 302 303 303 303 302 301 300 299 297 295 293 291 289 288 287 286 285 285 286 285 286 285 285 284 284
297 291 294 292 295 296 295 297 297 296 296 295 297 294 300 299 300 299 298 300 302 302 303 302 302 300 298 295 293 292 290 288 287 286 285 286 286 285 285 285 284 284 283 283
294 293 291 285 292 292 288 293 296 296 297 297 294 298 299 297 299 299 299 301 301 301 302 302 302 300 297 295 293 289 288 287 286 286 286 285 286 285 284 284 283 282 282 282
294 293 293 286 287 280 290 294 297 296 298 298 298 299 299 298 298 299 300 299 299 301 302 301 301 299 296 294 291 288 287 286 286 285 285 285 285 283 283 282 281 281 281 281
299 296 290 287 285 291 293 292 292 293 294 298 298 300 298 298 296 295 298 299 299 300 301 300 299 296 293 291 288 287 286 285 285 284 284 284 283 282 281 280 280 280 280 280
299 298 293 286 283 281 289 294 297 297 288 296 298 298 296 296 290 292 296 298 297 298 298 297 294 293 291 288 287 286 284 284 282 282 282 283 282 281 280 279 279 280 280 281
291 292 289 289 286 289 294 295 296 286 289 296 297 298 297 293 294 296 297 296 296 295 294 293 292 290 288 287 287 284 283 281 282 282 282 282 282 280 280 279 280 280 279 279
291 289 288 289 287 284 297 295 290 295 295 296 298 297 295 295 295 295 294 294 293 292 292 292 289 287 287 287 285 282 280 281 282 282 282 281 280 281 282 280 280 280 278 277
290 293 292 292 291 296 296 295 297 299 297 297 296 297 297 295 294 294 293 292 291 291 291 290 287 286 285 285 283 280 280 281 281 280 280 280 280 280 280 279 279 278 277 276
294 296 291 292 292 293 295 296 297 299 298 298 298 297 296 294 295 293 293 292 291 290 289 288 286 284 282 281 281 281 281 281 281 279 278 278 278 280 279 279 279 278 276 277
291 292 292 290 292 293 294 295 296 296 297 296 296 296 296 295 294 294 294 293 291 290 289 288 286 284 282 281 281 281 281 281 279 278 277 278 279 278 278 279 278 277 278 279
293 292 290 290 296 295 294 296 297 295 295 296 295 294 295 295 294 294 293 293 292 290 289 287 286 283 282 281 280 281 281 280 278 277 277 277 277 278 277 277 278 283 284 285

GFSCGP_sfc_thetae_015.txt.gz
Theta_e
296 290 288 291 294 294 292 291 292 297 302 300 300 301 303 305 305 302 300 299 303 304 306 309 311 313 316 317 319 320 322 322 320 315 311 309 306 305 304 302 301 299 300 299
291 288 293 295 295 294 293 290 290 295 301 300 300 299 304 305 306 304 303 301 302 303 305 307 309 311 313 313 315 315 315 316 316 314 311 309 306 303 302 300 297 296 296 296
287 291 296 294 292 291 291 289 290 291 297 300 298 297 299 303 306 305 304 303 305 305 304 304 305 307 308 309 311 312 312 313 312 311 310 308 306 303 301 298 296 294 294 294
289 293 292 292 290 292 287 294 294 293 292 289 298 289 296 300 300 302 301 300 303 304 305 305 304 305 306 307 309 311 312 311 311 309 308 305 301 299 299 298 296 294 293 292
287 290 289 288 290 293 289 295 293 293 292 293 294 291 292 298 299 300 300 300 302 304 305 304 305 306 307 306 304 304 305 305 305 305 303 301 299 298 297 295 293 292 291 291
290 296 294 292 294 294 296 293 292 293 292 285 291 291 289 293 297 300 298 301 302 303 304 305 306 306 304 303 302 301 302 301 301 301 300 298 296 294 292 291 290 290 290 290
290 290 293 295 290 294 292 287 281 281 282 282 293 288 292 296 299 302 299 301 302 303 304 304 304 304 303 301 300 300 299 298 297 296 295 294 292 291 290 289 288 288 288 287
280 275 289 293 291 287 288 287 282 276 280 285 295 288 294 301 299 302 302 302 302 303 304 304 304 303 302 301 299 298 297 295 295 293 292 291 291 290 289 288 287 287 286 286
280 281 293 293 294 293 288 284 291 287 290 286 291 293 295 295 296 299 300 301 301 302 303 303 304 303 301 299 298 297 295 294 293 291 290 288 288 288 287 286 286 286 286 288
288 281 290 292 294 294 292 295 285 286 282 281 286 286 288 290 294 298 299 300 301 302 302 303 304 303 301 299 297 296 294 293 291 290 288 287 286 286 286 286 285 285 285 285
290 286 286 287 289 287 290 290 291 291 288 285 282 286 293 293 296 297 299 300 301 301 302 303 303 303 301 298 296 294 293 291 289 289 287 286 286 286 285 285 284 284 284 284
291 288 283 286 294 297 294 292 292 286 286 289 285 284 293 295 296 299 299 301 302 303 303 303 303 301 299 298 295 293 291 290 289 288 286 286 286 285 284 284 284 284 284 284
292 287 281 284 291 296 292 295 295 294 293 289 283 284 295 294 295 296 299 301 302 302 302 302 301 299 298 297 294 293 290 289 288 287 286 286 285 284 283 283 284 285 284 284
294 290 287 284 289 295 291 293 295 293 288 288 286 288 291 293 295 295 299 301 302 302 303 301 300 298 298 296 295 292 289 288 287 286 285 284 284 283 283 284 284 284 284 283
291 286 289 289 291 294 295 294 292 289 294 290 288 290 292 294 295 295 299 301 301 301 301 301 299 298 297 295 293 290 288 287 286 285 285 284 284 284 284 284 284 284 284 283
293 288 291 292 296 296 294 296 296 296 296 295 294 292 294 295 295 295 298 301 301 301 301 301 300 298 296 294 292 289 287 286 286 285 284 285 284 284 284 284 283 283 282 282
292 291 291 286 295 293 289 294 295 295 296 295 291 295 294 295 297 296 296 301 301 300 300 300 300 298 295 293 290 287 285 285 284 284 284 285 284 284 284 283 282 281 280 280
291 291 293 286 286 279 290 293 298 296 297 297 297 297 296 295 294 295 296 298 300 301 300 301 300 296 293 290 288 286 285 284 284 284 284 284 284 283 282 281 280 279 279 279
297 293 290 285 284 288 290 291 292 292 292 297 297 296 295 295 295 293 296 297 297 298 298 297 295 293 291 288 286 285 284 284 283 283 283 283 282 282 281 279 278 278 278 279
297 295 291 281 279 280 288 292 294 294 287 294 294 296 295 294 290 290 294 297 295 296 295 292 291 289 286 285 286 284 282 283 282 282 282 282 282 281 279 278 278 278 279 279
292 292 285 285 284 287 294 293 294 286 287 294 294 296 295 292 293 294 294 293 293 292 291 290 289 286 285 285 285 283 281 281 282 282 282 282 281 280 278 278 278 279 278 278
290 289 288 289 286 282 294 292 288 292 293 294 294 294 292 293 293 293 292 291 291 290 290 288 287 285 285 285 284 280 279 281 281 281 281 280 279 280 281 279 279 278 277 275
290 293 291 291 291 295 295 293 296 296 295 293 293 294 294 292 292 292 290 290 289 289 287 287 286 284 283 282 282 279 279 281 281 280 279 278 278 279 279 278 278 277 276 275
292 296 291 292 293 292 293 294 296 297 295 295 295 294 294 291 291 290 290 289 289 289 287 286 284 282 280 280 280 280 280 280 279 278 277 277 277 279 278 278 278 277 275 275
291 293 291 289 290 291 292 293 294 295 295 295 295 295 293 292 291 291 290 290 289 288 286 285 283 281 280 279 279 279 280 279 277 277 277 277 277 277 277 277 277 277 277 279
291 290 289 289 293 292 292 294 295 294 294 295 294 293 294 294 293 292 290 290 289 287 286 285 283 280 279 279 279 279 280 279 277 276 276 276 277 276 276 275 276 282 283 284

GFSCGP_sfc_thetae_018.txt.gz
Theta_e
295 290 287 289 293 293 291 288 288 292 299 297 297 298 301 305 303 301 302 300 299 303 305 307 309 311 314 316 317 317 320 314 313 311 307 305 304 303 301 299 298 297 296 296
291 287 292 293 293 292 291 289 288 292 296 297 296 296 301 303 305 305 304 301 299 302 303 306 310 311 314 315 316 317 317 313 312 311 307 304 302 302 298 296 294 294 294 294
288 289 294 292 291 289 289 288 288 288 293 295 294 292 296 302 304 305 306 303 302 304 303 304 307 308 310 311 311 312 311 311 310 308 306 303 302 299 296 294 292 292 293 293
290 293 291 291 289 290 285 293 292 291 288 283 294 285 293 298 301 302 304 298 302 303 304 304 306 306 307 307 309 310 310 309 308 307 304 302 299 296 296 294 292 291 291 291
287 289 289 287 289 292 288 293 291 291 288 287 287 285 291 298 296 300 304 298 302 304 304 305 306 307 306 306 306 307 308 307 306 305 303 301 297 296 295 292 290 289 289 290
290 296 293 291 292 294 294 291 290 289 289 281 285 286 287 293 296 299 301 300 302 303 303 304 305 305 303 302 302 302 304 302 303 302 299 298 295 293 291 290 289 289 288 288
288 289 293 295 290 293 291 286 278 276 277 277 287 285 288 295 298 301 302 299 301 303 302 303 303 303 301 300 299 299 300 297 298 297 296 294 292 290 288 288 287 287 286 286
282 279 288 293 291 288 288 287 279 271 272 277 289 284 289 298 301 303 302 302 301 301 303 304 303 302 300 299 297 297 296 294 294 293 291 290 289 289 288 287 286 286 285 285
281 281 292 292 293 293 286 284 289 282 284 283 286 290 297 300 296 296 301 300 300 301 303 303 302 301 300 298 296 295 294 292 291 290 289 287 287 287 286 286 285 285 285 287
286 277 288 291 293 293 289 291 282 282 276 274 284 288 290 295 295 295 297 298 300 302 302 302 302 301 299 297 295 293 293 291 289 288 287 287 286 285 285 285 284 284 284 284
288 284 284 288 286 285 287 285 287 285 283 283 280 286 296 295 297 296 297 299 300 301 301 302 302 300 298 296 294 292 291 289 287 286 285 285 285 285 284 284 283 283 283 283
290 286 281 283 291 293 290 287 287 282 281 285 285 285 297 296 298 300 299 299 301 302 302 302 301 299 296 295 293 291 289 288 287 286 285 285 284 284 283 283 283 283 283 283
291 286 280 282 286 291 289 289 291 290 289 286 284 286 295 294 297 300 298 299 300 300 301 301 300 298 296 294 292 290 288 287 286 286 285 284 284 283 282 283 283 283 283 283
295 288 285 280 287 291 287 288 292 290 285 285 285 288 293 292 294 296 297 299 299 300 301 300 299 297 296 294 291 289 287 287 286 285 284 283 283 283 283 283 283 283 283 282
291 285 287 288 289 290 292 290 292 290 290 286 289 291 294 294 294 296 298 298 299 299 300 300 298 297 295 292 290 288 286 286 285 285 284 283 283 283 283 283 283 283 282 282
292 285 287 288 292 291 292 293 294 293 290 289 289 288 296 294 294 295 297 299 299 299 300 300 299 296 294 293 290 288 285 285 285 284 284 284 283 283 283 283 282 282 281 280
290 288 287 286 293 292 289 293 293 293 292 290 286 293 294 294 295 295 296 300 300 300 300 299 298 297 295 292 289 286 285 285 284 284 284 284 283 283 283 282 281 280 279 279
291 289 291 287 290 280 290 299 298 294 294 297 297 294 294 294 292 294 294 299 299 300 300 299 298 296 293 289 287 285 284 284 283 283 283 283 283 282 281 280 279 278 279 279
295 292 286 283 282 287 289 291 293 294 293 297 298 294 294 294 294 294 295 296 297 298 300 299 297 292 289 287 285 284 283 283 283 282 282 282 282 281 280 279 278 278 278 278
293 293 289 280 279 280 288 291 292 293 286 293 295 294 293 293 290 292 293 294 294 293 294 291 290 288 286 285 285 284 282 282 281 282 282 281 281 280 279 278 277 278 277 277
290 289 284 283 284 285 292 293 292 285 287 292 293 294 294 292 292 293 292 290 290 290 288 288 288 285 284 284 284 282 281 280 281 281 281 281 280 279 278 277 277 277 277 276
289 288 288 288 282 279 293 292 287 291 292 292 292 292 291 292 292 291 291 290 289 288 287 287 285 283 283 283 283 281 280 280 280 280 280 279 278 279 280 278 278 278 276 274
288 291 289 289 288 294 293 292 295 294 293 291 291 293 293 291 291 291 289 288 287 286 286 286 284 282 281 281 281 279 278 279 280 279 277 277 278 278 278 278 277 276 275 274
290 294 291 292 292 292 292 294 294 295 294 293 293 293 293 290 290 289 288 287 286 285 284 284 283 281 279 279 280 279 279 279 278 277 276 276 276 278 276 277 277 276 275 274
292 293 291 290 290 290 292 293 293 293 293 293 292 292 292 291 289 289 288 287 286 284 283 283 281 280 278 279 278 279 279 278 277 276 276 276 276 276 276 276 275 276 276 278
291 292 292 291 294 293 292 294 294 293 292 293 292 291 291 291 290 289 288 288 286 284 283 282 280 279 278 278 278 278 278 277 276 276 276 276 276 275 275 275 275 281 282 283

GFSCGP_sfc_thetae_021.txt.gz
Theta_e
294 291 287 291 291 291 289 289 289 290 295 293 292 294 297 301 302 303 300 301 301 301 303 305 306 308 311 313 314 311 316 312 312 309 307 307 303 301 300 299 298 297 295 294
289 285 290 292 291 290 290 289 288 291 295 293 291 291 295 297 299 303 304 303 304 299 302 304 306 309 313 314 314 315 311 311 311 310 304 302 300 299 298 296 294 293 293 293
286 288 293 291 289 287 287 286 287 287 291 293 290 287 290 296 300 302 305 306 306 302 302 303 306 309 311 312 313 312 310 309 308 305 303 300 299 297 296 294 291 291 292 292
290 294 290 289 287 289 284 290 290 289 286 281 290 279 287 292 295 300 302 304 302 300 303 304 306 308 309 310 310 309 309 307 305 305 302 301 298 295 295 291 289 289 290 290
287 288 288 287 288 291 287 292 290 290 286 284 285 282 283 293 292 296 299 302 300 301 303 304 308 310 309 308 308 307 306 305 304 303 302 299 297 295 292 289 288 288 288 289
289 293 292 290 292 292 293 290 288 289 286 279 283 283 283 286 291 295 299 302 302 301 303 304 305 306 304 304 305 305 305 303 302 301 299 298 295 292 290 288 287 287 287 287
288 290 293 293 289 292 291 287 279 277 277 276 284 283 285 289 294 298 300 301 301 301 301 303 304 304 302 302 302 303 304 300 299 298 296 295 293 292 289 288 287 286 286 285
281 279 289 292 289 287 287 287 279 273 272 275 284 278 285 293 296 297 300 300 298 301 302 304 305 305 302 301 301 301 300 297 296 294 292 290 289 289 288 287 286 285 285 285
281 279 290 292 293 292 287 283 288 282 282 279 282 285 293 294 296 297 298 299 298 300 302 304 304 302 300 298 297 298 296 293 292 290 289 287 287 287 286 285 285 284 284 286
287 277 287 290 293 293 289 291 282 283 274 272 277 282 285 290 294 296 295 297 298 300 302 303 302 300 298 295 293 293 294 292 289 288 287 286 285 285 284 284 283 283 283 283
290 285 281 288 286 285 287 285 286 284 281 274 275 280 292 294 297 295 294 296 298 300 301 301 300 299 296 294 292 291 290 289 287 286 285 285 284 284 283 283 283 283 283 283
290 286 280 283 290 292 289 286 285 280 275 279 278 280 294 293 295 298 296 298 300 302 301 301 299 296 295 293 291 289 288 287 286 285 284 284 283 283 282 282 282 283 282 282
290 285 279 282 285 289 286 288 288 286 285 280 277 280 295 297 296 299 299 300 300 300 299 298 297 296 294 292 290 288 287 285 285 285 284 283 283 282 282 282 282 283 282 282
294 287 284 279 284 286 284 286 287 286 280 281 282 286 292 295 296 297 297 299 300 299 299 298 296 295 293 291 289 287 285 285 285 284 283 283 282 282 282 282 282 282 282 281
291 283 285 286 287 287 287 286 287 285 285 282 285 288 291 295 296 298 297 298 298 298 298 298 296 294 292 289 288 286 285 285 285 284 283 283 282 282 282 282 282 282 281 280
292 283 286 284 289 288 287 288 288 287 288 287 290 289 296 298 296 295 296 298 297 298 299 298 297 294 291 289 287 286 285 284 285 284 283 283 283 283 282 281 281 280 280 279
288 286 286 285 290 288 285 290 288 290 291 291 287 292 296 295 296 297 297 299 298 299 299 298 297 295 292 289 287 285 284 284 284 283 283 283 283 282 281 281 280 279 278 278
290 289 288 285 288 281 291 298 295 292 294 294 295 295 296 297 300 295 297 299 298 299 299 298 297 294 291 289 286 284 284 284 283 283 282 283 282 281 280 279 278 277 277 278
295 292 288 285 283 288 289 295 294 292 292 297 296 297 297 297 294 295 295 298 297 298 299 298 296 292 289 287 285 284 283 283 283 282 282 282 281 280 279 277 277 277 277 277
292 293 290 286 281 280 286 290 298 298 289 297 297 297 297 295 291 294 294 295 295 296 295 292 290 288 286 284 285 284 282 281 281 281 281 280 280 279 277 277 277 277 277 277
286 290 287 285 284 284 291 292 294 284 286 291 296 299 298 294 294 291 290 289 289 290 289 288 288 286 284 284 284 282 281 280 281 281 280 279 279 277 277 277 277 277 275 275
288 287 287 287 281 278 291 290 287 290 291 291 292 293 291 290 289 289 289 287 287 286 286 285 284 282 282 283 283 281 280 280 280 280 279 278 277 279 279 278 277 277 275 274
286 289 287 288 286 292 292 291 293 293 292 290 290 291 292 290 289 289 286 286 285 285 284 284 283 281 280 281 282 280 278 279 279 278 276 276 277 277 277 277 276 276 274 273
289 292 290 290 290 291 292 293 294 294 291 291 292 293 293 289 289 286 286 285 284 284 283 283 282 280 278 279 279 279 278 278 277 275 275 276 277 276 276 276 277 276 274 274
291 292 291 289 291 291 292 292 293 292 292 291 292 292 291 290 289 288 286 285 284 283 283 283 281 279 278 278 277 278 278 277 276 275 276 276 276 275 275 275 275 276 276 277
291 292 290 290 294 293 292 294 293 292 291 291 291 290 291 291 289 288 286 285 284 282 281 280 279 278 277 277 277 277 277 277 276 275 276 276 275 274 275 274 274 280 282 283

GFSCGP_sfc_thetae_024.txt.gz
Theta_e
294 291 288 291 290 289 287 289 289 292 296 293 291 291 294 297 298 299 301 303 301 302 306 304 305 306 308 310 310 315 317 313 313 310 307 307 304 302 300 299 298 297 296 294
289 285 291 292 293 291 290 287 287 290 293 291 290 290 293 295 296 298 300 302 302 303 301 303 304 305 309 311 311 313 312 311 312 312 304 308 302 299 297 297 295 295 293 292
285 287 292 291 288 288 288 285 284 284 288 291 289 286 288 292 295 296 298 300 303 303 302 302 303 306 309 310 311 311 309 309 307 304 302 299 298 296 295 294 293 293 291 291
289 293 290 288 287 287 283 289 288 287 285 279 286 278 284 288 290 292 295 298 301 303 301 302 302 306 309 310 311 309 308 306 304 304 302 300 299 296 295 293 292 289 289 289
287 288 288 287 288 289 286 290 288 288 285 284 283 280 281 286 286 290 294 297 300 303 303 302 303 308 309 309 308 306 305 304 302 302 303 300 297 295 293 291 289 287 287 288
290 293 291 289 291 291 292 288 288 288 286 279 283 281 281 284 287 289 293 296 300 302 301 303 304 307 307 306 305 304 304 301 301 300 298 300 296 292 290 288 287 286 286 286
289 290 293 294 287 291 290 286 279 277 277 275 282 281 283 286 289 290 292 295 299 301 299 301 304 306 305 305 304 304 303 300 299 300 300 297 294 292 289 287 287 285 285 284
279 277 288 293 289 285 286 285 279 273 271 273 282 277 282 290 294 295 296 297 298 298 299 302 305 308 306 305 304 305 302 298 298 298 294 292 291 290 289 287 286 285 284 284
282 280 289 292 292 291 287 283 288 282 283 279 279 282 288 292 290 293 294 294 296 297 299 302 305 307 305 304 303 302 300 296 294 292 291 289 289 288 286 285 284 284 284 285
284 280 286 289 292 292 289 290 281 282 274 273 275 277 281 287 291 293 293 293 294 297 299 302 305 304 302 302 298 298 298 294 290 289 288 287 285 285 284 284 283 283 283 283
289 285 281 288 286 284 287 285 286 285 282 273 272 276 287 290 291 294 295 297 296 297 300 302 302 299 296 295 296 293 292 289 288 287 285 285 284 284 283 283 282 282 282 282
290 286 280 281 289 292 289 286 286 279 275 279 276 279 293 292 296 297 297 296 295 298 300 301 298 295 295 293 292 291 290 288 286 285 284 283 283 283 282 281 281 282 281 282
290 285 279 280 285 289 286 287 287 286 284 277 274 278 290 290 296 297 296 296 297 297 297 295 295 294 292 291 289 289 288 285 285 285 284 283 282 282 281 281 281 282 281 281
294 288 283 278 282 285 283 285 287 285 280 280 280 282 287 290 294 297 298 295 296 297 297 296 295 293 291 290 288 286 284 285 284 284 283 282 281 281 281 281 281 281 281 280
291 283 285 286 287 286 286 285 286 284 284 279 282 283 287 293 294 296 297 299 299 299 296 295 294 291 289 287 286 285 284 284 284 283 283 282 281 282 281 281 281 281 281 280
293 283 286 284 288 288 285 288 287 286 286 286 286 285 293 296 298 298 299 299 299 298 298 296 294 291 289 287 285 285 284 283 284 283 282 282 282 282 281 280 280 280 280 279
290 285 285 282 287 286 284 286 287 287 289 287 283 288 293 293 296 296 296 297 298 298 298 296 293 291 289 287 286 284 284 283 283 283 282 282 282 281 280 280 280 279 278 278
290 287 287 284 287 281 290 297 292 289 291 291 291 293 297 297 296 296 295 296 297 299 298 297 294 291 288 286 285 283 284 283 283 282 282 282 281 280 280 279 278 278 277 277
294 291 287 284 283 288 290 294 292 289 289 293 292 295 296 295 294 293 295 297 298 298 299 297 295 291 287 285 284 284 283 283 282 281 281 281 280 279 279 278 277 276 276 276
292 292 288 286 282 280 286 290 298 297 288 297 297 296 296 294 290 292 295 296 297 298 297 293 290 288 285 284 284 283 282 282 281 281 280 280 280 279 277 277 276 276 276 276
288 289 286 287 284 285 290 291 297 286 287 292 298 299 295 293 292 290 291 290 291 292 290 289 288 286 284 284 284 282 281 280 280 280 280 279 278 277 276 276 276 275 275 274
285 285 286 287 283 278 291 291 286 290 290 291 292 296 296 291 289 289 288 288 289 287 287 286 284 283 283 284 283 281 280 279 280 279 278 277 277 279 279 277 276 276 274 273
284 288 286 287 285 291 292 292 294 293 291 290 290 290 291 289 287 287 285 285 284 284 284 284 282 281 281 282 283 280 278 279 279 277 276 276 277 277 277 277 276 275 274 273
288 291 289 290 290 292 292 293 293 293 290 290 290 291 291 287 286 284 284 284 283 283 282 283 282 280 278 279 280 279 279 278 277 275 275 276 276 275 275 276 277 275 274 273
289 291 290 289 291 291 292 290 291 290 291 291 291 291 289 287 286 285 283 283 283 282 282 283 281 279 277 278 278 278 277 277 275 275 275 275 275 275 274 275 274 275 275 276
291 292 290 289 294 292 291 292 292 292 291 291 291 290 290 290 287 286 284 283 283 281 281 280 279 278 277 277 276 276 276 276 275 275 276 275 275 274 274 274 274 280 281 283

GFSCGP_sfc_thetae_027.txt.gz
Theta_e
296 292 287 291 292 292 290 289 288 292 296 292 291 292 295 298 299 298 300 301 303 305 309 311 311 311 311 313 315 318 325 329 323 318 316 313 311 308 306 302 300 299 300 297
291 287 292 294 294 292 291 289 288 291 293 291 290 289 294 296 297 298 299 300 302 305 307 308 309 310 310 313 315 319 324 321 321 321 317 314 311 307 301 299 299 299 298 296
286 289 293 292 289 289 288 287 287 286 289 291 288 286 289 293 295 297 299 300 302 303 304 307 308 309 311 313 315 318 318 317 316 311 306 303 304 302 296 296 297 296 295 294
289 293 290 288 288 289 284 290 289 287 285 280 288 278 286 290 292 294 294 296 298 301 303 306 308 308 310 314 316 316 314 313 310 310 308 307 306 303 298 296 294 294 294 294
287 289 288 287 288 289 286 290 288 288 285 284 284 281 284 288 288 291 294 295 297 300 303 305 307 309 311 314 315 314 312 310 308 310 310 310 308 301 294 293 291 291 292 293
289 294 292 290 292 291 293 289 289 288 286 279 283 282 283 286 288 290 294 296 298 301 303 306 308 309 311 313 313 311 310 307 307 308 309 307 301 293 292 291 290 291 291 291
288 290 294 294 288 291 290 286 279 278 278 277 283 282 284 289 292 292 293 294 296 299 302 304 305 307 310 311 310 309 308 304 304 304 305 302 296 294 292 291 290 290 290 290
282 277 289 293 290 286 287 286 280 273 274 276 282 279 284 291 295 295 296 296 297 297 301 302 305 308 310 311 309 308 306 302 303 304 301 297 295 294 292 292 290 291 290 289
282 280 289 292 292 291 286 283 288 282 282 279 282 284 288 291 291 294 296 299 297 297 301 302 305 308 310 310 308 307 305 302 302 299 295 293 292 293 292 290 290 290 289 288
286 279 285 289 293 292 289 290 281 282 274 274 279 279 282 286 289 294 296 298 299 298 299 302 305 308 309 310 307 306 303 301 298 295 294 292 291 291 290 289 288 288 288 287
288 283 282 288 285 285 287 285 286 285 282 276 274 279 286 287 294 294 296 299 299 299 299 302 306 307 306 304 304 301 298 295 293 292 290 290 289 288 288 288 287 287 287 287
289 285 278 281 289 291 289 286 286 280 278 281 278 279 294 294 295 297 298 300 299 299 299 303 302 299 300 300 298 297 295 293 291 290 289 288 287 287 287 286 286 286 286 286
289 284 277 279 284 288 286 287 287 286 285 280 277 279 290 291 294 298 298 300 299 298 297 296 297 298 298 297 295 294 293 289 288 288 287 287 286 286 285 285 285 286 285 285
293 286 282 279 283 287 283 286 287 285 280 281 281 282 287 289 290 294 298 300 300 298 295 296 295 294 294 293 292 291 288 288 287 287 287 286 285 285 285 285 285 285 285 284
291 284 286 286 287 287 285 285 286 284 284 281 283 283 287 289 291 297 298 299 300 299 296 295 293 292 290 290 289 288 287 286 287 286 286 285 285 285 285 284 284 284 284 284
292 284 286 284 288 288 285 288 287 286 286 286 286 285 291 294 296 295 295 296 299 300 297 295 293 291 289 288 288 287 285 286 287 286 285 285 285 284 284 284 283 283 283 283
290 286 285 282 288 288 284 288 287 287 288 287 283 288 293 292 294 295 295 296 298 301 297 294 292 291 289 288 287 287 286 286 286 285 284 284 284 283 283 283 283 282 282 282
289 288 287 283 287 281 291 296 295 289 291 291 290 291 293 294 296 297 299 299 298 300 297 294 293 290 288 287 286 285 286 285 285 284 284 284 283 282 282 282 282 281 281 281
292 290 286 284 283 287 289 291 292 288 289 293 292 293 294 295 296 296 295 297 298 300 298 295 292 289 288 286 286 285 285 285 284 284 283 283 282 281 281 281 281 281 281 280
292 292 288 285 282 279 287 292 298 297 288 296 295 294 293 295 291 292 293 296 298 298 295 292 290 288 286 285 286 285 284 284 283 283 282 282 282 281 280 280 280 280 280 279
287 288 284 285 285 285 290 292 297 285 287 292 296 296 295 295 295 291 292 291 292 293 291 290 289 287 285 286 286 284 284 283 282 282 282 281 281 280 280 280 280 279 279 279
284 283 286 286 283 278 291 293 288 290 292 292 293 297 296 292 290 289 289 289 289 288 287 287 286 285 285 286 285 283 281 281 281 281 280 279 280 281 281 280 279 278 278 278
284 287 285 287 286 291 292 292 293 293 291 291 290 292 292 290 288 287 285 285 285 285 285 285 284 283 283 285 284 280 280 281 280 279 279 279 279 280 280 280 279 278 278 277
287 290 289 290 291 292 293 293 292 291 291 290 291 291 291 287 285 284 284 284 283 283 283 284 283 281 280 281 281 281 280 280 279 278 278 278 278 278 278 279 279 278 278 278
289 290 290 290 292 291 293 291 291 290 291 290 289 288 287 286 284 284 283 282 282 283 283 283 281 280 279 280 279 280 279 279 278 278 278 278 278 278 278 278 278 279 279 279
290 291 289 289 294 293 291 291 292 291 290 290 289 287 287 286 284 284 282 283 282 281 281 280 280 279 278 278 278 278 278 279 278 277 278 278 277 277 277 277 277 280 281 282

GFSCGP_sfc_thetae_030.txt.gz
Theta_e
301 295 291 294 296 296 294 293 291 294 298 296 295 295 298 302 302 302 303 305 307 309 313 315 317 320 320 321 321 322 323 327 332 334 335 335 328 325 321 317 314 308 309 304
294 290 296 296 296 294 292 291 291 294 297 295 294 293 297 299 299 301 302 303 304 306 309 312 314 317 318 319 321 322 324 329 332 333 331 331 327 319 314 310 311 307 302 300
292 292 295 294 293 291 290 288 289 290 294 295 292 290 295 298 299 300 301 302 304 304 305 308 311 314 317 318 320 321 325 330 331 330 328 320 311 305 303 302 303 302 300 299
293 296 293 292 291 292 288 293 292 290 288 283 291 283 292 296 297 298 300 301 302 304 305 306 308 311 314 317 322 322 326 328 329 327 319 316 315 307 309 305 300 299 298 298
290 292 292 289 291 293 289 293 291 291 288 286 288 282 289 293 293 296 299 302 303 304 305 305 307 309 312 318 321 323 325 325 324 321 322 321 318 314 308 302 299 296 296 299
293 297 294 294 295 295 294 291 290 291 288 281 286 284 287 292 294 296 299 301 302 303 305 307 308 311 311 317 321 322 322 322 321 322 321 322 317 306 300 296 294 293 295 298
291 292 295 295 290 293 291 287 281 279 279 280 288 286 288 294 296 297 298 300 302 304 304 304 307 310 312 314 319 320 320 318 319 320 320 319 310 308 302 298 294 293 295 297
285 284 291 295 292 289 288 288 282 276 279 282 287 282 288 296 298 299 299 302 305 306 308 305 306 309 312 315 318 319 318 316 317 318 317 310 305 305 299 294 293 295 296 296
285 284 292 295 295 293 288 284 291 283 285 281 284 288 293 296 296 297 299 302 303 306 307 306 307 310 312 315 318 318 317 315 315 315 309 302 298 297 294 295 296 294 295 294
290 283 289 291 295 294 291 293 283 284 276 275 282 284 285 291 293 298 298 300 304 305 307 307 307 310 313 316 318 319 317 313 313 311 308 300 296 294 295 293 292 295 294 294
292 287 285 290 287 287 287 285 287 287 284 278 277 283 292 292 294 296 298 301 304 305 306 307 307 311 314 316 317 315 313 311 308 306 301 298 294 292 295 294 294 294 294 293
292 287 281 285 292 294 291 288 287 281 280 282 282 282 295 296 298 299 298 300 304 305 305 306 308 311 313 314 313 312 309 307 304 299 298 293 292 292 294 292 294 293 292 292
293 286 281 284 288 291 287 289 289 288 286 282 279 283 294 296 298 298 297 300 303 305 304 304 304 306 309 310 309 308 306 301 297 296 292 291 291 293 293 293 292 292 291 291
295 289 285 282 286 290 285 288 288 286 281 283 283 286 290 292 293 296 297 299 301 303 303 303 303 305 307 308 306 303 297 295 294 291 291 291 293 293 292 291 291 291 291 290
293 284 287 288 289 289 287 287 287 284 286 282 286 287 291 293 295 296 297 299 300 302 302 299 301 302 303 301 297 294 291 291 291 290 290 292 291 291 290 290 290 289 289 289
294 285 287 284 289 289 287 289 290 289 288 287 288 288 295 297 297 296 298 298 298 301 303 300 299 300 298 295 291 290 288 288 291 291 289 290 290 289 289 289 288 289 288 288
291 287 285 283 289 289 286 290 290 290 291 290 285 291 295 294 295 296 297 298 300 301 302 301 299 298 295 292 290 288 289 290 290 289 289 289 289 288 288 288 288 288 287 287
291 288 286 282 287 281 292 296 294 293 293 294 293 294 295 296 297 298 300 300 301 302 303 301 299 294 292 291 290 289 290 289 290 288 288 288 288 287 287 287 287 287 287 287
295 290 286 283 284 287 291 293 292 289 291 296 294 296 296 296 296 296 297 299 300 304 303 300 297 291 291 291 290 290 289 289 288 288 287 287 287 286 286 286 286 286 286 285
293 293 287 285 282 281 290 294 299 298 289 296 296 296 296 296 293 295 295 300 301 301 299 297 295 294 293 291 292 290 289 288 287 287 287 287 287 286 286 286 286 285 285 284
288 288 284 284 284 290 296 296 300 288 290 296 296 298 296 297 296 295 296 295 298 295 294 293 293 291 290 290 291 289 288 286 287 286 286 286 286 286 286 285 285 285 284 284
289 287 286 287 285 284 297 298 293 296 299 297 296 298 297 295 292 292 292 292 293 291 291 291 289 287 288 289 289 288 286 285 286 285 285 284 285 284 285 285 284 284 284 283
289 293 292 293 293 298 298 299 300 299 297 297 295 297 298 294 291 290 289 290 290 290 290 291 289 288 289 290 288 284 284 285 284 284 284 284 284 285 285 285 284 284 283 282
295 297 295 295 299 299 300 300 298 296 295 295 296 297 297 293 291 289 289 288 287 288 287 288 288 287 286 287 285 284 284 284 284 283 284 284 284 283 284 284 284 283 283 282
297 296 296 296 299 301 298 298 297 295 295 293 293 295 295 292 290 289 288 287 287 286 287 287 286 285 284 285 284 284 284 285 284 284 284 284 284 283 283 283 283 283 283 282
296 297 295 295 300 299 298 296 296 295 293 292 291 290 291 291 289 289 287 287 286 285 285 285 284 284 283 283 283 283 285 285 284 283 283 283 283 283 283 283 282 281 281 282

GFSCGP_sfc_thetae_033.txt.gz
Theta_e
301 296 293 297 300 300 297 295 294 298 301 298 297 297 300 303 303 303 305 306 308 309 313 315 317 319 319 321 322 323 324 325 327 331 335 337 336 335 335 337 331 325 319 313
296 292 298 299 298 296 295 293 293 296 298 296 295 295 298 300 301 302 303 304 305 307 309 312 314 316 318 319 321 322 323 325 328 332 336 338 334 330 328 325 323 318 312 309
293 295 297 296 295 293 293 291 291 290 295 297 295 292 296 300 302 303 303 304 305 305 306 308 310 314 318 318 321 322 323 326 329 333 335 336 323 315 311 311 311 309 308 307
294 298 294 294 293 294 290 296 294 292 290 287 293 285 293 297 298 300 301 302 303 304 306 307 309 311 314 318 323 323 324 326 331 334 332 329 318 312 311 308 307 306 303 303
292 293 293 291 292 295 291 295 292 292 289 287 289 285 291 296 294 297 300 302 304 306 306 306 308 310 312 316 322 324 325 326 331 332 331 325 318 317 311 306 302 302 301 300
295 298 296 295 296 296 295 292 291 290 288 281 287 287 288 293 295 299 302 303 303 304 305 306 308 309 311 314 318 324 324 326 329 330 325 322 323 315 306 302 299 300 300 301
292 292 295 297 292 295 293 288 283 280 280 280 290 288 289 295 297 298 299 301 302 304 306 308 307 307 310 313 315 322 323 324 327 326 324 323 322 311 308 303 301 298 299 299
284 285 293 295 292 290 289 288 283 278 280 283 290 284 289 297 299 300 301 301 302 305 307 309 310 310 310 314 315 319 321 323 323 323 324 325 316 311 306 304 301 299 299 299
287 285 294 296 296 294 289 284 291 284 285 281 285 289 294 297 297 298 299 300 301 305 307 308 310 311 308 311 315 318 321 321 321 323 323 321 312 308 303 303 301 297 298 298
292 285 292 294 295 295 292 294 283 284 276 277 284 286 287 292 295 297 297 300 303 305 306 308 309 310 310 312 315 319 320 320 319 321 320 314 307 300 299 299 297 295 296 297
293 289 287 290 288 289 288 286 288 288 286 280 279 284 294 293 295 295 299 301 303 304 305 306 309 310 311 313 316 318 319 317 318 317 309 303 299 298 296 296 293 296 294 294
293 288 283 286 293 294 293 288 288 282 282 284 282 283 296 295 297 298 299 301 302 304 305 307 308 311 312 315 317 318 318 315 316 311 304 299 296 294 295 293 295 293 293 295
293 287 282 284 289 293 289 290 290 289 288 282 280 283 296 296 296 298 299 300 300 302 305 306 307 308 312 314 315 315 314 312 309 304 300 296 294 293 293 292 295 293 293 293
297 289 285 283 287 291 285 289 290 287 283 284 284 287 292 294 295 296 298 299 300 301 303 305 305 307 309 311 312 311 309 305 303 299 296 294 293 293 291 293 293 293 292 291
293 285 287 288 290 290 288 288 289 286 287 282 286 287 292 294 296 297 299 299 299 300 303 304 304 305 306 308 308 304 300 299 298 296 294 293 292 293 292 292 292 291 291 290
294 286 288 285 289 291 289 291 292 291 290 290 288 287 296 297 298 297 298 299 299 300 301 303 302 303 304 304 300 297 295 294 293 293 292 291 291 291 291 290 290 289 289 289
290 288 286 283 289 289 288 290 291 291 293 291 287 292 297 295 296 297 297 298 299 301 303 303 300 301 300 295 293 291 291 292 290 290 290 289 290 289 288 289 289 289 288 288
290 289 288 283 287 282 293 298 296 292 294 295 294 296 298 297 298 298 298 298 299 301 303 303 300 297 294 291 290 291 291 290 289 288 288 288 288 287 289 289 288 288 288 288
294 290 286 283 283 288 293 296 294 292 291 296 294 296 298 298 297 296 296 299 302 302 304 302 298 292 290 289 290 290 289 289 289 287 288 288 288 288 287 287 287 287 287 286
294 294 288 286 281 281 291 297 298 299 290 298 297 297 297 297 292 292 295 299 301 302 300 293 291 289 289 290 290 289 289 288 288 288 289 289 289 288 287 287 287 287 287 285
288 288 284 285 283 288 298 299 301 289 291 299 298 299 298 296 293 294 296 297 297 297 293 292 292 290 291 292 292 291 291 289 289 289 288 287 288 287 287 286 286 286 285 285
289 287 285 286 284 283 300 300 294 299 301 300 298 299 297 295 294 293 294 294 293 292 293 293 292 292 293 293 292 289 287 287 287 287 286 286 286 286 286 286 286 285 285 284
290 294 292 292 292 302 303 300 303 303 300 299 298 299 300 296 293 293 292 291 292 290 289 290 289 289 289 290 288 285 285 286 285 284 284 285 285 286 286 286 285 284 284 283
297 300 295 296 300 301 304 304 302 299 298 298 298 299 301 297 294 291 291 290 290 291 291 291 290 289 287 286 285 284 284 285 284 284 285 285 284 284 285 285 285 284 283 282
298 298 297 297 301 303 300 300 300 298 297 296 297 300 298 295 293 292 290 289 289 289 290 290 288 287 285 284 283 284 284 285 285 284 284 284 285 284 284 284 284 283 283 282
300 297 296 295 301 301 300 299 299 297 295 295 295 295 295 295 292 291 289 289 289 288 288 287 286 285 284 283 283 285 287 287 285 284 284 284 284 284 283 283 282 282 282 282

GFSCGP_sfc_thetae_036.txt.gz
Theta_e
304 297 293 295 297 297 297 293 291 294 299 295 294 294 297 300 300 300 301 302 303 305 309 309 311 312 311 311 312 318 317 317 318 320 330 333 332 333 334 334 333 325 319 315
295 290 297 299 299 297 294 290 290 294 297 294 292 291 295 297 298 299 299 300 301 303 305 308 308 310 311 311 312 313 316 318 320 321 325 330 328 326 324 326 325 318 312 308
292 294 299 297 294 292 291 289 289 289 292 293 291 288 292 296 298 299 301 301 302 302 303 305 306 307 310 312 313 313 315 316 320 322 327 323 316 314 312 315 313 311 309 307
293 298 294 293 292 293 287 294 293 291 287 281 290 279 288 292 293 295 295 296 298 300 302 304 304 304 305 309 313 314 315 316 319 324 327 324 323 316 309 308 309 307 308 306
291 293 292 290 292 294 289 294 291 291 286 285 284 280 284 291 290 292 294 296 297 299 300 300 301 303 305 305 309 314 315 315 319 325 328 323 317 310 307 305 303 303 304 303
294 298 295 293 295 295 295 291 290 289 287 278 283 283 282 286 289 292 295 296 298 297 298 300 302 303 303 304 306 311 314 315 321 325 326 319 314 307 304 301 300 300 300 302
291 292 295 296 291 295 293 288 276 276 278 274 286 283 285 291 294 295 295 295 295 297 297 300 302 305 303 303 305 307 314 314 321 323 322 317 315 307 303 301 300 298 298 299
283 282 291 294 292 289 289 288 277 273 274 278 286 280 284 293 295 296 296 296 298 295 299 302 304 305 306 304 305 306 313 315 320 322 319 317 309 306 303 302 300 299 299 299
285 285 294 295 295 294 288 283 288 280 281 274 280 284 290 294 294 294 294 296 295 295 301 301 303 305 305 304 306 307 312 315 319 319 318 315 308 306 302 300 300 299 298 299
291 284 291 294 295 294 290 292 282 281 271 272 279 281 283 288 290 292 292 294 296 300 300 301 302 304 307 305 305 308 313 315 316 317 316 309 306 302 301 300 298 297 297 296
292 288 285 289 287 286 287 285 287 285 283 275 275 279 287 289 291 291 293 296 297 299 301 301 302 304 307 305 305 309 313 314 316 315 310 301 298 299 298 297 296 296 295 295
293 288 279 283 291 293 291 287 285 279 276 281 280 280 294 294 292 294 294 298 299 300 301 302 303 304 305 307 307 310 313 315 311 304 298 295 295 296 294 295 294 294 295 293
293 284 276 280 286 289 286 289 289 288 286 280 278 280 294 293 295 296 295 295 297 299 299 301 302 303 303 308 311 313 314 312 303 297 294 294 294 294 294 292 294 293 293 293
295 289 281 276 283 288 283 287 288 287 282 282 282 284 289 293 294 297 298 298 297 298 298 301 301 301 303 309 310 310 304 301 297 294 293 292 293 293 292 292 293 292 292 290
291 283 284 286 287 286 286 286 288 285 286 283 285 286 291 293 295 296 297 298 297 296 296 301 300 300 302 306 305 300 299 296 293 292 292 292 291 292 292 291 291 290 290 289
293 283 284 281 287 287 285 288 289 290 291 290 290 289 297 298 298 296 296 298 298 298 297 300 300 300 303 300 296 295 293 292 292 291 291 291 291 291 290 290 289 289 288 287
290 286 285 277 287 286 284 289 291 292 293 292 287 292 296 296 298 297 296 297 297 298 299 301 300 301 295 294 293 290 289 290 291 290 290 290 289 289 288 288 288 287 286 286
290 288 287 280 284 278 291 297 295 293 294 295 295 296 296 298 298 296 296 296 297 298 299 301 299 293 291 291 290 290 290 290 289 288 288 288 288 288 288 288 287 287 285 284
293 290 285 280 281 285 289 293 293 290 291 296 295 296 297 298 297 294 296 297 299 299 302 298 293 290 289 290 290 289 289 289 289 288 288 288 289 288 288 287 285 284 284 284
293 292 287 284 280 278 287 294 297 297 289 295 296 297 297 297 291 291 295 295 292 292 292 289 289 289 289 289 290 289 289 289 289 289 289 289 289 288 285 284 283 284 284 283
287 288 284 284 282 285 292 296 299 286 287 296 296 299 296 294 293 294 294 294 292 290 289 289 289 289 289 291 291 289 289 288 289 289 289 287 286 284 284 283 284 284 283 282
286 285 284 285 283 279 296 295 291 294 296 296 295 299 295 294 292 293 292 291 293 293 292 292 290 291 292 293 291 289 288 289 288 286 285 284 284 285 285 283 282 281 280 280
286 290 288 287 287 295 298 297 299 297 295 294 294 296 297 293 292 291 290 289 288 290 291 292 292 291 292 291 288 284 284 284 284 284 284 284 285 284 283 281 280 279 280 278
293 295 291 292 296 296 297 298 298 296 293 294 295 296 298 292 290 290 290 290 290 288 287 287 286 284 283 284 284 283 284 285 284 283 283 282 281 281 281 281 280 279 278 277
293 296 293 293 296 297 296 296 295 295 294 294 295 297 294 292 291 289 287 287 287 288 287 286 283 282 281 283 283 284 285 285 283 282 281 281 281 280 279 279 279 278 279 279
294 293 291 290 297 296 294 296 297 294 292 293 293 292 293 292 290 289 287 287 286 285 285 283 282 281 282 283 284 285 285 284 282 280 279 279 278 278 278 277 277 283 282 282

GFSCGP_sfc_thetae_039.txt.gz
Theta_e
305 297 292 293 295 295 295 294 289 291 296 292 292 292 294 297 297 299 300 298 300 303 306 306 306 307 306 307 308 313 317 331 334 335 334 333 328 332 333 333 330 324 319 314
295 291 298 301 299 297 293 290 287 291 294 291 290 289 293 295 296 297 298 296 298 301 302 303 305 305 307 309 308 307 313 323 330 333 334 332 327 326 330 331 327 323 316 312
289 293 298 296 294 293 290 286 286 287 290 290 288 285 288 293 295 297 299 300 300 300 301 301 301 302 303 306 308 309 310 314 319 321 323 318 318 317 317 317 317 314 311 310
294 296 295 293 292 291 285 292 291 289 285 279 287 277 284 289 291 292 293 294 298 299 298 299 300 300 300 302 306 309 310 312 315 316 323 322 323 322 315 310 309 308 306 307
290 292 292 289 291 293 288 293 290 289 284 281 282 277 282 287 287 290 292 292 293 296 298 300 299 301 302 301 303 307 310 311 314 317 323 324 323 314 309 307 306 305 307 307
292 297 294 292 294 293 294 289 287 286 283 273 281 280 279 284 287 289 290 293 294 294 295 297 299 301 300 300 300 305 309 309 312 317 323 324 314 309 307 304 303 303 304 303
291 292 295 295 289 292 292 283 271 275 277 273 283 280 281 288 291 292 292 293 293 295 297 299 300 302 303 303 303 302 304 309 312 317 323 319 313 311 309 304 303 301 299 301
279 277 290 293 290 287 286 284 273 270 271 275 283 278 283 291 295 294 295 295 295 295 297 300 301 302 302 303 304 303 302 306 312 319 318 316 310 309 307 305 302 301 301 300
280 282 294 294 294 292 286 278 286 277 277 270 278 282 287 291 291 291 291 293 293 291 298 299 300 301 302 303 303 303 303 308 315 319 317 310 308 306 304 302 302 300 300 299
289 283 291 294 295 294 288 289 279 276 267 270 275 278 282 285 287 290 290 291 294 297 297 299 300 301 303 303 305 303 303 309 316 317 312 307 306 303 302 300 298 298 298 298
292 288 285 291 287 284 286 286 287 282 279 273 273 277 286 287 288 288 290 292 295 298 299 299 300 302 303 303 304 304 305 311 313 309 307 305 302 300 299 299 297 298 298 296
292 287 280 281 289 291 288 285 283 273 273 277 276 279 292 293 292 293 295 297 298 298 298 299 300 302 302 302 305 307 307 311 309 305 303 300 299 298 296 297 296 297 294 294
291 282 272 279 283 287 285 287 287 285 283 276 277 279 290 292 294 295 296 299 300 297 297 298 300 301 301 303 308 309 307 300 300 298 296 297 296 295 294 293 294 295 294 293
294 285 278 274 280 285 278 285 286 285 281 280 281 283 288 291 294 297 299 299 300 300 298 299 299 301 302 305 302 301 298 297 297 296 295 293 293 292 293 293 294 293 294 292
289 277 281 284 286 283 283 284 286 284 285 282 284 286 291 294 296 298 300 298 298 298 297 299 299 299 300 299 298 296 297 297 296 295 294 292 292 292 293 292 292 292 291 290
289 280 280 278 286 286 283 286 286 287 287 287 288 288 297 299 299 299 297 298 298 297 298 298 298 298 293 292 294 294 295 295 294 293 291 292 291 291 290 290 290 289 289 289
288 282 277 272 284 284 282 286 287 290 293 292 288 292 297 297 298 297 295 296 297 298 297 298 297 292 291 292 292 291 292 293 291 290 290 289 290 289 289 289 289 288 287 287
288 284 283 277 282 277 289 295 294 291 293 294 294 296 297 298 299 295 295 293 292 295 297 298 291 289 289 290 290 290 290 289 289 288 288 289 289 288 289 288 287 287 287 286
294 289 281 280 278 284 289 293 293 290 289 295 294 296 298 299 298 293 294 291 290 296 296 290 289 288 289 289 289 288 288 288 288 288 289 289 289 289 289 288 287 287 286 284
293 292 287 283 279 277 286 293 295 296 285 295 294 295 298 296 291 290 292 290 288 288 289 288 289 289 289 289 290 289 288 288 288 289 289 290 290 289 288 287 285 284 283 282
288 288 283 283 281 283 291 294 298 285 287 294 294 297 297 293 292 292 292 291 289 289 288 289 289 288 289 290 291 289 289 287 290 290 290 289 288 286 283 283 283 282 282 282
285 284 285 286 282 277 294 295 291 293 295 294 293 297 294 293 292 290 291 292 291 289 290 291 289 290 291 291 290 288 287 289 289 288 286 286 285 286 285 283 282 280 279 278
286 288 287 285 285 292 296 296 295 295 294 292 291 294 293 291 291 290 288 290 291 292 291 292 291 290 289 290 290 287 286 286 286 285 284 284 284 284 282 280 279 278 278 277
293 295 292 290 294 293 296 295 294 293 292 293 293 296 295 290 290 288 288 287 288 289 289 291 289 287 285 286 286 285 284 284 284 283 283 283 281 280 280 280 279 277 276 276
292 293 291 290 294 295 293 294 293 293 292 293 294 296 293 290 288 288 287 286 286 285 285 285 283 282 282 283 283 284 285 285 283 282 281 280 280 279 278 278 277 277 277 277
292 290 289 289 295 294 294 294 295 292 291 292 292 292 291 290 288 287 285 284 284 284 283 282 282 282 282 283 283 284 285 284 283 279 279 278 277 277 276 276 276 283 283 283

GFSCGP_sfc_thetae_042.txt.gz
Theta_e
304 297 293 297 298 294 292 292 292 291 295 290 290 289 292 295 295 295 298 298 299 300 304 304 304 304 303 304 305 308 323 330 335 333 332 330 330 330 329 330 328 325 321 317
298 293 297 299 299 296 293 291 288 290 293 290 289 289 293 294 295 296 298 299 298 300 300 301 303 304 304 305 304 304 310 325 332 335 335 334 331 328 329 330 328 325 319 316
292 294 299 298 296 295 291 286 285 287 290 288 287 286 288 291 293 295 297 298 299 298 300 301 299 300 302 302 305 307 306 313 328 334 329 321 321 319 319 321 323 323 318 317
292 295 295 294 293 290 286 291 290 288 285 279 287 277 283 288 289 291 291 292 295 297 298 299 300 299 299 301 302 305 307 309 316 322 325 327 325 322 323 324 319 313 313 315
289 292 291 289 291 293 288 292 289 287 283 280 280 277 281 285 286 288 290 291 292 293 295 297 297 298 299 299 299 301 304 307 310 314 324 325 327 327 313 310 311 309 310 312
291 296 293 292 293 292 293 288 286 285 280 272 279 279 279 282 286 287 289 292 293 294 294 295 297 300 301 300 300 300 302 304 307 310 316 323 325 311 310 308 306 306 306 307
291 290 293 294 289 292 289 282 272 270 269 272 281 279 280 286 290 289 291 292 293 293 294 297 299 301 302 302 302 303 302 303 304 307 312 320 320 314 313 310 308 304 303 302
281 277 289 292 289 286 286 283 274 270 271 274 282 277 282 288 291 291 291 292 292 292 293 298 298 300 300 300 301 303 303 303 303 305 313 318 318 316 313 311 309 307 305 303
278 280 292 292 293 290 285 279 285 276 275 270 277 280 285 287 288 289 291 293 293 292 296 297 299 300 300 301 302 303 304 303 302 305 316 315 313 312 308 305 305 304 303 302
287 279 290 293 294 294 287 289 276 272 266 268 274 275 279 284 286 289 289 292 295 297 297 298 299 300 301 302 302 302 304 303 302 310 314 309 309 309 306 304 302 303 301 301
289 284 284 292 286 284 287 284 282 280 277 272 271 277 285 285 287 288 289 291 293 295 296 298 299 300 302 301 301 302 305 305 307 309 306 305 304 303 303 303 301 300 301 300
291 284 274 284 287 289 287 284 282 272 271 274 275 278 290 288 288 291 294 296 299 300 302 303 300 301 301 301 301 304 307 305 308 305 304 301 300 301 300 299 299 299 297 296
289 280 272 278 283 286 283 286 285 283 283 271 274 278 289 289 294 296 298 300 302 302 300 301 298 301 301 302 303 304 303 302 301 300 299 298 298 299 298 298 297 294 294 293
294 283 278 275 277 281 277 284 285 284 279 276 278 282 287 290 293 297 299 301 300 300 299 299 299 301 301 301 298 296 294 295 296 297 297 296 297 297 297 296 294 293 293 292
288 278 279 282 285 282 282 283 284 279 284 277 283 284 288 292 294 297 300 299 299 299 298 299 300 299 297 294 293 293 293 294 297 296 294 293 292 294 293 293 292 292 291 291
288 276 279 278 285 284 281 284 285 285 286 286 286 285 293 296 300 299 296 296 295 297 299 299 299 295 292 290 290 292 293 295 298 295 293 293 292 292 290 289 289 289 289 289
286 280 277 274 282 282 279 284 286 286 287 288 286 291 297 297 298 294 293 292 290 290 295 299 297 291 289 289 289 290 292 293 291 291 291 290 289 289 289 290 290 289 288 288
285 283 280 274 279 273 289 293 293 288 290 293 293 295 297 298 299 294 293 288 287 288 295 297 289 286 286 288 289 290 290 289 289 288 288 289 289 289 289 289 288 287 288 287
292 289 281 275 276 282 289 293 292 289 289 293 292 295 296 299 298 293 292 289 287 288 288 287 287 286 287 288 289 288 288 289 288 288 289 290 290 289 289 288 287 288 287 286
293 292 284 279 277 277 287 291 295 294 285 294 294 293 296 297 291 291 291 288 288 288 289 288 289 289 289 289 289 288 288 288 288 289 290 291 291 290 288 288 287 286 285 284
287 287 282 282 279 283 290 292 297 284 288 294 294 293 296 294 294 292 292 290 289 289 289 289 289 289 290 291 290 289 288 287 289 291 290 289 290 289 288 286 285 283 282 282
285 284 283 284 281 277 294 294 291 293 294 293 292 294 292 292 292 290 292 291 290 289 290 290 289 289 290 291 290 287 285 287 288 287 286 286 286 287 285 283 282 281 280 278
285 286 285 286 285 291 292 296 298 295 292 291 290 293 293 291 290 289 290 291 291 290 290 291 289 289 290 290 289 286 285 287 287 286 285 284 283 282 282 280 278 277 277 276
290 294 291 290 293 293 295 294 295 294 292 292 292 294 292 290 290 288 287 290 291 291 291 291 289 287 286 288 288 287 287 287 285 283 282 282 280 279 278 278 278 276 276 275
290 293 292 291 293 295 295 294 294 294 292 292 293 295 293 290 288 287 287 286 287 287 286 284 284 284 284 285 285 285 285 285 283 281 280 279 279 277 277 277 277 277 276 276
291 288 288 288 295 293 293 294 294 292 290 291 291 290 290 289 288 287 285 285 285 283 283 282 282 282 282 283 283 284 284 284 281 278 278 278 277 276 276 276 276 284 283 284

GFSCGP_sfc_thetae_045.txt.gz
Theta_e
304 297 293 296 295 292 291 290 288 291 294 289 289 288 292 295 293 293 295 298 299 300 304 302 303 304 303 303 303 305 318 329 335 334 333 332 330 331 329 329 329 326 322 319
299 293 298 301 300 297 294 290 287 290 292 289 288 287 292 294 295 296 296 297 298 300 299 300 301 302 303 304 304 302 307 324 332 334 334 333 332 332 332 330 328 326 322 320
292 295 301 298 296 294 291 287 285 286 289 288 286 285 287 291 292 293 295 297 298 298 299 301 299 299 301 301 303 305 304 309 327 333 332 322 323 320 320 321 326 324 322 319
293 294 296 295 293 293 286 291 289 287 285 279 286 277 284 287 288 290 291 291 293 295 296 298 298 297 297 299 301 303 305 306 311 327 330 328 326 324 326 328 327 320 319 318
289 291 292 292 293 293 288 291 288 287 282 279 280 277 282 284 286 287 289 290 291 292 293 295 296 297 298 298 298 299 301 303 306 314 327 328 327 326 324 324 324 316 313 318
290 295 293 291 292 293 293 287 284 283 280 272 278 278 279 282 283 286 289 292 291 292 293 294 295 297 299 299 299 298 299 300 303 305 314 325 327 317 313 311 317 313 310 312
290 289 293 294 289 291 288 283 272 270 269 272 280 278 281 286 288 289 289 290 290 291 292 294 297 300 301 300 301 302 302 302 303 303 305 316 323 316 316 315 316 311 309 306
281 280 288 291 289 286 285 283 274 271 270 273 280 277 282 286 288 288 290 290 294 295 293 296 298 299 299 299 300 301 302 303 303 303 302 308 315 319 318 315 314 313 313 313
279 280 291 292 292 290 285 277 283 276 273 270 277 279 284 287 288 289 290 292 292 294 296 297 299 299 299 299 300 301 301 303 304 304 302 307 314 316 315 313 312 312 309 305
285 280 290 291 293 292 286 288 277 272 266 268 273 275 278 282 284 288 289 290 291 293 295 296 297 298 299 300 301 300 301 303 305 304 303 308 313 314 314 308 306 304 303 304
288 284 286 291 285 284 285 281 281 280 276 271 271 276 283 284 286 288 289 292 292 296 298 299 296 298 299 300 301 300 301 304 305 305 306 305 304 303 302 302 301 301 302 300
289 283 282 285 287 289 287 284 281 272 271 277 277 277 288 287 287 290 293 298 301 303 302 301 301 301 301 299 301 302 305 304 304 305 301 300 300 300 299 299 300 300 300 301
288 279 272 277 282 285 283 285 283 281 278 269 271 277 288 288 291 293 296 299 302 302 300 299 300 299 297 300 302 300 296 296 298 299 298 297 297 298 299 300 301 299 298 298
293 282 278 273 276 281 277 283 283 281 273 275 277 279 287 289 291 294 297 301 300 300 301 300 299 298 301 299 295 292 292 294 296 296 296 296 297 299 299 297 298 297 295 294
288 278 279 282 284 281 282 283 283 278 282 275 280 282 286 291 293 295 300 297 297 297 297 299 299 296 296 293 291 292 293 294 293 294 295 294 296 296 295 294 294 292 292 290
287 277 279 277 283 283 281 283 284 284 284 284 285 285 292 294 296 300 296 295 293 292 292 292 298 295 291 287 288 290 290 292 295 294 293 292 292 292 292 292 290 289 289 289
285 280 277 274 281 282 278 283 283 284 285 287 283 288 293 296 297 298 293 291 289 288 289 292 297 291 288 287 288 287 289 291 290 290 290 290 290 290 291 290 289 289 288 288
284 281 280 274 278 273 284 290 289 287 288 289 290 292 295 296 299 294 292 288 287 287 287 288 288 286 285 286 287 290 290 290 289 289 289 290 290 289 290 289 289 288 288 287
292 288 282 278 273 279 287 291 291 287 288 292 291 293 295 297 297 294 291 288 287 288 288 287 287 286 288 288 289 289 289 289 289 289 289 289 289 289 289 288 288 288 287 287
292 291 286 281 276 276 286 292 294 293 284 293 293 294 294 297 292 294 290 288 288 288 289 288 289 289 289 289 290 289 288 289 289 290 290 291 291 290 288 288 286 287 287 285
287 287 283 282 278 281 289 293 296 283 288 293 293 293 293 292 295 291 291 289 289 289 289 290 290 289 290 290 290 288 287 287 290 290 289 289 289 288 288 287 287 286 284 283
285 284 283 283 279 276 292 295 291 294 295 292 292 292 293 292 291 291 292 290 290 290 290 290 289 289 290 290 288 286 285 287 288 288 288 288 288 288 286 284 282 281 280 279
284 286 285 284 283 291 292 293 297 296 293 291 291 292 293 292 291 290 292 291 290 290 290 291 290 289 290 289 288 286 286 288 287 286 285 284 283 282 281 279 277 276 275 275
287 292 288 288 291 290 294 295 295 294 292 292 292 291 292 292 291 288 291 291 291 291 290 290 289 288 287 288 288 287 287 287 285 283 281 280 278 277 277 277 278 276 275 275
288 291 292 291 291 294 295 295 296 294 292 291 292 293 293 291 289 288 288 288 288 287 287 287 286 287 286 287 287 287 285 283 280 279 279 277 277 276 276 277 276 275 274 275
290 290 286 284 291 292 292 294 294 292 291 291 291 290 291 290 289 288 286 287 285 283 282 282 283 283 283 283 283 283 283 282 280 278 277 277 276 276 276 276 276 285 284 284

GFSCGP_sfc_thetae_048.txt.gz
Theta_e
304 297 293 295 294 292 290 288 287 289 293 289 289 288 291 295 292 292 293 295 297 299 303 302 302 303 303 303 302 303 307 325 336 337 335 333 331 332 330 330 329 324 322 322
297 293 299 299 298 294 292 288 286 290 291 288 288 287 291 294 294 295 295 296 297 298 299 299 300 300 301 302 302 301 304 312 327 335 335 334 334 333 332 330 329 327 322 321
293 296 301 298 297 295 293 290 288 286 288 287 285 285 286 290 291 292 293 294 295 295 296 298 297 298 298 299 301 303 302 306 320 331 333 323 324 323 328 325 327 327 323 321
293 298 298 296 294 295 289 292 289 287 284 280 285 278 284 287 287 288 288 289 291 292 292 294 295 296 296 298 299 301 303 303 308 324 329 328 328 326 327 328 328 326 323 320
289 294 294 293 294 296 288 291 288 286 282 278 280 278 282 284 284 286 288 290 290 290 291 293 293 294 296 297 297 297 299 302 305 310 328 327 326 327 322 325 323 322 319 321
291 295 294 292 292 293 292 287 284 282 280 273 278 277 279 282 282 286 287 290 292 292 292 294 297 299 300 300 300 299 297 298 300 304 312 324 325 325 316 317 322 317 315 317
290 290 294 293 288 291 288 285 279 271 270 272 279 278 280 284 287 286 287 290 292 293 294 296 297 298 299 299 299 299 301 301 301 301 302 310 322 323 317 319 321 318 314 314
280 282 290 291 289 286 283 283 275 270 271 274 280 276 281 286 287 288 289 290 292 292 294 295 297 297 298 299 299 299 299 300 302 302 301 302 307 315 318 318 319 318 315 315
280 280 290 291 291 289 284 278 283 276 273 270 276 279 282 285 285 286 289 290 291 292 293 295 297 298 297 298 299 299 299 300 301 302 302 301 302 307 314 316 317 317 314 313
284 280 288 290 292 291 286 287 277 272 269 270 273 274 277 281 284 288 289 290 291 293 295 296 298 298 297 299 301 300 300 300 301 303 304 304 303 307 311 311 310 308 305 305
287 284 285 290 285 284 284 280 280 279 276 272 271 275 282 283 285 286 289 290 292 296 299 299 299 299 300 301 300 299 299 301 303 303 304 304 303 305 304 304 301 300 301 301
288 284 283 283 286 287 286 283 280 273 271 277 275 276 286 285 287 288 290 293 298 303 300 298 297 298 300 297 297 299 297 298 298 299 300 300 303 303 302 299 298 300 299 300
288 279 273 281 285 285 283 284 282 280 277 269 270 276 287 286 289 291 291 294 299 299 298 298 298 298 297 296 294 294 294 294 296 298 297 298 300 301 301 301 301 300 300 299
291 281 278 274 277 281 278 283 282 279 272 274 275 278 285 287 288 291 293 297 298 298 296 296 294 296 295 294 294 293 294 294 295 295 296 297 299 299 299 299 298 297 296 295
287 277 278 282 283 281 282 283 282 277 280 274 278 280 285 288 290 292 295 297 296 294 291 290 290 295 293 291 291 290 291 292 292 291 292 294 295 295 295 294 293 292 292 291
286 279 279 276 283 283 281 283 283 282 283 282 284 283 291 293 295 297 296 295 292 290 289 289 290 293 290 288 287 287 287 289 291 291 290 291 291 291 291 291 291 291 291 291
286 280 277 273 280 281 278 282 283 283 284 286 281 287 291 291 295 297 295 292 289 288 288 287 287 287 288 286 287 286 289 291 290 290 290 290 290 290 289 289 289 289 290 290
284 281 280 274 278 272 282 289 287 286 287 288 288 290 291 292 297 295 292 288 287 287 287 286 286 286 284 286 289 290 291 290 290 290 290 290 290 290 289 289 288 288 289 289
290 287 281 278 273 278 285 288 287 286 289 290 289 291 293 296 293 289 289 287 287 288 288 288 288 286 287 289 290 290 289 290 290 289 289 290 290 289 288 286 286 285 287 286
292 288 281 281 277 274 284 291 294 292 286 292 292 293 293 293 289 290 290 289 289 288 289 289 289 290 289 289 290 290 289 289 289 290 290 290 290 289 288 287 287 287 287 285
286 286 282 281 279 280 288 291 295 284 286 293 292 293 291 290 292 292 291 289 288 289 290 290 290 289 289 290 289 287 287 288 289 290 290 289 289 287 286 285 286 285 284 283
284 282 282 283 280 276 291 294 290 293 295 293 292 291 291 291 291 292 292 290 289 287 289 290 289 289 290 289 288 287 286 288 289 288 288 287 288 289 287 284 283 282 281 278
283 285 282 283 282 289 293 293 294 296 295 293 291 291 291 291 293 292 292 290 290 289 290 291 290 289 289 289 289 287 287 288 287 286 284 284 284 283 281 279 277 276 275 274
288 293 290 288 289 290 294 294 294 294 293 293 292 291 291 291 291 290 291 291 290 289 290 290 289 288 287 288 288 287 288 287 284 281 279 278 277 276 276 276 277 275 274 274
289 292 290 290 291 292 293 294 295 295 292 292 291 291 292 292 289 289 291 291 291 290 288 289 288 287 287 288 287 286 285 282 279 278 278 276 276 276 276 276 275 274 273 275
288 286 285 284 290 289 291 293 294 293 292 292 290 290 291 292 289 288 289 288 289 286 285 285 285 286 286 286 284 282 281 280 279 277 277 277 276 276 276 276 276 285 284 284

GFSCGP_sfc_thetae_051.txt.gz
Theta_e
302 296 291 295 295 293 292 290 289 292 295 292 292 291 293 296 296 296 297 298 299 301 303 305 307 307 308 308 307 308 310 323 338 336 335 334 332 332 333 334 333 331 330 330
297 292 297 299 296 293 292 290 289 292 293 292 289 289 293 296 295 296 296 297 298 299 300 301 302 303 304 306 307 307 307 311 324 336 336 336 335 334 335 334 333 332 328 328
289 295 301 298 296 293 292 289 288 289 290 289 287 288 289 292 293 293 293 294 295 296 295 297 298 299 301 302 304 305 307 308 313 329 336 334 333 331 333 332 331 331 330 327
292 299 298 297 295 296 290 295 291 288 287 283 287 282 287 288 289 290 292 293 293 294 295 297 300 301 300 302 302 302 304 306 309 318 331 332 328 327 330 332 332 331 331 326
290 296 294 293 294 297 291 292 289 287 284 284 283 282 285 287 287 288 291 293 295 295 296 299 301 303 304 305 305 304 302 302 306 309 322 331 329 330 332 332 331 331 329 328
291 297 296 294 294 295 292 287 285 284 283 279 281 281 282 284 287 289 291 293 294 296 298 300 301 302 304 305 305 305 305 305 304 305 309 325 329 329 328 327 328 329 327 326
289 290 293 295 289 292 290 287 280 276 276 278 281 280 283 287 289 290 292 293 294 296 298 300 301 302 304 304 304 305 305 305 306 307 306 307 319 328 327 327 326 327 321 321
283 282 290 293 290 287 286 287 280 274 274 276 281 278 283 288 289 291 293 293 294 295 297 299 301 302 303 303 303 304 305 305 305 305 307 307 307 311 322 326 326 326 325 323
281 282 291 291 292 291 286 282 285 277 276 275 278 281 284 288 289 291 291 293 295 296 298 300 301 302 303 303 304 304 304 304 304 305 307 308 308 308 309 315 322 324 324 322
285 280 289 290 293 291 288 287 280 277 273 273 276 277 279 284 287 290 291 292 294 296 301 302 302 302 303 303 303 303 302 302 304 307 307 308 308 309 309 311 314 318 319 317
288 285 286 290 286 284 285 283 281 281 278 274 273 277 284 285 288 289 291 293 294 299 301 301 301 302 302 301 300 300 300 301 302 303 305 305 305 307 308 309 311 312 310 310
288 285 283 284 287 289 287 284 282 276 275 276 276 278 288 288 290 290 291 294 297 302 301 300 300 300 300 298 297 296 297 298 299 301 302 303 305 305 306 305 305 305 305 306
288 281 277 281 285 287 285 284 283 281 279 275 274 278 288 288 289 291 292 294 300 300 298 296 295 294 297 295 295 296 296 296 297 298 300 301 302 303 303 303 303 303 302 302
291 282 280 276 279 282 280 283 283 281 276 276 277 280 285 288 289 292 293 296 299 297 293 292 291 292 295 293 293 294 294 294 294 295 295 297 298 298 298 298 298 298 298 296
288 279 280 282 284 282 283 283 282 278 280 277 280 280 286 288 290 293 296 298 296 293 291 290 290 292 292 291 291 290 291 292 293 292 292 292 293 293 294 292 292 292 292 291
287 281 280 278 283 283 282 284 284 283 283 283 283 284 292 293 293 296 298 295 292 290 289 289 288 289 289 289 289 289 290 291 292 291 291 291 291 291 291 291 291 291 291 292
287 281 278 274 281 282 279 282 283 283 284 286 282 287 291 291 293 295 295 292 289 288 288 287 287 287 288 288 289 290 291 292 291 291 291 291 290 289 290 290 290 290 290 292
284 282 281 276 279 272 283 289 287 286 286 287 288 289 291 291 293 294 292 288 287 288 288 287 287 287 288 289 291 291 292 291 291 290 290 291 290 289 289 289 288 289 289 289
290 285 280 278 276 278 284 287 286 285 289 290 289 290 292 295 295 293 291 289 288 287 288 289 289 289 289 290 290 290 291 290 290 289 289 290 289 288 288 286 286 286 287 286
291 288 281 280 277 274 283 291 293 293 287 294 291 293 293 294 289 293 291 290 288 289 290 290 290 290 290 290 291 290 289 289 289 289 290 290 290 289 288 287 286 285 286 285
286 286 280 281 279 279 286 291 296 286 288 294 294 294 292 291 293 293 291 290 289 289 290 290 290 289 289 290 290 288 288 288 289 290 289 289 288 287 287 286 286 285 284 283
284 283 283 283 280 275 289 294 291 294 295 295 294 293 292 293 292 292 292 290 290 288 290 290 289 289 290 290 288 287 286 289 289 289 287 288 288 288 286 285 284 283 281 279
283 283 282 283 282 288 291 292 295 295 294 294 293 293 292 292 292 292 292 290 290 290 290 290 289 289 289 289 289 287 287 288 287 286 286 285 284 282 281 280 279 278 278 278
288 291 288 287 288 289 293 295 296 294 293 294 294 293 292 292 292 291 292 291 290 290 289 290 289 288 287 288 288 288 288 286 284 281 280 279 279 278 279 279 279 278 278 277
289 291 290 290 290 291 292 294 294 294 294 293 292 292 293 292 291 290 292 291 291 290 289 290 289 288 287 288 287 287 285 283 280 280 279 279 278 278 278 278 277 277 277 278
288 287 285 285 289 290 291 292 292 290 291 291 290 290 292 292 291 289 291 292 291 289 288 287 288 289 288 288 285 284 283 281 280 279 278 279 279 279 280 280 280 285 285 284

GFSCGP_sfc_thetae_054.txt.gz
Theta_e
303 296 295 298 298 296 295 293 292 295 297 297 297 297 300 303 303 303 304 305 307 308 310 310 311 311 312 314 315 316 317 320 327 336 337 337 335 336 336 338 342 340 338 337
296 293 299 301 300 297 295 292 292 295 296 296 295 295 299 301 302 301 301 303 304 304 305 305 306 306 307 309 312 314 315 317 319 327 335 339 338 338 339 338 337 337 338 337
292 296 301 299 297 294 294 292 293 292 294 294 293 293 294 295 297 298 298 299 300 301 303 307 308 308 308 308 309 310 311 314 315 318 325 334 337 340 337 336 335 335 336 338
291 299 298 297 295 296 291 297 295 293 292 289 292 287 291 293 295 297 299 300 302 304 306 307 308 309 310 311 313 311 310 310 312 314 317 325 329 330 332 333 336 336 335 333
290 293 296 295 296 299 294 297 293 292 291 290 289 288 289 292 292 295 299 301 303 305 307 308 309 310 312 313 313 313 312 311 310 311 313 317 326 329 330 332 333 335 335 333
293 299 296 293 295 298 295 293 291 291 290 285 287 286 287 290 292 295 299 301 302 305 308 309 311 311 312 313 313 314 313 313 313 312 311 313 317 325 328 330 331 334 335 331
290 290 295 296 289 293 294 292 284 283 283 284 285 284 289 292 295 296 297 300 302 305 307 308 308 309 310 311 312 312 312 312 313 312 312 312 312 317 325 327 329 330 330 329
286 283 290 294 293 291 292 291 287 279 279 282 284 282 288 294 295 296 297 299 300 303 307 308 308 308 309 309 310 310 310 310 311 312 312 313 314 314 314 319 324 326 328 330
286 284 293 294 294 296 289 288 289 283 281 282 284 287 290 292 293 295 297 300 301 303 307 307 307 307 308 308 308 308 308 309 310 311 313 314 315 315 315 316 316 319 323 325
290 284 291 291 294 294 292 292 285 286 279 278 281 282 286 289 292 294 297 300 301 304 307 306 306 306 307 308 307 307 308 308 309 310 312 312 314 314 315 316 317 317 318 321
293 290 287 292 290 289 289 288 287 287 284 280 279 282 290 292 294 294 297 299 301 305 305 304 305 304 307 307 305 305 305 305 306 307 309 311 312 312 312 311 312 313 316 317
292 291 285 287 290 292 291 289 288 285 281 283 282 284 293 294 295 295 298 300 302 305 304 302 302 302 305 303 303 303 303 303 303 304 306 308 309 310 311 311 311 310 311 312
293 288 282 283 287 290 288 288 288 286 286 282 282 285 293 294 295 297 298 300 303 303 301 300 300 300 302 300 300 300 301 301 301 301 303 304 304 305 304 303 305 306 305 305
295 287 285 283 284 288 285 287 288 288 284 283 284 286 291 293 294 298 299 302 303 300 297 297 298 299 299 298 298 297 298 299 299 299 299 299 299 299 298 296 296 295 296 296
293 286 286 286 287 286 286 287 286 284 287 286 286 286 290 294 296 297 299 302 300 296 295 295 295 296 297 296 296 297 297 298 298 297 296 295 295 294 294 293 293 293 293 293
291 285 286 284 286 286 284 287 288 287 288 287 288 288 296 298 298 298 300 300 297 295 294 293 292 293 294 295 295 296 296 296 296 296 294 294 293 292 292 292 292 293 293 293
290 287 285 282 284 285 283 286 287 288 289 289 286 291 296 296 296 298 300 298 295 293 292 291 291 292 293 294 295 295 295 294 295 294 294 294 293 290 290 291 291 291 292 293
289 288 287 284 284 278 287 291 291 289 290 291 292 294 296 296 299 300 299 297 294 292 292 292 292 292 293 294 295 295 293 294 294 292 292 292 290 289 289 288 288 288 289 289
293 290 285 283 282 285 288 289 289 288 289 293 292 295 297 299 299 300 298 294 293 293 293 293 292 291 292 293 293 293 292 292 292 291 290 290 290 289 289 287 287 286 286 286
291 292 288 284 279 278 289 294 297 294 289 297 296 297 297 297 294 300 297 294 292 293 293 293 293 291 292 292 294 292 290 290 289 290 290 290 290 289 288 288 287 286 287 285
287 287 284 284 281 285 291 293 298 287 289 298 298 299 297 296 299 299 296 293 292 294 293 293 293 292 291 293 293 290 290 289 290 290 290 289 289 288 288 287 287 287 286 286
286 285 284 285 281 279 293 296 291 295 299 299 298 298 297 298 298 297 296 293 291 292 292 293 292 291 291 292 291 288 288 290 290 289 289 289 289 289 289 287 285 285 285 284
285 289 288 288 287 293 295 295 298 298 297 298 298 298 297 296 297 297 296 293 292 292 293 293 292 290 290 290 291 288 289 289 289 288 287 286 286 286 286 285 284 284 284 283
292 295 290 290 294 294 296 299 299 298 298 299 298 298 297 296 297 297 297 295 292 291 292 293 292 291 290 291 290 290 289 288 288 288 286 285 284 284 284 284 284 284 284 283
293 293 292 292 296 297 296 297 296 297 297 297 297 297 296 296 297 297 297 296 293 292 291 293 293 292 290 290 290 289 287 289 287 285 284 284 284 283 283 283 283 282 282 282
294 293 291 290 296 297 297 298 296 295 295 295 294 295 296 297 297 297 297 297 294 291 291 291 293 293 292 292 291 290 288 287 285 283 283 283 284 284 285 285 285 286 285 284

GFSCGP_sfc_thetae_057.txt.gz
Theta_e
303 297 293 297 298 297 295 293 293 295 300 298 297 298 300 303 304 304 305 305 306 307 311 313 313 314 314 316 317 318 318 320 321 327 334 340 337 337 337 342 343 342 341 340
298 289 299 301 299 297 296 293 293 296 298 297 296 296 300 302 302 303 304 305 306 307 308 309 309 309 309 311 313 315 317 318 319 321 326 338 338 337 337 338 340 342 342 341
293 295 299 298 297 295 294 292 292 293 296 297 295 293 296 298 299 300 301 302 303 304 305 308 309 310 310 311 312 311 312 315 318 320 321 326 336 338 338 339 339 337 337 340
293 299 297 297 295 296 291 297 295 294 292 287 296 286 294 294 296 298 300 301 303 306 307 308 309 310 311 312 315 314 313 312 313 316 316 317 321 327 333 334 336 337 337 334
291 294 295 294 296 298 294 299 296 295 293 292 291 289 291 294 293 296 299 302 304 307 308 309 310 311 313 315 315 316 315 313 314 313 313 315 316 322 329 331 331 332 335 336
293 297 297 297 296 299 300 296 294 294 292 286 292 290 288 290 294 296 300 302 304 306 309 310 312 313 313 315 315 315 314 314 315 314 314 313 314 315 320 326 327 329 332 335
287 288 295 296 291 295 297 293 285 283 284 284 289 287 291 295 297 298 299 302 304 306 308 309 309 310 311 311 312 313 313 313 314 315 314 313 314 314 315 319 324 326 328 331
287 283 288 293 292 291 293 294 288 280 282 285 286 284 290 297 299 300 301 302 303 305 308 309 309 309 310 310 311 311 310 310 312 313 313 314 315 314 314 315 317 321 325 327
287 285 292 293 295 296 291 290 292 285 285 284 286 289 292 295 296 297 300 302 303 305 308 308 308 309 309 309 309 309 309 310 311 312 313 314 315 315 315 316 316 316 317 319
292 285 291 293 296 295 294 295 287 289 280 279 283 285 287 289 292 296 299 301 303 305 307 307 307 307 308 309 308 308 308 308 309 310 311 312 314 314 314 314 314 316 317 318
296 291 288 293 291 290 290 290 289 289 286 282 280 283 292 292 294 295 298 301 302 305 306 305 305 305 307 308 307 307 306 306 306 307 308 310 311 312 313 313 313 313 313 314
295 292 286 288 292 294 294 292 292 287 284 285 284 284 294 296 297 297 298 301 303 306 305 303 303 304 305 304 305 304 304 304 304 304 305 306 307 308 307 306 308 310 310 311
295 290 283 284 289 292 289 292 291 289 289 284 283 285 296 296 296 298 299 301 304 304 302 301 302 302 303 302 302 302 302 302 302 302 302 302 302 302 301 301 301 301 301 303
298 290 287 284 286 290 286 289 290 289 285 285 286 288 291 294 295 299 300 302 304 302 299 299 301 302 301 300 300 300 301 301 301 301 300 299 298 298 297 297 296 296 295 294
295 287 287 288 289 288 288 288 288 285 288 287 288 288 292 294 297 298 300 303 302 300 298 297 298 299 300 299 299 300 300 300 300 299 298 296 296 296 295 294 294 294 294 294
294 287 288 285 288 288 286 289 289 289 289 289 290 289 296 298 299 299 300 302 301 299 297 296 296 296 297 298 298 299 298 298 298 297 296 296 295 294 293 293 294 294 294 294
292 289 287 284 286 286 283 287 289 290 291 291 286 292 297 297 298 299 301 302 299 298 296 295 295 295 296 296 297 297 297 297 297 296 295 294 293 292 291 291 291 291 290 290
291 290 289 285 285 279 289 293 293 291 292 293 293 294 296 298 300 302 303 302 299 297 296 295 295 295 295 296 296 296 296 295 294 293 293 293 291 290 290 289 289 289 288 288
295 291 286 283 283 287 289 290 290 289 290 294 293 296 298 300 301 301 303 299 298 297 296 296 295 294 294 295 295 295 293 293 292 291 290 290 290 290 289 288 287 286 287 286
293 294 288 285 281 280 290 295 297 296 289 297 296 297 299 299 295 301 301 298 296 296 296 295 295 294 294 294 295 293 292 291 290 290 290 291 290 289 288 288 288 287 287 286
287 288 285 284 282 286 293 297 300 288 289 299 300 300 299 297 299 301 300 297 296 296 295 296 295 294 293 294 294 291 290 288 290 290 290 290 290 289 289 288 288 287 286 287
287 285 284 285 282 280 295 295 291 295 300 300 300 300 299 299 300 299 298 296 295 295 294 295 294 293 294 293 291 289 289 290 290 290 290 290 290 290 290 289 288 288 286 285
286 290 288 289 288 296 299 298 300 300 299 299 299 300 299 298 298 300 298 297 295 294 294 295 294 292 292 291 292 289 289 290 290 290 289 289 289 288 287 286 286 285 285 284
293 296 290 291 295 295 298 300 301 301 299 299 300 299 299 298 299 299 299 297 295 294 294 294 293 291 290 292 292 291 290 291 290 290 289 287 285 285 285 285 286 285 284 283
294 295 293 292 296 298 299 300 300 299 299 298 298 298 298 298 298 299 299 299 297 295 294 294 294 293 292 292 292 291 290 291 290 287 285 285 285 284 283 284 284 282 282 283
295 293 291 290 297 297 298 300 299 297 297 297 296 296 298 297 298 300 299 300 298 295 293 292 294 294 293 292 292 291 291 292 287 285 284 284 284 285 285 285 284 286 285 285

GFSCGP_sfc_thetae_060.txt.gz
Theta_e
301 295 291 294 296 296 294 292 291 294 299 297 296 296 298 300 300 299 300 300 301 302 305 306 307 307 307 307 308 310 311 313 314 315 322 335 334 333 335 338 338 339 336 333
295 290 297 299 298 296 293 291 290 294 298 296 294 294 297 299 300 301 300 299 300 301 301 304 305 304 304 304 306 307 309 311 313 314 315 325 334 335 335 334 337 337 335 335
291 294 300 298 296 294 292 290 290 291 294 295 293 290 294 298 297 298 297 297 299 298 300 303 304 305 306 307 308 308 308 307 308 311 313 313 324 331 330 330 332 334 336 334
295 299 297 296 294 295 289 295 294 293 290 284 293 279 290 293 293 295 295 294 296 299 303 305 305 306 307 309 311 311 310 308 308 308 308 308 308 313 326 330 333 335 334 331
290 294 294 291 295 297 292 296 294 293 290 288 288 282 287 291 290 293 295 297 299 301 303 305 306 308 309 310 309 310 311 310 309 309 307 306 307 309 312 319 324 326 327 331
292 297 297 294 298 298 299 294 293 292 289 282 288 286 283 287 291 293 296 298 301 302 304 305 307 308 308 309 309 309 309 309 310 309 308 307 306 306 306 309 316 321 323 325
290 289 294 296 293 298 295 289 281 281 280 280 288 285 285 291 293 295 296 298 300 302 303 304 304 305 306 306 306 307 307 307 308 308 308 308 307 307 306 307 310 314 318 321
285 282 288 293 293 290 292 290 281 276 277 279 285 280 285 293 296 297 299 300 300 301 303 303 303 304 304 305 305 305 305 305 307 307 307 308 308 308 308 308 308 309 310 312
286 284 291 293 296 295 291 287 289 282 281 278 281 285 289 293 293 294 297 299 299 301 303 302 302 303 303 304 303 303 303 304 305 305 306 307 308 308 308 309 309 310 311 314
291 283 289 293 295 294 293 295 283 281 273 275 279 281 283 287 289 293 295 297 299 301 303 302 302 302 303 303 303 303 302 302 302 303 303 305 306 307 307 308 307 308 308 309
294 290 287 292 289 288 289 288 287 285 282 276 274 278 286 289 291 291 295 298 298 301 302 300 300 301 303 302 301 301 300 300 300 300 301 302 302 303 302 301 302 303 305 307
293 290 284 287 292 294 293 291 290 284 281 279 278 279 290 291 292 295 296 299 300 303 301 299 299 299 300 300 299 298 298 298 298 299 299 298 299 299 297 296 296 297 297 300
293 286 279 281 287 290 288 291 291 287 286 281 277 278 292 292 293 295 296 298 301 302 298 298 298 298 298 298 297 297 297 296 297 297 296 296 295 294 293 293 294 294 294 294
296 288 284 278 284 288 283 287 289 285 277 280 280 283 287 290 292 295 297 298 300 299 298 296 297 298 297 296 296 296 296 296 296 296 294 293 293 293 292 292 293 294 294 294
293 282 282 286 289 286 286 287 287 279 284 278 284 285 288 290 292 295 296 301 300 298 296 295 294 294 295 295 295 295 295 295 295 294 293 292 292 293 294 294 293 294 294 294
292 282 283 281 287 287 283 287 288 287 287 286 287 286 291 294 296 296 297 300 299 297 296 295 294 293 294 293 294 295 294 294 295 293 292 292 292 292 292 293 292 291 291 290
289 284 281 277 284 284 279 285 287 287 288 288 283 288 294 294 297 297 299 301 298 296 295 294 292 292 292 292 294 292 293 294 293 294 293 291 291 290 290 291 290 289 289 289
288 287 285 279 280 272 287 291 291 289 290 291 292 293 294 294 297 298 300 299 296 295 294 294 292 292 292 292 292 292 292 294 293 292 291 290 290 289 289 289 288 288 288 287
292 288 283 278 278 284 287 289 288 287 288 292 290 293 294 298 296 296 300 296 294 293 293 292 291 290 291 291 292 291 290 291 291 290 289 289 290 289 289 287 287 286 286 286
291 292 284 282 277 277 288 292 294 293 286 293 293 293 296 296 292 294 296 295 294 294 293 292 291 291 290 290 291 290 291 290 290 290 289 290 290 289 288 288 286 286 286 285
284 285 283 283 281 283 294 295 296 285 287 296 296 296 296 294 295 297 296 294 294 294 293 293 292 290 290 291 291 289 289 288 290 290 290 290 289 289 289 287 287 286 281 278
286 284 284 285 281 275 294 292 289 293 297 298 297 297 297 296 297 297 296 293 293 292 292 293 290 290 290 290 291 289 288 290 291 290 290 289 289 289 288 285 284 283 282 280
282 286 285 285 284 292 294 295 297 297 296 296 297 296 296 295 296 297 296 294 292 292 292 293 291 290 291 291 291 289 289 290 290 289 289 287 287 286 285 281 280 279 279 278
288 292 287 288 290 291 295 296 298 297 295 296 297 297 296 296 296 295 297 295 292 292 291 292 291 290 289 290 291 290 290 291 290 288 286 283 281 281 280 281 280 279 278 277
291 291 289 289 291 293 294 296 297 297 296 296 296 295 295 295 296 297 297 296 294 292 292 293 292 290 290 291 291 291 291 290 287 284 281 281 281 280 279 280 281 277 279 280
291 290 287 286 294 294 295 295 296 295 294 294 293 292 294 295 295 296 296 297 295 292 291 292 293 292 291 291 291 291 290 288 284 281 280 280 280 280 280 280 280 286 285 285

GFSCGP_sfc_thetae_063.txt.gz
Theta_e
301 294 289 293 296 294 293 291 289 293 297 296 295 295 298 299 296 297 298 299 299 300 303 303 303 302 303 303 303 304 307 308 311 318 331 330 332 330 330 335 337 335 335 332
295 290 295 297 297 295 292 290 290 292 297 296 295 294 298 298 297 298 298 298 299 299 300 302 303 302 304 305 306 306 305 305 307 310 311 326 332 333 335 335 334 334 334 332
291 293 298 297 294 293 291 287 287 289 292 292 291 289 291 296 297 299 297 296 296 296 300 301 304 305 306 307 307 308 307 306 306 306 308 310 316 328 328 328 329 332 333 332
293 297 296 294 293 293 288 293 292 291 288 283 291 280 286 292 293 295 294 293 293 299 301 304 305 306 307 307 308 309 310 308 308 306 305 304 305 306 316 326 329 330 330 330
291 292 293 293 294 296 290 295 293 291 287 286 287 281 285 290 289 291 293 293 294 298 301 303 305 307 308 308 308 308 309 309 308 307 306 303 303 304 307 308 312 321 328 330
293 298 297 294 297 298 298 293 290 289 287 279 286 283 282 285 291 290 292 296 299 301 302 304 305 306 306 306 306 306 306 307 308 307 306 305 303 303 304 304 305 308 316 321
290 290 294 298 293 296 296 286 277 277 275 277 285 284 286 289 290 292 294 296 299 301 301 302 303 303 304 304 304 306 305 305 306 306 306 306 305 304 304 304 305 306 309 313
282 283 290 294 291 292 293 287 278 273 274 277 284 282 286 290 293 296 297 298 299 300 301 302 303 302 302 302 302 302 302 303 304 305 305 306 307 307 307 307 307 307 307 309
283 282 292 293 296 295 291 284 289 280 278 274 279 283 289 292 293 295 296 297 297 300 301 301 301 301 302 301 301 301 301 301 301 302 302 304 304 305 305 305 306 306 306 310
288 282 290 293 296 296 292 294 283 278 273 273 276 278 282 287 289 293 294 294 297 300 301 300 300 300 301 301 300 300 300 299 299 299 301 301 301 300 300 299 298 300 302 305
294 287 287 292 289 289 289 287 286 285 280 275 273 277 286 290 292 291 294 296 297 299 299 298 298 299 301 300 299 298 298 297 297 298 298 297 297 297 296 295 294 294 296 298
293 289 283 287 293 295 293 290 288 279 278 277 275 278 288 290 292 293 295 298 299 300 298 297 297 298 298 297 296 296 296 296 296 296 295 295 294 294 293 292 293 293 292 293
292 285 278 280 286 289 288 290 292 287 283 276 273 278 288 290 292 294 295 297 300 298 297 296 296 296 296 294 295 295 295 295 295 295 293 293 292 292 291 291 292 292 292 292
296 287 283 277 281 285 282 288 288 285 280 281 279 281 285 288 291 292 295 297 299 297 297 295 296 295 294 294 295 294 294 294 294 293 292 291 291 291 291 291 292 292 293 293
291 280 281 285 288 284 285 286 286 280 284 278 282 284 288 289 291 293 296 299 298 296 295 294 294 293 293 293 293 293 293 294 293 292 291 290 291 293 294 294 292 292 292 294
290 279 281 280 287 286 282 286 287 286 286 285 285 285 290 291 295 295 296 299 298 296 295 294 294 293 292 291 292 293 293 293 293 291 290 290 291 292 292 291 291 291 290 290
287 282 279 276 283 283 279 284 285 286 287 287 282 287 291 292 295 295 296 299 298 295 294 293 292 291 291 292 292 291 291 292 292 292 291 291 291 290 290 290 290 289 289 289
286 284 281 275 279 271 282 289 289 288 289 289 290 291 292 294 295 297 299 298 295 294 293 292 291 291 291 291 291 291 291 293 292 291 290 291 290 289 289 289 288 287 287 287
289 286 280 276 273 279 285 287 287 286 286 290 289 291 293 297 296 295 297 296 294 293 292 291 290 290 290 290 290 290 289 291 290 289 289 290 290 289 289 287 286 286 286 285
289 288 281 278 275 276 287 290 292 292 283 291 291 291 292 295 289 293 293 293 292 293 292 290 290 290 289 289 290 288 290 290 289 289 289 290 290 289 288 287 286 287 286 284
283 284 280 282 277 282 292 293 294 284 285 293 293 294 295 293 294 297 295 293 293 292 292 291 290 289 288 289 289 289 289 289 290 290 290 290 290 289 288 287 287 280 275 275
284 283 283 284 281 276 294 291 290 292 295 296 295 295 295 295 297 296 295 292 292 291 292 291 289 288 288 289 289 289 288 290 291 290 289 288 289 289 288 285 282 281 280 278
282 285 284 284 283 290 292 293 295 296 296 297 296 297 296 295 296 297 295 292 291 291 291 292 289 288 288 289 291 289 289 290 290 289 289 288 287 286 286 282 281 279 278 277
286 290 286 286 289 290 294 295 296 296 294 295 296 297 297 296 296 295 296 293 292 291 291 291 290 290 288 290 291 290 290 291 290 289 286 285 282 280 280 280 280 278 277 275
287 289 287 286 290 291 292 295 296 295 295 294 294 294 295 295 295 295 295 295 293 292 291 291 290 290 289 290 291 291 291 291 289 286 282 279 279 279 279 281 279 278 279 279
289 288 286 285 291 291 292 294 295 294 293 293 292 292 292 293 293 294 295 297 294 291 291 290 292 290 290 290 291 291 291 291 286 281 279 278 278 277 278 279 280 285 285 285

GFSCGP_sfc_thetae_066.txt.gz
Theta_e
301 294 289 292 295 294 294 290 291 292 297 295 295 294 298 299 294 296 297 298 299 299 300 301 300 300 301 303 303 303 305 306 318 328 329 328 329 330 329 331 334 334 334 332
296 289 294 296 297 295 294 290 289 292 297 295 294 294 297 299 296 296 297 297 299 297 298 300 300 303 304 304 304 304 304 304 305 308 310 326 329 329 331 331 332 332 331 332
291 292 297 295 294 293 290 290 288 288 292 292 291 289 292 296 295 297 297 297 297 297 299 300 302 304 305 305 306 307 307 305 304 305 306 308 311 325 326 326 327 330 331 330
294 296 295 293 292 292 287 292 291 291 288 283 290 280 286 292 293 294 295 294 295 297 299 302 304 305 306 306 307 308 308 307 307 305 304 303 304 305 314 317 323 326 328 328
290 293 293 291 293 293 290 293 291 290 287 284 284 281 284 288 289 291 292 292 292 298 300 302 304 306 307 307 305 305 306 307 306 306 305 303 302 303 304 305 306 308 314 323
293 297 295 293 296 296 297 291 289 289 286 278 284 282 281 285 289 292 291 291 294 297 300 302 304 305 304 304 304 304 305 305 305 305 305 304 303 302 302 303 303 305 309 314
290 291 295 296 291 294 293 286 279 280 280 276 284 282 285 288 290 292 292 295 297 299 300 301 302 302 302 302 302 304 304 303 304 305 305 305 305 304 305 304 305 305 306 307
284 284 291 294 291 292 290 285 277 274 275 277 283 280 286 290 291 294 297 298 299 299 300 301 301 301 301 301 301 301 301 301 301 302 303 304 304 305 305 304 305 304 305 306
281 283 292 294 296 294 290 283 287 278 276 273 279 283 288 291 290 293 294 296 297 299 300 300 301 301 301 300 300 299 299 298 299 300 301 300 299 299 299 299 300 301 302 306
286 281 290 293 296 295 293 293 281 277 272 272 276 277 281 286 290 293 294 295 297 300 300 299 299 300 300 300 298 298 298 297 297 298 298 297 296 296 295 295 294 294 296 298
289 284 286 292 289 289 290 288 285 284 279 275 273 277 283 289 293 294 295 296 296 299 299 298 298 299 299 298 297 296 296 296 296 296 295 294 294 293 293 292 292 292 293 293
292 287 283 286 293 295 293 289 288 279 276 275 274 277 287 290 292 295 294 296 298 299 298 297 297 298 297 295 295 295 295 295 295 294 293 293 292 292 291 291 291 292 291 292
292 283 276 281 286 291 289 289 289 285 280 273 273 277 289 289 291 294 295 297 299 298 296 295 295 295 295 294 294 294 294 294 293 293 292 291 291 290 290 290 291 292 291 291
295 286 280 276 280 284 284 287 288 285 277 279 278 281 286 289 292 293 295 297 299 297 296 295 294 293 293 293 293 293 292 293 292 292 290 289 289 293 293 291 291 291 292 292
289 278 280 285 287 283 284 286 286 282 287 281 285 283 287 289 291 293 295 296 297 296 295 295 294 293 292 292 292 292 292 292 291 290 289 289 292 293 293 292 291 292 292 293
288 279 279 279 286 284 282 285 287 285 285 285 284 285 291 291 290 292 294 297 297 296 295 294 294 293 292 291 292 292 291 291 291 289 289 289 292 292 291 291 291 291 290 290
285 281 278 274 282 281 278 283 285 286 286 287 282 287 289 290 293 294 294 298 298 296 294 293 293 292 291 291 292 291 291 291 290 290 291 291 291 290 290 290 289 289 288 289
284 282 280 275 278 270 282 288 288 287 287 288 288 289 291 292 294 295 297 298 297 295 294 293 291 291 291 291 291 291 291 291 292 291 291 291 290 290 290 289 288 287 287 287
288 284 279 276 273 279 283 287 286 284 284 289 289 290 291 294 294 292 297 297 295 294 293 292 290 290 290 290 290 290 289 290 290 289 290 290 290 289 288 287 286 286 286 284
288 286 281 276 274 275 284 288 291 290 281 290 291 290 291 294 288 291 292 293 292 292 291 290 290 290 289 289 289 288 288 290 289 289 289 290 290 289 287 287 287 286 282 278
284 285 280 278 274 280 287 291 292 280 283 291 291 291 292 291 293 295 293 292 292 292 291 290 290 289 289 289 289 287 289 289 290 290 290 290 290 289 287 287 284 277 274 274
281 282 282 282 279 275 291 291 287 291 294 293 293 294 294 295 296 294 294 292 292 291 291 291 289 288 289 289 288 287 288 290 290 290 290 289 289 289 288 284 281 280 279 279
281 284 282 283 282 289 291 291 294 295 296 296 295 295 295 296 296 296 294 292 292 291 291 291 289 288 288 288 288 287 289 290 290 289 288 288 289 285 284 282 281 280 279 278
285 288 285 286 287 289 293 294 295 295 294 295 297 297 297 296 297 297 297 294 292 291 290 290 289 288 286 288 289 290 291 291 290 288 288 288 285 283 282 280 279 277 276 276
286 287 286 286 289 290 292 294 295 295 295 294 294 294 295 296 296 296 295 296 293 291 291 290 289 289 288 289 290 290 291 291 289 289 284 283 281 281 277 278 276 277 277 277
287 287 284 284 290 290 291 293 295 293 293 293 292 291 292 292 292 292 293 294 294 292 291 290 290 290 289 290 290 291 291 290 289 286 281 279 277 277 277 279 278 285 285 286

GFSCGP_sfc_thetae_069.txt.gz
Theta_e
300 292 287 291 293 291 291 290 290 292 297 296 295 294 298 298 296 295 296 297 299 299 298 299 298 299 302 302 302 302 306 305 324 328 328 327 328 329 328 331 333 333 333 330
296 286 292 295 296 293 292 289 289 293 296 296 294 294 297 299 297 297 296 296 297 298 298 298 301 301 303 302 303 303 303 303 304 309 316 326 327 328 329 329 330 331 331 331
289 293 296 295 293 291 289 288 288 290 292 292 292 290 293 296 294 297 297 296 296 297 298 299 301 302 304 304 305 306 306 304 303 303 304 306 309 323 324 325 326 328 329 330
293 296 294 293 292 291 286 292 292 290 288 284 291 281 287 291 293 294 296 295 295 295 297 300 302 303 304 305 306 306 306 306 306 305 303 302 302 304 309 310 314 310 317 323
289 292 291 291 292 293 289 293 291 290 287 285 285 282 285 286 288 294 295 293 293 295 298 300 303 305 306 305 304 303 304 305 304 304 303 302 302 302 304 304 305 306 308 315
293 296 294 292 295 294 295 290 289 288 286 278 284 283 282 284 286 289 293 292 292 296 299 301 303 304 303 302 303 303 304 304 305 304 304 303 302 301 302 303 304 305 307 309
291 291 295 295 291 293 291 285 278 278 279 277 283 282 287 288 289 290 291 290 291 296 298 300 301 301 301 300 301 302 302 301 302 304 304 304 304 303 303 303 303 304 305 305
284 283 291 293 290 288 287 285 277 274 275 277 282 279 285 290 291 291 293 293 295 297 299 300 300 300 300 300 299 300 299 299 301 302 301 301 302 303 302 301 302 302 302 304
282 283 293 295 295 292 288 286 285 277 275 273 279 282 287 289 289 288 292 295 296 298 298 299 300 300 299 299 298 298 297 297 299 299 298 297 296 296 296 295 296 298 298 302
286 282 290 293 296 294 290 291 281 275 270 272 276 277 281 285 287 290 292 294 297 299 299 299 299 299 299 298 297 297 296 296 296 296 296 294 294 293 293 293 292 292 293 294
287 284 286 292 289 289 290 288 284 283 278 275 273 277 284 285 289 290 294 296 297 298 298 298 297 298 298 297 296 295 295 295 295 294 294 292 292 292 292 291 291 291 292 292
289 285 282 286 292 296 294 290 285 277 276 274 274 277 286 285 290 293 294 296 297 300 298 297 296 297 296 294 294 294 294 294 294 293 292 291 291 291 290 290 291 291 291 292
290 284 280 282 287 291 290 291 288 283 278 272 273 278 287 286 289 293 294 295 297 299 297 295 294 295 294 293 293 293 293 292 292 292 291 290 290 290 289 290 291 291 291 291
295 284 280 276 279 284 286 289 288 283 276 277 277 280 284 286 289 292 294 296 298 298 296 294 294 295 294 293 293 292 292 292 291 291 290 289 290 294 293 289 290 291 291 291
289 282 281 284 286 283 283 286 288 280 287 281 286 283 288 289 290 292 295 295 297 296 295 294 294 294 293 292 292 292 292 291 291 290 289 289 292 293 293 292 292 292 292 292
287 278 280 279 285 283 282 285 287 287 286 286 286 284 291 291 292 293 295 296 297 296 295 294 295 294 292 291 291 292 291 290 290 289 288 290 292 292 291 291 291 290 290 291
284 281 277 274 281 281 278 282 284 286 286 287 283 290 289 288 291 292 291 295 297 296 296 294 294 293 292 291 292 291 290 290 289 289 289 291 291 291 290 290 289 289 288 289
283 280 279 273 277 269 281 287 287 286 287 288 288 289 290 291 292 293 294 295 297 297 295 294 293 292 292 292 291 291 291 290 290 290 291 291 291 290 289 289 288 287 287 287
287 283 279 275 272 278 282 285 285 284 284 289 289 290 290 292 293 291 296 297 297 296 294 293 291 291 290 290 290 290 289 290 289 290 290 290 290 289 288 287 286 286 286 283
287 285 280 276 274 274 281 288 289 288 280 290 289 289 290 292 287 290 294 294 293 293 292 291 290 290 289 289 290 288 288 288 288 290 290 290 290 289 288 287 286 282 281 277
283 285 278 278 274 279 286 290 290 279 281 291 289 289 291 290 291 294 292 291 292 291 291 290 290 289 289 289 289 288 288 287 290 290 290 290 290 289 288 287 286 275 279 274
281 281 280 278 276 273 289 290 285 288 292 292 289 291 293 293 294 292 292 291 291 291 291 290 289 289 289 289 288 287 287 290 291 290 290 289 289 289 288 285 280 279 278 278
280 283 281 282 281 287 289 291 292 294 294 295 293 293 295 295 294 294 293 291 291 291 291 291 289 288 288 288 288 287 287 290 290 289 289 288 289 288 287 281 280 279 278 276
284 286 284 284 286 287 290 292 293 293 293 294 297 295 294 295 296 296 295 294 292 292 291 291 289 288 288 288 288 288 290 291 290 289 288 288 287 285 282 282 281 280 277 276
286 286 285 284 287 288 291 293 293 294 294 294 294 295 296 296 296 297 297 298 296 293 291 290 289 288 288 288 288 289 291 291 289 288 288 287 286 285 280 279 277 277 276 277
287 287 284 283 288 289 290 292 295 293 293 293 293 292 292 293 293 293 293 295 295 293 291 290 290 289 289 289 289 290 291 291 289 287 286 285 282 279 277 277 278 284 284 287

GFSCGP_sfc_thetae_072.txt.gz
Theta_e
297 290 287 291 290 289 290 288 288 291 298 296 295 295 296 303 303 302 303 297 299 299 298 298 298 299 301 301 302 303 314 307 326 327 326 326 327 327 328 330 332 331 330 328
293 286 291 295 295 291 291 287 286 292 297 296 295 294 298 300 298 299 300 299 298 297 295 296 298 299 302 301 301 302 302 302 304 314 321 325 325 326 327 327 328 330 331 331
289 291 296 294 292 290 287 286 286 288 292 293 293 291 295 299 302 299 298 296 296 297 297 296 299 300 302 303 304 305 304 303 303 303 303 305 307 320 322 323 324 325 326 328
292 294 294 292 291 291 285 291 290 290 288 284 292 282 290 296 297 298 300 295 295 295 296 298 300 301 302 303 305 305 305 305 305 304 302 301 301 302 306 307 308 307 310 315
290 290 292 291 292 292 288 292 290 289 286 284 285 283 286 287 290 296 299 296 295 294 296 298 300 303 304 303 302 303 304 304 304 304 303 302 301 301 302 303 304 305 308 310
291 298 295 292 294 293 293 289 290 288 285 279 284 283 283 285 287 289 295 296 296 294 295 299 302 302 301 301 301 302 303 303 304 305 304 303 302 301 302 304 304 305 306 307
291 292 295 294 291 293 289 285 277 277 276 277 283 282 287 289 289 291 292 292 293 293 296 299 300 300 300 299 300 301 301 300 303 303 303 303 303 303 302 302 302 303 304 304
285 282 291 292 289 287 288 286 276 273 274 276 282 279 285 291 291 291 292 293 291 294 297 299 300 299 299 299 298 298 298 299 301 300 299 298 299 300 299 298 300 299 300 302
283 284 294 295 294 291 287 285 284 276 273 272 279 282 287 289 289 290 290 292 291 295 297 298 299 299 298 298 297 297 297 297 298 297 296 295 295 295 294 294 294 295 295 298
286 283 290 293 295 293 289 289 282 276 270 271 275 276 280 284 287 289 290 291 293 296 297 298 298 298 298 297 296 296 296 296 295 295 294 293 292 292 292 292 291 291 292 293
287 285 287 292 288 286 289 284 283 282 278 274 273 277 284 285 286 287 290 293 294 297 297 297 297 298 297 296 295 294 295 295 294 293 292 291 291 291 291 290 290 290 291 291
288 284 283 286 292 293 291 288 283 276 274 273 274 277 285 286 286 289 291 295 297 297 297 297 296 296 295 294 293 293 293 293 293 292 291 290 291 290 289 289 290 290 290 291
289 282 279 281 286 289 288 290 287 282 279 272 274 279 286 286 288 291 292 294 296 298 297 295 295 295 294 293 292 292 292 291 291 291 290 289 289 289 288 288 289 290 290 290
293 283 279 276 279 284 285 289 290 284 283 278 278 280 284 286 287 290 292 294 295 297 296 294 294 294 293 292 292 292 291 291 291 290 289 288 289 293 292 289 292 292 291 289
288 281 281 282 284 282 283 286 289 286 287 283 284 283 289 289 288 289 292 294 295 295 295 294 294 293 293 292 292 292 292 291 290 289 289 289 292 293 293 292 292 292 292 292
286 279 282 281 285 283 282 284 287 288 289 288 288 286 291 290 289 292 293 294 295 295 295 295 295 294 293 292 292 292 291 291 291 290 289 290 292 292 291 291 291 291 291 291
283 280 278 275 281 281 277 282 284 286 289 289 285 291 289 289 290 292 292 294 295 296 296 295 294 294 293 292 292 291 291 290 289 289 289 291 292 291 290 290 290 289 289 289
282 280 279 274 277 270 282 287 286 286 287 289 289 289 291 291 292 291 293 294 295 296 296 295 294 293 292 291 291 291 290 289 289 289 289 291 291 290 289 289 288 288 288 287
285 282 278 275 271 278 281 284 285 284 284 288 289 291 290 290 290 291 293 295 295 296 296 294 293 292 292 292 291 291 290 289 289 289 290 291 291 289 289 287 287 286 286 283
285 284 280 276 273 273 279 287 288 287 280 288 289 288 288 291 286 288 294 296 294 294 293 291 291 290 290 290 290 289 288 288 288 289 290 291 291 289 288 287 287 284 282 279
282 284 281 280 275 279 284 286 289 278 281 290 290 289 288 289 290 292 292 291 291 291 290 290 290 289 290 289 289 288 287 287 289 290 291 290 290 289 288 287 284 279 282 277
280 278 280 279 279 274 287 288 284 287 290 291 290 288 290 291 292 291 291 290 290 290 290 290 289 289 289 289 289 287 286 289 289 290 290 290 289 289 288 286 281 280 278 278
279 282 280 281 281 287 288 290 291 292 292 293 290 291 292 293 292 292 291 290 291 291 290 290 289 288 288 289 289 287 287 289 289 289 289 289 289 288 287 283 280 279 278 277
284 285 283 283 285 286 288 289 292 293 291 291 296 294 294 294 295 295 294 293 292 291 290 290 289 288 287 288 288 288 288 289 289 289 288 288 287 286 285 282 281 279 277 276
286 286 284 283 286 287 289 290 291 293 293 292 292 294 295 296 296 297 297 297 296 295 293 292 291 289 289 289 289 289 290 290 289 289 288 287 287 287 284 281 279 279 278 278
287 286 284 284 288 288 288 290 292 293 292 293 292 291 293 293 292 293 292 293 293 294 292 291 291 289 289 289 289 289 290 290 289 288 287 287 286 285 284 279 278 284 284 285

GFSCGP_sfc_thetae_075.txt.gz
Theta_e
296 289 288 292 293 292 291 290 290 294 299 297 296 296 299 303 304 305 306 305 305 304 305 304 304 304 306 307 311 318 330 329 335 334 334 334 333 335 335 336 336 335 334 333
291 287 292 295 295 292 292 288 289 293 298 297 295 295 299 302 302 305 305 304 303 302 302 303 303 305 306 306 306 307 311 311 321 331 333 334 334 335 336 336 336 336 337 336
289 291 295 295 293 291 289 288 288 289 294 295 294 292 295 299 301 303 304 305 304 301 302 301 303 304 306 306 308 308 307 307 308 308 311 312 315 325 329 330 331 322 324 329
292 295 292 292 292 291 287 292 291 290 290 285 294 284 292 296 298 301 303 304 304 300 299 301 302 304 305 307 309 308 308 308 308 308 307 307 308 309 311 312 311 311 315 316
289 291 290 290 292 294 290 293 291 290 287 288 287 286 289 294 294 297 301 303 304 301 300 300 303 305 306 307 307 307 308 308 308 308 308 307 306 306 307 308 309 310 313 313
291 298 296 294 295 294 293 291 290 288 288 283 286 287 286 287 293 297 300 302 304 301 299 300 304 305 304 305 305 307 307 307 308 309 308 308 307 306 307 309 309 310 311 310
291 292 296 296 292 294 291 287 281 280 280 279 284 283 288 292 292 293 295 297 300 299 298 300 303 303 303 303 304 304 305 305 306 306 307 307 307 307 307 307 307 307 308 307
284 282 292 294 292 289 289 286 279 275 276 279 283 280 287 293 294 294 294 296 296 295 298 301 304 303 302 302 303 303 303 303 303 303 302 302 303 303 302 302 303 302 303 304
285 284 294 295 295 292 289 283 286 278 277 277 281 284 288 290 291 292 293 293 294 294 298 301 302 302 302 301 302 302 302 302 301 301 300 299 299 299 298 297 298 298 298 299
288 284 291 293 295 294 290 290 282 279 274 274 277 279 282 287 289 290 290 293 294 296 299 301 301 301 301 301 300 300 301 300 299 299 298 297 296 296 296 296 295 295 296 296
289 287 287 292 288 288 288 285 284 284 280 277 275 280 286 287 288 288 289 292 295 297 299 300 300 301 300 299 299 298 299 298 297 297 296 295 294 294 294 294 294 294 295 295
289 287 284 287 292 293 291 287 285 279 277 275 277 280 288 288 288 289 291 295 297 299 299 299 300 299 298 298 297 297 297 297 296 295 295 294 294 293 293 293 293 294 294 294
289 282 280 282 287 289 288 290 286 283 280 275 278 281 287 288 291 294 294 296 298 299 298 298 298 298 298 297 296 296 296 296 295 294 294 293 293 293 292 292 293 293 293 293
292 284 280 276 279 284 284 287 287 285 281 279 280 282 288 288 289 292 295 296 297 299 298 298 297 297 297 296 296 295 295 295 294 293 293 293 294 294 293 293 293 293 293 293
288 279 279 283 284 284 285 286 287 284 286 283 284 284 289 291 291 292 293 295 295 297 297 297 296 297 296 295 295 294 294 293 293 292 292 292 294 294 294 293 293 293 293 293
286 279 281 279 285 284 283 284 286 288 288 287 288 287 294 293 291 292 292 294 295 296 298 297 296 296 296 295 295 294 293 293 293 292 291 292 293 293 293 292 292 292 292 292
284 281 279 276 282 281 278 283 284 286 288 289 285 290 293 292 293 294 294 294 295 297 298 297 297 297 296 295 295 294 293 292 292 291 291 292 293 292 292 291 291 290 290 290
282 280 280 275 279 272 283 287 286 285 287 290 290 292 291 293 295 294 294 294 295 297 298 298 297 296 296 295 294 294 293 292 291 291 291 292 292 291 290 290 289 289 289 288
285 282 279 275 273 278 282 285 284 284 285 288 290 292 293 291 292 292 294 294 296 298 298 298 297 295 294 294 293 293 291 291 290 290 291 292 292 290 289 288 288 287 287 285
285 284 280 277 274 273 279 287 288 288 281 289 289 290 289 290 286 291 294 295 297 297 296 295 293 293 293 293 293 292 290 290 290 290 291 292 292 290 289 288 287 286 285 283
281 283 280 281 279 279 284 286 289 279 282 290 291 290 289 288 291 292 294 293 293 292 292 291 292 292 292 292 292 291 290 290 291 291 292 291 291 290 289 288 286 284 283 281
280 278 278 280 279 275 287 288 285 287 290 292 292 290 289 291 293 292 291 291 291 291 291 291 290 290 290 291 291 290 289 291 291 291 291 290 290 290 289 287 283 283 282 282
279 282 280 281 281 287 288 290 291 292 293 294 293 293 292 293 293 292 291 291 291 291 291 292 291 290 290 291 291 289 290 290 290 290 290 290 289 289 288 286 283 282 281 281
284 285 283 283 285 286 288 289 290 292 293 294 295 296 294 294 293 294 293 292 292 292 291 291 290 290 289 290 290 291 290 291 290 289 289 289 288 287 287 286 285 283 281 280
286 285 284 283 286 287 289 289 291 293 294 293 293 294 296 297 296 296 296 295 295 294 293 292 291 291 290 290 290 290 290 291 289 289 289 288 288 288 286 285 283 283 282 282
288 286 284 284 289 288 288 290 291 293 293 293 292 292 293 294 294 294 295 294 295 294 294 293 293 292 292 290 290 290 291 291 290 289 288 288 288 288 287 285 284 287 286 286

GFSCGP_sfc_thetae_078.txt.gz
Theta_e
296 290 290 294 296 296 296 293 292 297 301 300 299 299 302 305 306 307 309 310 312 312 312 311 310 311 323 327 330 337 338 341 342 341 340 340 340 342 343 343 344 343 341 339
292 288 295 298 297 296 296 293 294 297 301 300 299 298 302 303 305 306 306 309 311 312 311 311 311 310 312 320 321 326 333 337 340 341 341 342 341 342 342 344 343 343 342 342
289 292 297 296 295 294 294 293 294 294 299 300 298 296 299 302 304 306 308 309 312 313 311 309 310 310 312 312 314 316 319 322 326 332 332 331 332 336 337 339 339 331 331 332
292 295 294 295 293 295 290 297 297 295 294 289 298 288 295 299 300 303 306 308 311 312 311 307 306 309 311 313 315 314 314 314 314 314 316 319 323 323 323 323 322 319 320 321
290 291 290 292 294 297 292 297 295 295 293 292 292 289 294 298 297 300 304 307 310 313 313 308 306 308 311 313 314 314 314 314 314 314 314 314 313 314 314 314 314 316 318 317
293 297 294 295 298 297 298 295 294 294 292 285 291 290 291 294 297 300 304 306 308 311 310 309 309 309 310 312 312 314 313 313 314 315 315 314 314 312 313 314 315 316 317 316
291 291 296 298 295 296 297 293 285 282 283 283 290 289 292 298 299 299 302 305 308 309 311 310 307 308 309 309 311 312 312 312 313 313 314 314 314 313 313 313 314 313 314 314
286 283 291 298 295 292 294 293 287 278 280 284 288 286 292 298 299 299 300 302 305 308 310 309 308 309 309 309 310 310 311 310 311 311 310 311 311 312 310 310 310 310 310 309
286 285 294 296 298 296 291 290 290 285 284 285 288 290 295 297 298 298 298 299 301 302 302 302 306 309 309 309 309 309 309 309 309 308 308 307 307 307 306 305 306 306 305 304
291 285 292 295 297 297 295 294 287 288 280 279 283 286 289 293 294 296 296 297 299 302 301 303 306 308 308 309 308 308 309 307 307 307 306 305 304 303 303 304 303 302 303 302
293 291 288 294 291 292 292 291 291 290 286 282 281 285 295 293 294 295 298 298 298 301 302 304 306 307 307 308 307 307 307 306 305 304 303 303 302 301 301 301 301 301 301 301
293 292 286 288 294 296 295 292 293 287 284 285 285 286 295 295 296 296 299 300 301 302 303 306 307 306 304 305 305 305 305 305 304 303 302 301 300 300 300 300 299 300 299 299
294 289 283 284 289 293 291 293 292 290 288 285 284 287 293 295 296 299 300 301 302 302 304 305 306 306 306 305 304 304 304 304 303 302 301 300 299 299 299 298 298 298 298 298
296 290 287 284 287 291 287 290 292 290 286 287 287 289 292 294 295 297 299 302 303 303 304 305 306 306 306 305 304 304 303 303 301 300 300 300 300 299 299 298 297 297 297 297
294 288 287 287 288 289 288 289 291 287 290 286 289 290 293 296 298 299 299 299 301 303 304 305 305 306 306 305 304 303 303 301 301 299 299 299 300 299 298 298 297 296 295 295
292 288 287 286 288 288 286 289 291 291 291 291 291 291 298 299 300 298 300 300 299 302 304 305 305 306 306 305 303 302 301 300 299 299 298 298 298 298 297 296 295 294 293 294
290 289 286 283 285 286 283 288 289 290 293 292 288 293 298 296 297 299 300 301 301 301 303 306 306 306 306 305 304 302 301 300 298 298 297 297 297 296 295 294 293 292 292 293
289 288 287 284 284 277 287 291 291 290 291 293 294 295 297 297 299 301 302 301 301 302 302 305 307 307 306 306 304 303 301 298 298 297 296 296 296 295 293 292 291 291 291 290
291 290 285 282 281 285 287 288 288 287 288 293 292 294 296 297 297 296 300 300 301 302 303 306 307 306 305 303 302 300 298 298 297 296 296 296 296 294 292 290 290 289 289 288
289 290 287 284 279 277 285 292 293 292 285 295 295 295 295 294 290 296 299 301 300 301 304 304 304 302 302 301 300 299 297 297 296 296 296 296 296 294 291 290 289 289 288 286
287 288 285 285 281 284 291 292 294 283 287 296 297 297 294 292 295 297 298 298 298 299 299 300 300 300 301 299 299 297 297 296 297 296 296 295 295 293 291 290 289 287 286 287
286 285 284 285 282 279 293 291 288 293 297 298 299 299 295 296 297 296 296 296 296 296 296 298 298 297 297 298 298 297 296 297 296 295 294 294 293 291 290 289 286 286 286 287
285 289 287 288 287 293 294 297 298 297 297 298 299 300 297 297 298 297 296 296 296 296 296 297 297 296 296 297 297 295 295 296 295 294 293 293 291 290 290 288 286 286 287 286
289 291 288 287 292 293 294 296 296 297 297 299 301 300 298 299 299 298 298 297 297 297 297 297 296 295 294 295 295 296 294 295 294 293 293 292 290 289 289 289 288 287 286 285
291 289 289 289 291 293 295 295 297 297 298 299 300 300 299 299 297 297 296 296 296 296 296 296 295 293 293 294 293 293 292 293 292 293 293 291 290 290 288 288 288 288 288 287
291 292 289 288 294 293 294 296 297 295 297 299 298 297 296 298 296 298 298 296 298 299 299 298 297 295 294 292 292 292 292 292 292 292 292 291 289 290 289 288 287 289 289 288

GFSCGP_sfc_thetae_081.txt.gz
Theta_e
294 289 288 295 297 296 295 294 293 297 303 301 300 300 304 307 307 307 308 310 312 313 316 314 313 315 327 338 340 341 341 342 342 342 341 341 339 342 343 344 344 344 343 342
291 288 295 298 298 297 296 294 293 298 301 300 299 299 303 305 306 307 308 309 311 313 314 313 313 313 315 328 331 336 339 341 341 342 342 343 342 343 343 345 343 343 342 342
290 291 297 297 295 295 295 293 294 294 298 300 298 296 299 304 306 307 309 311 312 312 313 314 312 313 313 318 322 324 331 338 338 341 341 337 338 339 339 340 339 337 334 335
292 295 295 295 293 295 291 297 297 296 294 289 298 288 296 300 302 304 306 308 310 312 313 315 311 310 313 314 318 317 319 322 323 327 331 332 332 331 330 330 330 325 323 323
289 291 292 292 294 297 293 298 297 297 294 293 294 290 294 299 298 301 305 307 309 311 313 314 311 311 312 316 317 317 316 316 316 317 318 318 316 317 316 315 315 316 318 318
293 298 295 296 298 298 299 296 295 295 293 285 291 291 291 296 297 300 304 306 308 310 312 315 313 311 312 315 316 316 315 314 315 316 316 316 318 315 314 315 315 316 317 316
290 291 295 299 295 298 296 292 285 283 283 283 292 290 292 298 300 301 302 305 308 310 312 315 312 309 311 312 313 314 314 313 315 316 315 315 316 315 315 315 315 314 314 314
286 282 293 298 296 293 293 292 286 278 280 284 291 286 292 300 302 301 302 304 306 309 312 314 313 311 311 312 312 312 313 312 313 314 313 314 314 313 312 312 312 311 311 311
287 285 294 297 299 298 293 290 293 288 288 286 288 292 297 298 299 300 301 301 303 304 308 308 311 310 311 311 311 311 312 311 311 311 311 310 310 310 309 308 308 308 307 306
293 285 292 296 299 298 295 297 287 290 280 279 285 287 290 294 295 298 298 299 300 304 305 305 306 309 311 311 311 312 311 310 309 309 309 308 307 306 306 306 305 304 304 304
295 292 288 295 291 292 293 291 292 292 288 282 282 285 297 295 297 298 300 301 301 302 304 305 306 309 310 310 310 309 309 308 307 307 306 305 304 304 303 303 302 302 302 302
295 292 286 289 296 298 297 294 293 287 284 287 286 287 298 298 299 300 301 303 303 304 304 305 307 308 308 308 308 308 308 307 306 306 305 304 303 302 302 301 301 301 301 301
295 290 283 286 292 295 292 295 295 294 291 288 284 287 297 298 298 301 301 302 304 304 305 306 307 306 306 306 306 306 307 306 305 304 304 303 302 302 301 300 300 300 299 299
297 292 289 285 288 293 289 292 294 291 287 287 288 290 293 295 297 299 301 302 303 304 305 306 307 307 307 307 307 306 305 306 304 303 303 302 302 302 301 300 299 299 299 298
296 289 289 289 289 291 290 291 292 289 290 287 290 290 294 297 298 300 302 301 301 304 305 306 306 307 308 307 307 306 306 305 303 302 302 302 302 302 301 300 299 298 297 297
296 290 289 287 291 290 287 290 291 292 292 292 292 291 298 300 301 300 300 301 301 302 304 306 307 308 308 307 307 306 305 304 303 302 301 301 301 300 299 299 297 296 295 295
293 291 288 285 287 287 284 289 290 292 293 293 289 294 299 298 298 299 300 301 302 303 304 306 307 308 309 308 308 306 305 304 301 301 301 300 300 299 298 297 296 294 294 294
292 291 290 285 286 278 289 293 292 291 293 295 294 296 297 297 299 300 302 302 302 303 304 305 307 309 310 310 309 307 305 303 301 300 300 299 299 298 297 295 294 293 293 292
294 292 287 283 283 287 289 290 289 288 289 294 293 295 298 299 298 298 302 302 302 303 304 304 306 309 310 309 308 306 303 301 300 299 299 298 298 296 295 293 292 291 291 290
292 293 288 285 280 278 288 293 295 294 285 297 297 297 297 297 291 296 300 301 302 303 303 305 307 309 308 307 306 303 301 300 299 299 299 299 298 296 294 293 291 290 289 287
287 288 285 285 282 286 292 294 296 284 288 296 298 299 298 294 296 298 300 300 300 301 302 305 306 305 305 305 303 301 301 299 300 300 299 298 297 296 295 292 291 288 287 287
287 286 285 286 283 280 295 293 287 294 298 298 299 300 299 299 298 299 298 298 298 298 299 301 302 301 301 302 301 300 299 300 300 298 297 297 296 294 292 290 288 287 286 286
285 290 287 289 288 295 296 296 299 300 298 299 299 301 301 298 299 300 299 298 298 298 298 300 299 298 299 300 300 299 299 298 297 296 295 295 294 292 291 288 286 286 286 287
292 295 289 289 293 294 296 298 298 299 298 300 300 301 301 299 301 300 300 299 299 299 298 299 298 298 297 298 298 299 298 296 295 294 295 294 292 290 290 288 287 287 286 287
293 293 291 291 294 295 297 298 298 299 299 299 301 302 302 301 300 299 298 298 298 299 298 298 298 297 297 296 296 297 296 295 293 293 294 293 292 291 288 288 288 288 290 289
295 292 290 289 296 295 296 298 299 298 298 299 300 300 300 300 299 300 300 300 300 299 299 299 299 297 295 293 292 292 293 293 292 291 292 292 291 290 289 288 288 291 292 291

GFSCGP_sfc_thetae_084.txt.gz
Theta_e
293 287 286 292 295 295 295 292 292 296 302 300 299 299 301 305 304 303 304 306 307 309 312 311 311 310 325 333 335 334 335 336 338 337 336 335 336 337 338 339 338 339 339 339
290 286 293 298 297 295 294 292 292 297 302 300 298 296 301 304 304 305 306 306 308 308 307 309 309 309 311 328 331 332 335 335 335 337 336 336 337 336 339 339 338 339 340 338
288 291 295 296 294 292 292 290 292 293 297 298 295 292 296 299 301 304 305 306 308 309 308 307 308 308 308 314 324 326 331 334 334 335 334 332 332 334 333 334 334 326 329 329
291 294 293 294 293 295 290 296 296 295 291 286 294 281 292 296 298 301 301 302 304 308 310 310 308 308 308 310 314 314 318 323 322 325 329 327 326 327 321 323 324 318 319 318
289 292 292 292 294 297 293 298 296 295 291 291 289 284 287 296 294 298 300 301 303 305 307 310 307 307 309 312 313 312 312 314 313 314 317 319 313 311 311 311 311 313 314 314
292 297 295 294 298 297 298 295 294 292 290 279 288 286 285 290 293 295 299 301 303 305 306 308 308 307 310 312 312 312 310 310 311 311 311 310 309 308 308 309 309 310 312 312
289 290 295 297 294 296 294 289 280 278 275 277 288 285 288 293 295 296 295 297 301 304 305 307 305 304 307 310 311 311 310 309 311 311 311 311 311 310 310 310 310 310 310 310
284 281 291 297 294 291 291 289 281 275 275 278 287 281 287 294 297 298 298 297 299 300 303 306 305 305 307 309 310 310 310 310 311 311 310 310 310 308 307 307 307 306 305 305
285 284 294 297 298 296 290 285 289 284 283 279 283 287 290 295 293 296 296 297 296 297 300 305 306 306 307 307 308 308 309 309 309 308 308 307 307 306 305 304 304 303 303 303
291 282 291 296 298 297 294 294 283 284 274 274 280 282 284 288 290 293 292 292 295 296 297 300 302 304 307 309 308 308 308 307 307 307 305 305 304 303 303 302 301 300 300 300
293 289 288 294 290 289 290 288 289 288 283 277 275 280 290 291 293 293 294 296 295 294 298 299 300 303 306 308 308 307 306 306 305 304 303 302 301 301 300 299 299 298 299 298
293 290 283 287 294 296 294 291 289 280 280 281 280 281 294 293 295 296 296 299 298 298 299 300 302 304 304 304 306 307 306 305 304 303 302 300 300 299 299 298 298 298 297 297
293 289 282 282 288 292 290 293 293 291 286 280 276 281 293 292 292 296 295 296 299 300 299 300 301 302 302 303 303 303 303 303 302 301 301 300 299 298 297 297 297 297 296 296
296 290 285 278 282 288 285 289 291 288 280 283 283 285 287 290 292 295 296 294 296 299 301 300 300 300 301 302 302 302 302 302 301 301 299 298 298 298 298 297 297 297 296 295
293 285 283 286 288 288 288 289 289 284 287 280 286 287 291 291 292 294 295 297 296 296 300 301 301 301 301 301 301 301 301 300 299 299 299 299 299 299 298 297 296 295 294 294
293 284 285 282 289 288 285 288 288 289 290 290 290 289 296 297 297 296 296 297 297 297 298 302 303 302 302 301 301 301 300 299 299 298 297 298 299 298 297 296 295 293 292 292
290 287 282 278 285 285 280 286 288 289 290 290 286 291 295 294 295 295 295 297 297 298 299 300 302 303 302 302 302 300 299 299 298 297 297 297 297 296 295 295 295 294 291 293
289 287 285 278 280 271 285 291 290 288 290 292 293 294 294 294 295 296 297 296 297 298 300 300 301 303 304 304 302 301 300 298 297 297 297 297 296 295 294 293 294 292 291 292
291 287 282 278 277 282 286 287 287 285 286 291 289 291 294 295 294 293 297 297 296 298 299 298 299 301 304 303 302 301 298 297 296 296 296 296 295 294 294 293 292 289 291 290
291 289 283 280 277 275 285 290 292 290 280 293 293 292 293 293 286 290 295 296 297 298 298 299 300 301 303 302 301 299 297 296 295 296 296 296 295 294 294 292 291 289 289 287
283 284 280 280 280 283 289 292 292 278 282 292 294 294 294 291 291 294 297 296 296 296 297 299 299 299 300 300 299 297 296 295 296 297 296 295 294 294 294 292 291 287 286 286
283 282 281 281 277 276 291 289 284 290 293 294 294 295 295 296 295 295 295 294 295 295 297 298 297 296 297 298 298 296 295 296 296 296 295 294 293 294 292 290 287 287 286 286
281 286 283 284 285 291 292 291 293 294 294 294 294 296 298 297 295 297 296 294 294 294 296 297 296 295 296 297 297 295 294 295 295 294 293 292 292 292 291 287 286 286 286 286
287 290 285 286 290 292 292 294 294 294 293 295 296 295 297 296 297 297 297 296 295 295 294 295 295 294 295 296 296 296 295 294 293 294 294 293 291 290 289 288 287 286 285 285
288 289 287 287 290 292 294 294 295 296 297 296 296 296 298 298 297 296 295 297 296 296 296 295 294 293 293 293 293 294 294 293 292 293 293 292 291 290 288 288 287 287 288 288
289 289 288 286 293 292 293 295 296 295 296 297 296 297 297 296 297 298 296 296 297 297 297 297 297 293 292 291 293 293 294 294 293 292 292 291 290 290 288 287 287 291 291 292

GFSCGP_sfc_thetae_087.txt.gz
Theta_e
291 288 285 288 291 293 293 292 291 295 301 299 298 298 301 303 302 300 301 302 303 307 309 308 311 316 324 330 334 336 336 335 336 334 333 333 333 335 336 337 338 338 338 337
289 286 292 295 294 294 294 292 291 297 300 297 296 296 300 301 301 302 302 303 304 305 306 306 307 308 314 329 332 333 336 333 336 337 335 333 332 334 336 337 336 338 337 337
286 291 296 295 294 292 292 290 291 292 297 299 296 293 296 299 302 303 303 303 304 305 304 304 305 306 307 319 327 331 333 332 333 334 334 331 331 331 332 332 327 326 328 326
289 294 295 293 292 292 287 295 295 295 292 286 295 284 291 295 296 299 300 300 302 303 305 305 305 305 305 310 318 320 327 331 330 333 331 329 328 327 325 331 323 321 319 317
289 291 292 292 293 296 291 297 295 295 291 290 289 285 288 293 292 295 297 298 300 302 303 305 305 307 306 310 311 313 315 318 318 321 327 326 318 315 314 315 315 313 313 313
291 297 294 294 297 296 298 295 294 293 288 278 286 284 283 287 294 294 296 298 300 302 303 304 306 306 307 310 311 310 311 310 314 312 314 313 309 307 307 307 308 310 311 310
288 289 293 297 291 296 295 287 280 279 276 277 286 284 285 290 293 295 296 297 298 300 302 303 303 303 307 307 309 310 311 311 313 310 310 309 308 307 308 308 308 309 309 307
279 276 290 295 293 290 291 288 278 274 274 277 285 280 286 292 294 295 296 297 297 295 299 301 303 303 306 308 308 308 308 310 311 309 309 309 309 308 307 308 306 305 305 304
280 284 294 296 296 294 288 281 288 281 280 276 281 285 289 291 292 292 292 295 294 295 297 301 302 304 305 306 307 308 308 308 309 309 308 306 306 305 304 304 303 302 301 301
287 283 291 295 296 296 292 293 281 278 274 274 278 280 282 286 288 290 290 290 293 294 296 298 301 302 305 306 306 306 309 308 307 307 306 304 304 303 303 301 300 300 300 300
290 286 286 293 288 289 289 287 288 286 282 277 274 278 286 289 291 291 292 294 294 295 295 296 299 302 304 304 305 304 306 306 305 305 303 302 301 300 300 299 298 299 298 298
290 286 283 284 292 294 292 291 289 278 279 278 278 279 290 291 292 295 295 296 296 296 297 297 298 301 302 303 304 304 306 306 304 302 302 300 300 299 297 297 298 298 297 297
290 283 275 281 286 290 288 291 291 288 284 278 276 279 291 290 293 294 294 295 297 297 297 298 299 300 300 301 302 303 303 304 302 301 301 300 299 299 298 297 297 297 296 295
295 287 280 275 280 286 283 288 290 286 278 281 281 283 286 288 290 292 294 293 295 297 298 298 298 299 299 300 301 301 301 301 301 300 298 298 298 298 297 296 295 295 295 294
291 281 280 285 287 286 286 287 288 282 285 280 286 286 290 290 288 291 294 295 295 297 298 298 298 298 299 299 299 299 299 299 299 298 297 297 297 297 296 295 295 295 294 293
290 281 282 280 287 286 284 286 287 287 288 287 288 287 293 293 296 294 294 295 295 296 298 299 300 300 299 299 299 299 298 298 298 297 296 297 297 296 295 294 293 292 291 291
288 284 279 276 283 283 279 284 286 287 288 288 284 291 292 292 294 293 293 294 294 296 297 297 300 301 301 300 301 299 298 298 296 296 296 296 296 295 294 293 292 291 290 291
288 287 284 276 278 270 283 288 289 288 289 290 290 292 293 292 293 293 294 293 294 295 296 298 298 301 301 301 301 300 299 298 296 295 295 296 295 294 293 292 291 291 289 289
288 285 281 277 275 280 283 286 286 284 285 289 287 292 293 293 292 291 295 294 294 295 296 296 297 298 301 302 302 300 298 297 296 295 295 295 295 293 292 290 290 291 288 288
289 287 281 278 275 274 283 288 290 288 279 291 292 292 292 292 286 288 294 295 295 295 295 296 298 299 298 301 301 299 297 296 295 295 295 295 294 293 291 290 291 290 288 285
281 282 278 278 275 281 287 289 291 277 280 291 292 292 292 290 291 293 294 295 294 295 295 296 296 296 297 299 300 298 296 295 296 296 295 294 294 292 292 290 291 289 287 287
281 278 278 279 275 274 290 287 282 287 291 293 293 293 294 295 296 294 295 294 294 293 295 296 294 294 295 296 297 295 294 295 296 295 294 293 292 293 292 291 289 288 287 286
280 283 281 283 283 290 291 290 293 293 291 292 293 295 295 296 296 295 295 294 293 293 294 295 294 294 295 296 297 295 295 295 294 293 292 291 291 291 291 289 287 286 286 286
286 288 283 285 286 288 290 291 292 293 293 294 294 294 294 294 296 296 295 294 293 293 293 294 293 292 293 295 296 295 294 294 293 292 291 291 289 290 290 289 288 287 286 286
286 287 285 285 287 290 292 293 293 294 296 296 297 297 296 296 296 296 295 295 295 294 294 294 294 294 293 293 293 294 294 293 292 292 292 291 291 291 289 288 288 287 288 288
290 288 284 285 291 289 290 292 294 292 293 294 294 295 297 297 297 297 296 295 295 295 295 296 295 293 292 292 292 293 294 294 293 292 292 292 291 290 289 288 287 291 291 292

GFSCGP_sfc_thetae_090.txt.gz
Theta_e
292 288 285 288 292 291 292 290 290 295 300 297 296 297 299 304 304 302 301 300 304 307 307 308 320 325 329 333 332 333 334 335 335 333 335 331 334 334 334 333 336 335 335 334
289 285 290 291 293 292 292 290 291 297 299 297 296 295 301 303 304 305 301 301 302 304 307 306 307 315 324 329 332 332 334 334 334 335 335 333 332 331 333 335 336 338 338 337
287 290 295 293 292 292 292 291 291 292 297 298 294 292 295 300 303 304 302 302 303 304 305 306 304 305 309 325 329 332 334 333 334 335 334 330 331 330 330 329 327 329 330 328
290 295 293 292 291 292 288 295 294 294 292 287 296 283 290 295 296 299 302 299 301 303 303 305 305 304 304 313 326 329 331 331 333 332 332 328 327 326 328 329 324 324 323 320
287 293 292 291 292 295 291 297 295 295 291 289 290 285 289 291 293 295 297 301 300 301 303 304 304 305 306 306 317 322 326 327 327 330 331 329 325 326 320 321 319 318 315 314
291 296 294 292 296 296 298 295 294 293 289 282 287 286 285 286 292 296 295 298 300 301 301 302 305 304 303 306 310 313 317 319 318 319 325 325 321 314 314 312 313 311 310 310
288 289 294 296 293 296 295 289 281 280 279 278 287 286 288 291 292 295 295 296 298 299 299 300 302 301 303 306 307 309 310 311 315 313 316 317 316 314 314 313 313 311 311 307
279 280 290 295 292 290 291 288 280 276 275 277 285 281 285 291 294 295 295 295 296 297 298 300 301 301 304 306 306 307 308 309 310 312 314 315 312 312 312 311 312 310 308 305
278 281 294 295 295 294 290 283 287 280 278 276 280 285 289 291 291 292 293 294 294 296 296 299 300 301 304 305 306 306 306 307 308 309 310 310 308 308 306 305 304 303 302 302
285 278 289 293 294 294 290 291 281 279 273 273 277 279 281 285 288 289 289 289 290 291 295 298 299 300 303 304 305 305 306 306 307 307 307 306 305 304 303 302 301 300 300 300
289 284 284 290 286 286 288 285 286 283 280 275 274 278 285 287 289 290 291 292 293 294 294 295 298 300 303 303 304 304 305 305 305 306 305 304 303 303 302 301 300 299 299 298
289 285 280 283 291 293 291 288 286 277 277 276 276 278 289 289 291 292 292 294 295 296 295 296 296 300 301 302 302 303 303 304 305 304 302 301 302 300 300 299 299 298 297 297
289 281 280 280 285 289 287 289 290 286 282 276 274 278 290 289 290 293 292 293 296 296 296 296 297 299 299 300 301 301 302 302 303 302 300 299 297 298 298 298 297 297 297 296
294 285 279 274 279 284 282 287 289 285 276 281 280 284 287 289 289 290 290 292 293 295 297 296 297 298 299 300 300 300 300 300 299 300 300 298 298 297 298 296 297 296 295 295
290 280 278 284 286 285 285 286 286 281 285 280 284 285 289 290 290 292 294 294 294 294 296 297 297 297 298 298 299 299 299 298 298 297 297 297 297 297 297 296 294 294 294 294
289 280 280 279 285 285 283 285 285 286 286 286 287 286 294 293 292 293 293 294 294 293 295 298 298 298 298 297 298 299 298 297 297 296 296 296 296 295 294 294 293 292 291 291
287 283 279 275 282 282 278 283 284 285 286 287 283 289 292 291 293 293 292 293 294 294 295 295 296 299 299 298 299 298 297 297 296 296 295 296 295 294 293 292 291 290 289 289
286 284 281 274 278 269 282 287 287 286 288 288 288 290 292 291 292 292 292 292 293 294 295 295 295 296 299 300 299 299 297 297 296 295 295 295 295 293 292 291 290 289 288 288
287 284 280 276 274 279 282 285 285 282 283 288 287 290 292 293 291 290 294 294 293 293 295 295 295 295 296 299 301 299 297 297 296 295 295 295 294 292 291 290 289 288 288 287
287 285 281 277 275 274 281 287 289 286 278 288 290 290 291 291 285 288 293 294 294 294 294 294 294 296 296 297 299 298 297 296 295 295 295 295 294 293 291 289 288 289 290 285
281 280 277 278 277 280 286 289 289 277 279 289 291 292 292 289 290 293 293 293 294 294 294 295 294 293 294 296 298 298 296 295 297 296 295 294 294 292 291 289 288 288 288 287
280 277 277 278 275 273 288 287 282 285 290 291 291 292 293 293 294 295 295 294 294 293 294 294 293 293 294 295 298 296 295 296 297 295 295 293 292 293 291 289 287 288 288 287
279 282 280 282 281 288 288 287 290 291 289 290 290 292 293 293 293 295 295 295 294 293 293 294 293 293 293 294 296 295 295 296 296 295 293 292 292 291 290 288 286 288 288 287
283 286 282 284 284 287 290 291 292 292 292 293 293 293 293 292 294 294 295 295 293 293 292 293 292 291 292 293 295 296 296 296 295 294 292 292 291 290 289 289 289 288 287 286
284 285 284 283 286 288 289 290 290 291 293 293 295 295 295 295 294 295 296 295 294 293 293 293 292 293 292 292 293 294 294 294 293 292 291 290 290 290 289 289 289 288 289 288
285 285 282 280 288 287 287 290 292 289 289 292 293 294 295 296 295 296 296 296 295 294 294 293 293 293 293 293 294 294 294 293 292 291 291 291 290 290 289 288 288 292 291 292

GFSCGP_sfc_thetae_093.txt.gz
Theta_e
292 287 283 286 290 289 289 288 288 293 299 295 293 295 299 302 302 299 300 300 303 308 313 314 323 327 329 329 331 332 334 336 337 335 333 332 333 334 334 335 335 334 331 331
288 284 289 291 290 290 290 288 288 295 298 296 294 293 300 303 301 300 300 301 301 304 306 307 309 321 325 330 331 331 334 334 335 335 335 334 333 332 334 335 335 334 333 334
286 289 292 289 288 290 289 289 291 291 296 296 294 290 293 300 303 301 303 302 302 303 304 306 303 310 316 323 327 331 331 333 333 335 333 329 330 329 328 329 330 331 333 332
291 294 290 288 290 291 287 295 295 293 291 287 295 282 291 295 297 299 299 299 300 301 303 304 305 303 305 311 324 328 331 331 332 330 330 328 327 325 327 326 324 325 326 325
288 291 289 289 292 293 290 296 294 293 290 289 290 285 289 291 292 294 296 297 300 300 302 304 305 305 306 305 308 322 325 327 329 329 331 329 326 326 324 323 322 318 318 318
292 296 294 292 295 296 297 294 292 291 289 281 288 286 286 286 291 294 297 296 299 301 301 302 304 305 304 303 306 314 320 323 322 325 326 326 325 321 320 320 319 317 315 313
289 289 294 295 292 296 294 289 282 279 280 280 288 285 287 292 294 292 296 296 297 299 299 300 300 301 303 303 306 309 314 317 316 316 321 322 321 319 320 319 317 314 313 312
282 277 291 294 291 290 288 287 281 276 275 276 286 282 287 291 292 293 295 295 295 296 296 297 299 300 300 302 305 308 309 310 313 312 313 314 316 316 316 316 315 314 313 309
279 283 293 295 295 293 288 285 287 280 279 276 280 283 289 292 292 292 293 293 293 294 295 296 299 298 300 301 304 306 307 307 308 309 309 310 312 311 311 311 311 309 306 304
284 280 288 293 296 295 289 290 282 281 277 273 276 279 281 286 289 291 291 290 291 292 294 295 298 298 299 301 303 304 305 305 306 307 306 306 306 308 307 305 302 302 301 301
287 282 283 289 286 287 289 285 284 283 279 275 274 278 284 287 289 288 289 292 292 292 294 294 296 299 300 302 303 303 304 304 304 304 303 302 302 302 303 304 303 301 300 299
287 284 276 282 289 292 289 286 283 276 276 274 276 278 287 287 288 291 291 294 295 295 295 295 295 297 299 300 301 302 303 303 303 302 302 300 300 301 301 299 301 301 300 299
287 280 272 277 282 288 286 287 287 284 281 275 274 278 288 289 290 291 290 292 294 295 296 296 296 297 298 298 299 300 301 302 301 300 300 299 299 298 297 296 296 298 297 296
292 282 279 274 279 283 282 284 287 283 274 278 278 282 286 287 288 289 290 292 293 293 295 295 295 296 298 298 299 300 300 300 300 299 298 298 298 298 296 296 297 296 296 295
288 280 278 283 284 284 284 284 285 279 283 280 284 284 287 289 290 290 291 293 293 293 293 295 296 296 296 297 298 299 299 299 298 297 297 297 297 298 298 297 296 295 295 294
288 279 279 279 284 283 282 284 284 284 285 285 285 285 294 294 291 291 292 293 293 294 294 294 296 296 297 297 298 298 298 298 297 296 296 296 295 295 294 293 292 292 291 291
285 282 278 275 281 281 277 281 282 283 285 285 282 287 289 290 292 292 293 293 293 293 294 294 294 294 295 297 299 298 297 297 296 296 295 295 294 293 292 292 291 290 289 289
285 283 281 274 277 269 281 285 286 285 286 287 287 287 288 289 291 292 292 292 293 293 294 294 294 294 295 296 298 299 297 297 296 295 295 294 294 293 291 290 290 288 288 288
287 283 279 276 273 278 281 284 283 281 282 287 287 289 291 292 290 289 293 293 293 293 294 294 294 294 294 295 297 297 296 296 296 295 295 294 294 292 291 289 288 287 287 286
285 284 282 277 274 273 279 286 288 285 278 286 289 289 290 290 284 286 291 293 294 294 294 293 293 293 294 296 296 296 296 295 295 296 295 295 294 293 291 290 288 287 287 286
280 280 277 278 276 279 285 287 287 276 278 287 289 288 289 287 289 291 293 293 293 294 294 294 294 292 293 293 294 295 295 295 298 296 295 294 294 293 292 289 287 287 285 288
280 277 277 277 274 273 286 286 280 284 288 288 289 289 289 290 292 293 294 295 294 293 294 294 293 292 293 293 293 294 294 296 295 296 295 293 292 293 291 289 287 286 287 288
279 282 279 280 280 287 288 286 290 290 289 289 289 291 291 291 291 292 293 294 295 295 293 293 292 292 293 293 293 293 293 294 295 296 295 294 293 293 291 289 287 287 288 288
281 284 281 282 283 285 288 289 290 290 289 290 292 292 293 292 294 294 295 296 296 297 294 293 292 291 291 292 293 294 293 294 295 295 294 293 293 291 290 289 288 287 286 287
283 283 283 282 283 285 286 287 287 288 288 288 289 290 290 291 291 293 295 296 296 297 297 293 292 292 292 292 292 292 295 295 295 294 294 293 292 291 290 290 289 289 290 290
284 284 281 280 285 286 285 287 288 286 286 287 289 289 290 290 290 292 293 295 296 297 297 294 294 293 293 293 294 294 294 295 294 292 292 291 291 290 290 289 288 292 292 292

GFSCGP_sfc_thetae_096.txt.gz
Theta_e
291 285 283 284 288 287 286 286 287 292 298 294 292 291 295 301 300 300 300 300 303 307 314 321 326 329 330 331 328 332 331 334 336 334 334 334 332 334 335 334 332 331 329 329
287 283 289 290 291 289 287 287 289 294 296 294 293 291 295 298 300 301 301 301 301 303 306 307 315 323 328 329 331 332 333 332 334 334 334 333 333 332 333 334 334 333 331 331
284 288 292 289 289 288 287 288 290 290 293 296 293 290 292 296 300 300 302 303 301 302 303 304 306 317 321 325 330 331 332 332 333 333 332 329 329 329 329 330 331 332 332 332
288 292 289 287 289 291 285 292 293 291 290 286 294 282 290 294 295 297 298 299 301 302 302 304 304 304 313 318 324 328 329 331 333 333 332 330 329 327 329 329 328 326 327 326
288 289 288 287 291 292 288 295 293 292 289 289 289 285 288 292 291 293 295 297 299 301 302 304 304 305 306 306 311 322 326 326 328 329 331 330 328 329 325 325 323 322 322 322
290 290 291 292 294 295 295 292 290 290 287 280 287 285 286 287 291 293 294 295 298 300 301 303 304 304 305 304 305 309 320 323 324 326 328 327 326 323 322 321 320 318 317 316
289 291 295 295 290 295 292 285 278 277 278 277 287 284 287 291 293 292 293 294 295 297 299 300 301 302 303 304 304 306 312 318 320 319 324 325 323 321 321 321 318 315 314 313
274 279 290 295 292 290 289 286 278 275 276 277 286 282 285 290 292 292 292 293 294 295 296 298 299 300 301 302 302 305 309 313 315 313 315 316 317 317 317 317 317 315 313 311
279 284 293 294 295 293 289 281 285 279 279 276 281 284 288 290 291 291 291 291 291 293 294 295 297 299 298 299 301 303 307 309 312 312 312 311 311 312 312 314 315 314 312 309
283 283 289 293 295 294 289 289 280 279 273 272 276 278 281 285 289 290 290 290 291 292 293 294 294 297 298 300 301 303 306 307 307 308 307 308 308 308 308 308 307 307 306 304
285 282 284 287 286 286 286 285 283 282 278 275 274 278 284 285 287 289 289 291 291 292 293 293 294 296 299 300 300 301 303 304 304 305 303 303 303 303 303 304 303 303 302 301
287 282 280 281 289 291 289 285 282 277 277 274 275 278 285 286 287 290 291 292 292 293 294 294 295 296 298 298 299 300 302 303 303 303 301 300 300 300 299 298 298 299 298 298
286 280 272 277 282 286 284 286 285 282 279 274 273 277 288 286 289 290 290 292 293 293 294 294 294 295 296 297 298 300 300 301 301 301 300 298 298 297 297 296 297 297 296 295
291 281 278 273 278 282 282 284 285 282 274 277 277 279 284 287 288 289 290 290 292 293 293 293 294 295 295 296 297 298 299 300 299 299 298 297 296 296 296 297 297 296 295 294
287 279 277 282 283 284 284 284 283 278 281 278 281 282 286 288 289 290 290 291 293 294 294 293 293 294 295 296 297 297 298 298 298 297 297 296 296 296 295 295 295 295 295 294
286 278 279 279 283 283 282 283 283 283 284 284 283 284 290 290 290 291 291 292 292 293 293 293 293 294 295 295 296 297 298 298 297 296 296 296 295 295 294 293 293 294 292 291
284 281 278 275 280 280 276 281 281 283 283 284 281 285 287 287 289 290 291 292 292 292 294 294 294 294 294 294 295 296 297 297 296 296 296 295 294 293 292 291 291 290 289 289
284 281 280 274 277 268 280 284 284 284 285 285 286 287 288 288 290 291 292 292 292 293 294 295 295 295 295 295 295 296 296 296 296 295 295 294 294 292 291 290 289 288 287 288
286 282 278 275 272 276 280 283 283 281 282 285 287 288 289 290 289 288 291 292 292 293 294 294 295 295 294 295 296 295 295 295 295 295 295 294 294 292 291 290 288 287 287 286
284 283 280 276 273 272 278 285 287 285 277 285 287 286 287 288 282 285 290 292 293 295 294 294 294 294 293 295 294 294 295 293 294 296 296 295 294 293 291 290 288 287 286 286
279 279 277 277 275 278 283 286 287 275 277 286 287 287 287 284 287 290 292 292 292 293 294 294 293 292 294 294 293 292 293 293 297 296 294 294 294 293 292 290 287 287 285 286
279 276 276 276 274 272 285 284 279 283 286 288 287 288 288 289 291 292 292 293 293 293 293 294 292 293 294 293 292 292 292 296 295 295 294 293 293 293 291 289 286 286 286 285
278 280 279 280 279 286 286 287 288 288 287 286 286 288 288 288 288 289 290 292 293 294 295 294 293 293 293 293 292 292 294 293 293 294 295 294 292 292 290 288 286 286 285 286
280 282 281 282 282 285 285 287 287 287 285 287 287 287 288 287 288 288 289 290 290 292 294 295 293 291 292 292 292 292 293 293 293 293 295 294 293 292 291 291 290 288 287 286
282 283 281 281 282 284 285 285 284 285 285 285 286 287 287 288 288 289 289 290 292 293 295 296 296 296 293 292 292 292 293 293 291 291 293 293 293 291 290 290 290 290 289 289
283 283 281 280 284 284 284 284 285 284 284 285 286 288 289 288 287 288 289 291 291 293 296 295 296 296 294 294 293 293 294 295 294 294 293 293 293 291 291 290 289 293 292 293

GFSCGP_sfc_thetae_099.txt.gz
Theta_e
291 284 282 284 286 287 287 285 285 291 297 294 292 291 294 297 298 300 304 306 311 318 323 322 325 329 328 328 327 328 329 329 333 335 334 334 332 335 336 335 335 335 335 333
286 283 288 289 288 287 284 284 287 293 296 294 293 292 296 297 298 300 303 306 306 309 312 321 325 327 328 326 326 327 328 329 331 334 335 335 334 335 336 337 337 336 334 331
283 287 291 289 287 286 283 285 288 288 294 295 293 290 293 297 300 301 304 305 306 307 307 309 318 324 326 325 325 326 329 330 332 335 335 332 333 333 333 334 335 335 334 334
286 290 290 287 286 289 284 291 292 291 290 286 294 282 290 295 296 298 300 302 304 306 306 307 309 312 320 324 329 328 330 331 332 332 333 331 328 327 330 332 331 329 331 328
287 289 286 287 288 292 288 295 293 292 290 289 289 285 289 293 293 296 298 301 302 304 306 308 308 309 312 314 322 326 328 329 332 331 333 331 329 330 330 331 326 323 322 322
287 292 292 292 294 294 296 292 291 291 288 281 287 286 286 290 293 295 297 300 302 304 305 305 307 308 308 310 310 315 324 327 328 330 331 330 329 329 326 326 324 320 320 318
288 289 295 295 292 294 292 286 280 278 279 279 286 286 287 292 295 295 296 296 298 301 302 303 304 306 307 308 307 308 313 318 325 328 328 329 328 327 326 324 321 318 316 314
282 282 290 295 292 290 289 286 279 275 277 279 287 283 287 291 294 293 294 295 296 298 300 301 302 302 303 305 306 306 309 313 320 321 324 326 326 324 324 324 321 319 317 315
283 284 294 295 296 294 288 283 287 280 280 280 281 286 289 291 292 292 292 293 293 295 297 298 300 301 302 302 303 305 307 311 316 316 317 318 319 320 321 320 320 318 315 313
286 284 290 293 295 295 291 290 281 281 275 274 279 280 282 286 288 291 292 292 293 294 296 297 297 300 302 303 304 305 307 310 313 315 314 314 314 315 316 317 315 314 313 311
285 285 285 290 287 287 288 286 283 282 279 277 275 279 287 286 288 290 292 294 294 295 296 297 298 299 301 303 304 305 306 308 309 309 309 310 310 311 311 313 311 310 309 307
287 283 281 284 289 291 289 286 283 279 278 276 278 280 288 289 291 292 293 294 295 296 297 297 297 299 300 301 303 304 305 306 307 307 307 306 306 307 306 305 303 304 302 302
287 280 274 279 283 287 286 287 284 283 281 277 277 280 289 290 291 291 292 294 295 295 296 296 298 298 298 300 302 303 304 305 305 305 304 303 303 303 302 301 301 302 301 300
290 282 278 274 279 283 283 286 286 282 278 280 279 282 286 288 290 292 292 292 293 294 296 295 295 296 298 299 300 302 303 303 304 303 302 302 301 302 301 301 300 300 300 299
287 280 278 282 284 284 285 285 285 279 283 280 282 283 287 289 290 291 292 293 294 295 295 295 295 296 297 298 299 300 301 302 302 301 301 301 301 300 300 299 299 298 298 297
286 279 279 279 283 283 283 284 284 285 285 285 285 285 289 290 290 291 291 292 292 293 294 295 295 296 296 296 297 298 300 301 301 301 301 300 299 298 298 297 297 297 296 296
284 281 279 276 280 281 278 282 283 284 285 285 282 285 288 288 290 291 291 292 292 293 294 294 295 295 296 297 297 297 297 299 299 300 300 299 299 298 297 296 296 295 295 294
283 281 280 274 276 269 280 284 284 284 283 285 286 287 288 288 290 291 292 291 292 293 294 295 296 296 297 297 297 297 297 297 298 298 299 299 298 297 295 295 294 293 293 293
285 282 278 275 273 276 280 283 283 282 281 285 286 287 288 289 289 289 291 293 292 293 294 295 296 296 296 296 297 296 296 297 297 297 298 298 297 296 294 294 293 291 292 291
284 283 280 276 273 272 278 285 287 285 278 286 287 286 287 288 284 287 291 293 293 294 295 295 296 296 295 297 296 295 296 296 295 297 298 298 297 296 294 294 292 291 292 289
279 279 277 278 274 278 283 286 287 277 278 287 287 287 287 285 287 290 292 292 293 294 294 295 296 295 296 297 295 294 295 295 297 297 298 297 297 296 296 293 291 290 288 289
279 276 277 277 274 272 286 284 281 284 287 287 287 288 287 287 288 289 289 289 289 289 291 293 293 295 296 297 294 294 294 297 296 297 296 296 296 295 293 292 290 290 289 288
278 280 279 280 280 285 286 286 288 288 286 287 286 286 286 285 286 287 287 289 290 291 291 293 293 293 295 296 295 293 295 296 295 295 295 295 294 294 293 291 290 289 290 289
279 282 281 281 281 285 286 287 287 288 286 286 286 285 286 285 287 287 287 288 288 290 291 293 293 294 295 296 296 294 295 295 294 294 295 295 294 293 292 292 291 291 290 289
281 282 281 280 282 283 285 286 286 286 285 285 285 286 287 288 287 287 287 288 289 290 292 293 293 294 294 296 296 295 294 294 293 293 294 294 294 293 291 292 291 291 291 291
282 282 281 281 285 284 284 285 286 284 283 284 285 286 287 287 286 287 287 288 289 289 291 292 293 292 293 295 296 295 294 295 294 292 292 293 294 293 292 290 290 293 293 294

GFSCGP_sfc_thetae_102.txt.gz
Theta_e
291 286 283 286 289 289 287 285 285 291 294 294 293 294 297 301 301 300 303 305 309 315 322 326 321 328 329 329 328 327 328 330 333 336 336 336 336 336 336 337 338 337 338 338
287 283 289 290 290 288 286 286 287 292 296 295 294 294 298 300 299 300 302 305 308 314 319 318 318 321 325 326 327 327 328 329 330 334 336 337 337 338 340 340 339 338 339 338
284 287 289 289 286 285 286 286 288 290 295 297 295 292 295 300 301 302 304 305 308 312 316 315 316 321 325 324 326 327 327 329 329 331 335 337 339 338 338 338 339 340 339 339
287 290 289 288 286 288 284 290 292 292 292 288 295 285 292 296 298 300 302 304 307 308 310 313 319 322 323 325 328 328 328 329 328 331 333 330 328 330 333 335 336 335 336 335
287 288 287 285 288 291 288 293 294 294 291 292 290 288 290 294 294 298 301 304 307 309 309 310 312 317 323 327 328 328 328 329 330 330 331 328 328 330 332 332 332 329 331 331
288 294 292 293 294 294 296 292 293 293 291 284 287 287 287 290 293 297 301 304 305 307 308 309 310 311 313 318 324 328 329 328 331 331 331 330 330 329 329 330 330 325 324 324
288 290 294 297 292 296 295 290 283 281 283 281 289 288 287 294 297 297 298 299 301 305 307 308 308 310 311 312 313 315 324 328 330 331 332 332 332 330 329 330 330 324 320 318
286 284 291 296 294 291 292 290 285 277 279 283 290 284 287 295 296 296 296 298 301 302 304 304 306 307 308 308 310 312 312 315 321 328 330 331 333 330 332 331 328 324 321 318
287 285 294 296 297 296 291 287 289 285 287 285 286 288 292 295 295 296 296 299 300 301 302 303 305 306 307 308 307 309 311 313 317 322 327 330 328 327 327 328 327 325 322 319
290 285 291 293 298 297 293 292 287 288 281 279 283 285 286 291 292 296 296 298 300 301 302 303 303 305 307 309 309 309 309 311 315 320 323 324 325 327 328 325 323 321 321 317
291 291 288 292 291 290 292 290 288 287 286 283 280 284 292 291 293 296 298 299 300 301 302 303 304 305 306 309 310 310 310 312 314 318 319 320 320 321 323 322 321 320 318 315
292 291 286 288 293 294 293 290 288 287 282 283 287 285 295 295 297 298 298 299 301 302 303 303 304 305 306 307 309 310 311 311 314 315 314 314 316 317 318 318 316 315 313 314
292 288 285 286 290 292 291 292 291 288 289 283 285 285 295 297 297 298 298 299 301 302 303 303 303 303 304 305 306 308 310 311 311 311 312 311 312 313 314 314 312 311 310 311
294 288 285 283 285 289 287 290 291 289 289 286 287 287 292 294 294 296 297 299 300 301 301 301 302 303 304 304 305 306 308 309 310 309 309 310 310 311 311 310 309 310 310 307
294 286 286 287 288 289 289 289 290 287 288 287 287 288 290 292 294 295 297 298 298 299 300 300 301 302 303 303 304 304 305 306 308 308 308 309 309 309 308 308 308 307 306 305
292 287 286 286 288 288 286 288 288 289 289 290 290 288 294 296 297 295 296 296 296 298 299 300 301 302 302 303 303 304 304 304 305 306 308 309 307 306 306 306 305 305 304 303
290 289 286 283 285 285 284 285 287 288 289 289 286 289 293 293 293 294 296 296 296 297 298 299 300 301 302 303 303 303 304 304 304 304 305 307 307 305 305 305 304 303 302 302
289 288 288 284 284 278 285 289 288 287 288 290 290 291 292 292 295 296 296 296 295 295 296 297 299 300 301 302 303 303 303 303 303 303 303 305 306 305 304 303 302 302 302 300
292 289 285 283 282 282 285 288 288 287 286 290 290 291 292 293 294 295 296 296 294 294 295 296 297 298 300 300 301 302 302 302 302 302 303 304 305 304 304 301 301 301 300 300
290 291 288 284 279 277 285 290 292 291 284 291 291 290 290 291 288 292 293 293 293 294 294 294 295 297 298 299 300 300 299 300 301 302 302 303 304 304 304 302 301 300 300 297
287 287 285 284 282 284 289 291 292 283 284 291 291 290 289 286 289 291 292 292 293 293 293 294 295 294 296 297 298 297 298 299 301 302 302 302 302 302 304 303 302 299 297 296
285 284 284 284 282 279 291 290 287 290 292 291 291 289 288 289 289 290 291 291 291 291 292 294 293 294 297 298 297 297 297 300 301 302 301 301 301 301 300 301 299 297 295 292
284 287 286 287 287 290 293 292 293 293 291 291 289 288 288 288 289 289 290 290 290 291 291 292 292 293 295 296 297 296 299 300 300 300 300 301 301 300 300 298 296 295 294 293
288 288 287 286 289 291 292 293 292 292 290 290 289 289 289 287 289 289 290 290 290 291 290 292 291 291 292 294 295 295 296 299 299 298 299 300 299 298 298 297 296 295 293 292
290 289 288 288 289 289 292 293 292 291 290 288 288 288 288 288 288 289 288 288 288 288 288 289 289 291 291 292 292 293 295 297 297 297 298 298 298 297 295 296 296 296 295 296
289 290 288 288 293 293 291 294 292 289 287 287 288 288 288 288 287 288 287 288 287 286 288 288 290 289 289 290 290 293 296 297 296 296 297 297 296 296 295 293 293 296 296 296

GFSCGP_sfc_thetae_105.txt.gz
Theta_e
293 287 283 286 288 288 287 286 284 287 290 292 292 293 297 301 303 302 303 305 308 311 316 323 321 326 327 326 328 328 328 329 332 335 335 335 334 336 336 336 336 335 336 339
287 283 289 291 291 289 288 285 285 289 292 292 293 293 297 300 301 302 303 304 307 310 318 319 318 318 319 323 326 327 327 328 330 334 334 337 337 338 338 338 337 337 337 338
285 288 291 289 289 287 287 285 286 285 292 295 293 292 295 300 302 303 304 305 307 309 316 315 315 317 319 322 325 326 327 328 329 331 332 334 337 338 337 338 338 338 339 340
287 291 289 288 287 288 284 290 287 289 290 286 295 284 292 297 298 301 303 306 308 310 316 316 315 317 321 321 326 326 326 326 328 330 330 330 329 329 334 337 338 338 339 338
288 288 287 287 288 290 288 294 290 293 291 292 290 287 290 296 295 298 303 304 308 310 314 316 317 319 321 322 324 325 325 326 327 328 329 330 328 330 332 332 333 333 334 334
289 294 292 292 295 293 293 292 290 292 291 285 288 288 288 289 293 298 300 305 307 309 311 314 316 318 321 324 324 326 326 326 326 327 327 328 327 327 327 329 329 329 329 329
290 291 295 297 291 293 289 289 284 283 282 282 291 288 288 291 293 297 297 298 306 308 308 309 310 311 313 318 322 325 326 325 326 327 327 328 327 326 327 326 326 326 324 322
286 283 289 297 294 290 287 291 284 278 280 283 290 282 286 295 296 297 297 299 302 305 307 306 308 311 312 313 313 316 320 325 327 329 327 328 330 328 329 329 328 329 327 323
287 286 296 297 299 297 292 287 291 287 289 284 286 286 293 296 295 297 298 299 300 302 304 305 307 308 309 309 310 312 312 314 318 325 329 330 330 330 331 331 330 327 324 321
292 285 293 296 299 299 293 294 288 290 282 279 282 283 285 291 293 296 296 298 300 302 303 304 304 307 309 311 311 311 310 311 314 318 322 325 329 329 328 328 326 326 323 320
293 292 290 295 292 290 292 291 291 290 287 283 281 283 293 292 296 296 297 299 300 301 303 304 304 306 308 310 312 312 312 312 313 317 320 322 324 325 327 326 324 323 322 319
294 292 287 289 295 295 294 292 291 288 284 288 287 284 296 297 298 299 298 300 301 302 303 303 304 304 305 306 308 310 311 312 314 316 317 318 320 320 321 322 321 322 319 317
293 290 285 287 292 294 291 293 293 291 293 286 285 285 297 298 298 298 299 300 301 302 303 303 304 304 304 304 305 307 309 310 312 312 313 313 314 315 317 319 318 317 316 314
297 291 288 285 286 290 289 291 292 291 290 288 287 288 292 294 295 297 298 300 300 301 301 302 303 304 304 304 305 305 305 307 309 310 310 310 311 312 314 315 315 313 312 312
296 287 288 289 290 290 290 289 291 288 291 287 289 288 291 294 295 296 298 299 299 299 300 301 301 302 303 304 304 305 305 306 306 307 309 310 311 311 311 311 311 312 310 309
295 288 288 287 290 290 287 289 291 291 291 291 291 289 295 297 297 296 297 297 297 298 299 300 301 302 302 303 303 304 305 305 306 305 305 309 310 310 309 308 309 309 308 307
292 291 288 284 288 287 285 286 289 289 291 291 288 291 295 294 294 295 296 297 295 295 296 296 297 299 300 301 303 302 304 305 304 305 305 306 307 308 308 307 307 306 305 305
291 290 290 286 286 279 287 291 290 289 290 292 292 293 294 294 295 297 298 296 294 292 293 294 295 296 297 298 299 300 302 303 303 304 304 305 306 306 307 307 306 305 305 303
295 291 286 284 283 285 286 288 289 288 288 292 292 293 293 294 295 296 298 295 292 292 293 294 295 296 296 297 298 298 298 299 301 301 303 304 305 305 306 306 305 304 303 302
293 293 289 285 281 278 288 292 294 293 285 293 294 292 292 292 288 292 293 292 293 294 295 294 295 296 296 297 298 297 297 297 298 300 301 303 305 304 304 306 305 304 303 301
288 289 286 286 284 286 292 293 294 284 287 294 294 292 291 289 290 291 292 292 294 294 294 294 294 293 294 295 296 295 296 297 299 300 301 302 303 303 304 305 306 303 301 300
286 285 286 286 283 281 294 292 287 292 295 294 293 292 290 290 290 290 291 292 293 292 293 294 293 293 294 295 295 294 294 297 298 298 299 300 302 302 302 303 304 303 300 298
285 289 288 288 289 293 295 294 296 296 295 293 292 290 289 289 289 290 290 291 292 292 292 292 291 291 291 292 293 292 293 295 295 296 296 298 299 301 302 301 301 300 299 297
291 292 288 289 292 292 295 296 296 295 294 293 291 290 290 288 289 289 290 290 290 291 290 290 289 289 289 292 292 291 292 293 293 293 294 296 297 299 300 301 300 298 296 295
292 291 290 290 293 292 294 296 295 294 292 290 290 289 289 289 289 289 289 289 289 289 289 289 288 288 287 289 288 291 291 290 290 293 294 295 297 298 299 299 298 297 298 297
292 291 289 289 295 294 294 297 297 293 291 290 289 289 290 289 289 289 288 289 288 288 288 287 287 287 287 288 287 288 288 288 288 291 294 295 296 297 297 296 296 298 298 298

GFSCGP_sfc_thetae_108.txt.gz
Theta_e
292 284 281 284 286 286 285 284 282 286 291 288 285 288 290 298 299 298 300 301 302 306 312 317 322 322 325 326 327 328 327 327 328 328 330 329 327 327 328 330 334 337 337 337
287 283 288 289 289 287 286 283 283 288 290 289 286 287 292 295 297 299 300 300 302 305 310 317 317 319 319 322 326 326 326 326 327 328 332 333 332 332 332 333 332 333 333 336
285 288 291 289 287 285 286 283 284 284 288 290 288 285 290 295 297 298 300 301 301 305 312 314 315 316 318 318 323 326 326 326 327 327 329 328 331 331 331 332 332 333 333 334
287 291 289 288 286 287 282 290 288 285 284 281 288 277 289 294 296 298 297 301 302 307 314 313 314 315 318 319 321 325 326 326 327 327 325 324 324 322 326 328 330 331 333 333
287 289 287 285 287 290 285 291 291 287 286 286 287 283 287 295 294 297 300 301 306 310 313 313 314 316 319 320 321 324 325 325 325 326 326 324 323 324 326 327 328 329 330 331
289 295 292 290 294 294 293 290 289 286 285 281 287 286 285 288 289 296 298 303 307 310 314 316 316 317 318 319 320 320 321 323 325 324 324 324 323 323 323 324 325 326 326 327
289 290 294 295 291 293 290 285 281 280 280 280 288 285 285 292 293 296 296 299 307 309 310 312 313 314 316 318 319 321 321 322 324 323 323 324 324 325 323 323 324 323 324 324
283 278 290 297 291 287 288 288 282 277 279 282 288 281 286 293 297 299 299 301 305 306 308 308 308 308 308 313 317 320 322 322 323 323 323 324 324 324 324 324 325 324 323 324
286 284 295 296 297 296 291 285 290 285 285 282 285 287 292 293 293 297 298 301 302 302 303 303 304 305 305 306 306 309 312 314 319 323 323 323 324 324 325 326 327 327 327 326
290 284 293 296 298 298 293 293 284 285 279 277 282 282 283 288 289 295 295 296 298 300 300 301 302 304 306 307 308 308 307 307 309 312 318 322 324 326 325 324 324 324 323 322
292 290 288 294 290 288 290 287 288 287 284 278 277 281 292 291 293 293 295 297 297 298 299 300 301 303 303 305 307 308 308 309 310 312 315 316 318 321 323 324 323 323 321 319
292 289 283 286 292 293 292 288 288 280 281 282 281 282 294 294 295 296 296 297 298 299 299 299 299 300 300 301 303 305 307 308 308 310 310 311 312 315 315 318 321 320 319 318
291 286 279 281 287 291 289 290 290 289 287 281 278 282 295 293 293 295 295 296 298 299 299 299 299 299 298 299 300 301 303 304 307 307 307 308 309 309 311 314 315 317 316 314
295 288 283 277 281 287 284 288 290 288 281 283 282 284 288 290 291 293 294 295 296 297 298 298 297 297 298 299 299 300 300 301 302 304 305 306 306 307 308 311 312 311 312 312
293 283 283 286 288 287 286 287 288 285 287 281 285 285 287 289 290 292 294 295 295 295 295 295 295 296 297 298 298 299 300 300 301 301 301 303 306 306 306 307 309 309 308 310
293 283 283 281 288 287 284 287 288 288 289 287 287 286 291 291 292 293 293 294 293 292 292 293 293 293 293 293 296 297 298 299 300 299 300 302 303 305 304 304 305 306 305 305
289 286 282 278 285 284 280 284 286 286 288 288 284 288 291 290 293 292 293 293 291 290 290 290 290 291 291 292 293 293 294 296 296 298 299 300 301 301 304 304 303 302 303 302
288 286 284 277 281 272 283 289 288 287 289 290 290 291 291 291 291 292 294 291 289 288 289 290 290 291 292 293 294 295 295 295 295 295 296 299 300 300 301 302 301 301 300 300
290 287 281 277 276 280 283 286 286 284 285 290 289 291 291 291 289 291 291 289 286 288 290 291 291 292 293 293 294 294 294 294 295 295 296 297 297 298 299 299 300 299 299 298
291 289 283 280 276 274 283 288 291 289 280 290 291 290 288 288 282 284 286 287 289 289 291 290 290 291 290 291 292 291 292 292 292 294 296 297 298 297 297 298 298 299 299 298
283 283 279 280 277 281 288 290 290 278 282 291 291 290 287 284 285 286 288 288 289 290 289 290 289 288 289 290 291 291 292 292 295 296 296 296 296 295 297 297 299 299 298 298
282 280 280 280 276 274 290 288 283 288 290 291 290 289 287 286 286 287 288 288 289 289 290 290 287 287 288 289 289 290 290 292 293 293 293 293 294 295 295 296 298 297 301 297
280 284 282 283 284 289 291 289 292 292 290 290 290 287 286 285 286 287 287 287 287 288 288 288 287 287 288 288 290 287 289 290 291 291 290 291 294 295 295 296 296 297 300 299
286 288 283 284 286 288 290 291 292 290 290 290 288 286 286 285 286 286 286 286 286 287 286 287 286 286 287 288 288 288 288 289 289 287 288 290 293 294 295 296 297 298 298 298
286 287 285 285 288 287 290 292 292 291 290 288 287 287 287 286 286 286 285 285 286 286 286 286 286 287 286 287 287 288 288 287 286 285 286 288 292 294 295 296 297 298 299 299
287 286 283 283 289 289 289 292 293 290 288 287 287 286 288 287 286 286 285 286 285 285 285 284 285 286 286 286 287 287 287 287 285 284 286 287 288 291 292 295 296 299 299 299

GFSCGP_sfc_thetae_111.txt.gz
Theta_e
291 283 279 281 284 284 283 281 280 284 289 287 286 286 288 291 292 292 295 293 299 302 306 312 317 319 321 323 325 326 326 324 327 330 329 329 328 330 332 333 333 334 334 333
285 282 286 288 288 286 285 283 282 285 288 288 287 285 289 291 292 294 295 297 299 300 306 313 318 314 316 321 325 326 326 323 324 327 329 330 328 327 329 332 335 335 336 334
283 286 291 289 287 285 284 282 283 280 287 289 285 282 285 290 293 294 297 299 300 301 304 312 315 315 315 317 321 325 326 323 324 325 328 329 330 330 329 328 327 330 334 335
286 291 289 288 286 287 281 287 288 286 283 273 286 275 283 288 290 294 294 296 298 302 309 313 313 313 315 317 320 324 326 325 326 326 325 323 323 322 324 326 330 330 329 330
287 288 288 285 285 288 285 289 287 286 284 283 284 281 287 292 290 293 296 295 298 305 309 312 313 316 319 319 319 321 326 325 325 325 324 322 321 323 324 324 325 325 328 330
289 295 291 290 292 293 294 289 289 287 285 278 285 282 284 286 289 292 298 298 303 307 312 313 315 316 317 318 319 322 324 324 324 324 324 323 321 322 322 322 322 325 324 326
288 289 292 294 291 294 290 285 279 277 277 279 286 283 284 289 294 295 296 297 303 310 312 312 313 314 316 316 317 319 320 322 323 322 323 323 323 323 322 322 322 322 323 323
283 276 289 296 291 287 287 287 281 276 277 281 287 281 284 292 297 299 300 302 305 304 306 306 308 310 310 315 317 318 320 320 322 321 321 323 323 324 324 323 322 323 323 324
284 281 293 295 297 295 290 286 290 284 285 279 283 286 291 291 294 297 299 299 299 300 301 303 304 305 305 305 308 314 316 317 319 322 322 321 322 322 322 323 324 324 325 325
289 283 292 296 298 297 293 294 284 283 278 277 280 282 282 286 289 294 296 297 298 300 301 302 303 304 306 306 306 307 306 307 308 312 320 322 322 323 323 323 323 324 325 326
290 289 286 292 289 287 287 286 287 285 283 279 277 281 286 287 293 293 294 297 297 297 298 299 300 301 302 302 305 306 307 308 309 311 313 314 316 318 321 322 322 322 323 322
291 287 279 284 291 292 289 287 286 278 279 281 280 281 294 293 294 295 295 297 297 298 298 298 298 298 298 298 300 302 303 305 306 307 307 308 310 312 314 315 319 322 321 319
289 283 276 279 284 288 287 289 288 288 283 278 276 282 293 293 293 294 294 295 296 296 296 296 296 296 296 297 299 299 299 300 302 304 305 306 306 307 308 310 313 315 316 316
294 285 281 275 280 285 283 286 287 284 276 280 279 281 285 288 290 291 292 293 293 294 294 294 293 293 294 295 296 297 298 299 300 300 300 300 303 305 306 307 310 311 312 312
290 281 280 284 287 285 284 285 286 281 284 277 282 283 284 286 287 289 291 292 291 290 290 291 290 290 290 290 292 293 294 296 297 297 298 299 300 302 304 305 306 308 308 308
290 281 282 280 285 284 282 285 286 286 286 285 285 284 288 288 290 291 290 290 288 288 288 289 289 289 289 288 290 292 292 293 295 294 295 298 299 299 300 302 303 303 305 305
286 283 279 277 282 282 278 282 283 284 286 286 282 286 289 288 291 290 290 289 288 286 287 287 287 288 289 290 291 290 291 293 293 293 294 295 296 297 298 299 300 301 300 301
286 284 281 274 277 270 282 287 286 286 287 288 288 288 289 289 289 289 288 286 285 286 288 288 288 289 289 290 291 291 292 292 292 292 293 295 295 295 296 297 297 299 299 299
288 284 279 276 274 278 281 285 285 284 284 289 288 289 289 289 288 285 286 286 287 288 288 289 289 289 289 290 291 291 290 291 291 291 292 293 294 294 295 295 295 296 297 298
288 286 281 278 275 274 281 287 289 287 278 289 290 289 287 286 282 285 285 287 288 289 289 289 289 289 288 288 290 289 289 290 290 291 293 292 292 292 292 292 293 294 296 297
280 280 278 278 274 280 286 289 289 277 280 289 290 288 287 284 284 285 286 286 287 288 289 289 288 287 287 288 288 287 289 290 292 292 291 291 292 292 291 292 294 294 293 296
280 277 277 278 276 273 289 288 282 285 288 290 288 288 287 285 285 285 286 286 287 286 288 288 286 286 286 287 289 288 287 289 290 290 291 291 290 290 291 292 293 294 293 294
279 283 280 281 281 287 289 288 290 290 289 289 289 287 287 285 284 286 285 284 286 286 287 287 285 285 286 287 288 286 287 288 288 287 287 287 288 288 290 291 293 293 294 294
283 286 283 283 283 287 289 289 291 291 290 289 288 286 286 284 285 284 285 285 285 285 285 285 284 283 283 285 287 287 287 287 286 285 285 285 286 287 289 291 293 294 294 294
284 285 283 283 285 286 288 289 291 290 289 287 286 286 286 285 284 284 284 284 284 284 284 284 283 283 283 284 284 285 285 287 285 284 284 284 285 286 287 288 290 291 295 297
285 285 284 282 287 287 287 289 291 288 287 287 286 285 286 286 285 284 284 284 284 284 284 283 283 283 283 284 284 285 285 286 284 283 283 283 284 285 286 286 287 291 293 295

GFSCGP_sfc_thetae_114.txt.gz
Theta_e
289 281 278 279 283 282 281 280 279 282 287 285 285 285 288 292 290 287 288 290 292 293 298 306 315 316 319 319 321 322 324 326 327 327 325 326 326 326 329 328 329 328 330 328
283 280 285 287 286 284 283 282 281 284 288 286 285 285 289 291 289 289 290 290 294 294 301 308 312 313 314 318 320 322 324 325 324 325 330 329 327 327 328 328 329 330 329 329
283 284 291 288 286 284 284 281 281 280 286 288 285 281 285 288 290 291 292 294 296 297 300 308 311 311 316 316 321 322 326 323 323 325 330 329 328 328 327 328 328 331 332 331
287 289 287 287 286 286 280 287 286 284 284 274 283 272 282 289 290 289 289 290 294 298 302 309 310 313 314 313 316 319 322 322 323 324 324 326 324 323 324 327 328 329 331 332
284 286 287 285 286 288 284 289 287 287 286 284 280 273 283 291 288 290 293 295 294 298 306 308 312 314 314 316 316 321 323 322 322 324 324 323 322 323 324 324 324 325 325 327
288 294 290 289 291 291 292 290 288 288 285 276 282 279 284 286 288 290 293 296 298 300 306 309 313 316 315 315 318 320 322 321 323 324 323 322 321 321 321 321 321 323 323 324
287 288 291 293 289 294 291 285 278 276 275 275 287 282 284 287 291 295 296 298 302 305 307 312 312 313 315 316 317 320 321 321 322 323 322 322 321 321 320 321 320 320 321 321
282 276 288 295 291 286 287 286 281 275 275 279 288 280 283 291 298 299 301 301 302 303 305 305 306 306 308 313 315 318 318 320 322 322 321 323 323 322 322 322 321 321 320 321
282 279 293 294 297 293 290 286 290 284 286 278 283 285 289 291 292 296 297 298 299 301 302 304 305 306 306 305 307 311 314 317 319 320 321 321 322 322 321 322 322 322 323 323
289 282 291 295 297 296 293 294 283 283 277 273 279 281 281 285 287 292 293 296 298 299 300 301 302 302 304 305 306 307 308 308 310 313 316 321 321 321 322 322 322 323 323 324
289 287 286 291 287 286 287 286 286 286 284 277 276 280 287 286 289 291 295 296 296 297 298 298 298 298 299 300 301 302 304 305 306 307 308 310 313 317 320 321 322 323 323 323
288 285 279 284 289 290 288 286 285 279 280 281 281 281 293 293 294 295 294 295 295 295 295 296 296 296 296 296 297 298 299 300 301 303 304 305 306 307 308 310 313 317 319 319
288 282 275 278 283 287 285 287 286 285 281 278 277 280 292 292 292 292 292 293 293 293 292 292 292 291 292 292 293 294 295 296 297 299 299 300 301 303 304 305 307 311 314 315
293 284 280 273 279 283 282 285 285 282 274 278 277 282 284 287 288 290 290 290 289 289 289 289 289 289 289 291 291 292 293 295 295 296 296 296 297 299 300 303 304 306 309 310
289 281 279 283 286 285 282 283 284 280 281 277 281 281 284 286 287 288 289 289 287 287 287 287 287 287 288 288 289 291 292 293 293 294 294 294 296 297 298 299 300 302 304 306
288 281 282 280 285 283 281 283 285 284 285 284 283 282 287 288 289 289 287 288 286 286 286 286 287 287 287 287 289 290 291 292 293 292 292 294 294 295 295 296 297 298 299 300
285 282 279 277 281 281 278 282 282 283 285 285 281 285 287 287 290 289 288 287 285 285 286 287 286 287 288 288 290 289 289 291 291 291 292 293 294 294 294 295 295 295 296 297
285 282 280 274 277 270 281 285 285 284 286 287 286 287 288 288 288 287 287 285 284 286 286 287 287 287 288 288 288 288 289 289 289 290 290 292 292 292 292 293 293 294 294 294
286 282 278 275 273 277 280 284 284 282 282 288 287 288 288 288 287 283 285 284 285 285 287 287 286 287 286 287 287 287 287 287 288 289 289 290 290 290 291 290 290 291 291 292
286 284 280 276 273 273 278 284 288 285 277 287 289 288 287 286 279 282 283 286 286 287 287 287 287 287 287 287 288 287 287 287 287 288 288 289 289 290 289 289 289 291 293 293
280 280 277 277 274 279 283 287 287 276 278 287 289 288 287 284 284 284 285 286 287 287 287 288 286 285 285 286 287 286 286 286 288 288 288 288 289 289 288 288 289 289 290 292
279 277 276 277 275 273 287 286 282 283 286 288 288 288 287 285 284 284 285 285 286 286 287 288 286 285 286 286 287 286 285 287 288 288 288 288 288 288 287 287 287 288 290 291
279 282 279 281 280 285 288 286 288 289 288 288 288 287 288 285 284 285 284 283 284 285 285 286 285 284 285 285 286 286 287 288 287 287 286 286 287 286 286 286 287 286 287 289
282 284 282 283 282 285 288 289 289 289 289 289 289 287 286 284 284 284 284 284 284 284 284 284 284 283 282 284 284 284 285 286 285 285 285 285 285 285 286 286 286 286 286 286
284 284 283 282 284 285 287 288 290 289 289 288 286 286 286 284 284 284 283 284 283 283 283 283 283 282 282 283 283 283 284 283 284 284 284 284 284 284 284 285 286 286 287 288
285 284 283 283 286 286 285 288 290 288 288 287 286 284 285 285 284 284 283 283 283 283 283 283 282 282 282 282 282 283 283 283 284 283 283 283 283 283 284 284 284 289 289 291

GFSCGP_sfc_thetae_117.txt.gz
Theta_e
288 278 278 278 281 282 280 278 279 282 286 284 283 284 287 290 290 289 288 289 288 291 295 298 301 307 316 317 317 317 319 322 323 324 324 324 324 325 325 328 332 332 332 332
284 280 284 286 285 283 281 281 280 283 287 285 284 284 288 290 290 291 289 288 287 290 295 297 304 313 313 314 316 317 320 322 324 325 325 326 327 328 326 328 332 332 331 331
284 282 290 288 286 284 283 281 282 280 284 286 284 280 283 290 289 288 289 289 291 293 295 298 308 311 312 312 314 321 322 322 322 323 325 325 327 327 325 327 329 328 331 330
286 288 287 285 284 285 280 286 286 284 283 277 285 275 280 287 289 290 289 290 290 292 297 301 307 309 310 312 313 316 321 322 321 321 324 320 325 322 325 326 327 328 329 329
281 285 287 285 286 288 282 289 288 287 285 285 282 278 279 288 286 290 291 293 296 296 297 302 307 310 312 313 313 314 319 320 319 319 323 321 323 324 325 325 325 326 328 329
289 293 291 289 290 290 291 288 288 288 285 275 281 279 279 285 287 290 292 294 297 301 299 305 308 310 314 316 317 318 317 320 319 321 322 321 321 321 321 322 321 322 322 323
288 288 290 292 288 293 291 285 275 272 270 274 285 281 284 288 291 294 296 299 302 304 305 306 306 308 309 311 311 313 319 319 319 322 321 321 321 321 321 320 320 320 320 320
280 277 287 292 290 287 287 286 280 274 275 276 286 279 284 291 294 298 300 300 303 303 305 305 306 306 306 307 307 308 319 320 321 322 322 322 322 321 321 321 320 320 320 320
280 280 290 293 295 294 289 286 290 283 285 276 281 285 289 291 289 294 296 298 299 302 301 301 301 302 303 304 305 307 309 310 313 315 318 321 322 321 320 321 321 321 321 321
286 281 289 293 295 294 292 294 284 282 276 274 278 281 281 285 285 288 291 293 297 297 297 297 298 298 298 299 299 300 302 303 305 308 310 316 321 322 321 321 321 321 322 322
287 284 284 288 285 285 285 285 286 285 284 276 275 279 290 287 288 288 291 294 294 294 294 294 294 294 294 294 295 296 297 297 299 300 302 304 306 309 313 316 318 320 322 322
288 284 278 283 288 289 287 285 284 277 279 279 279 280 294 293 293 294 292 292 292 291 291 291 290 291 291 292 293 293 294 295 296 297 298 299 300 301 303 305 306 310 313 318
287 281 274 278 281 285 284 285 285 284 283 278 276 280 291 292 294 291 289 288 288 288 288 287 288 289 289 290 291 292 293 293 294 295 295 295 296 297 297 299 301 303 305 308
292 282 279 273 279 282 281 282 284 281 274 278 278 283 285 286 287 287 286 286 285 286 287 287 287 287 287 289 290 290 291 292 293 293 293 293 294 295 296 297 297 298 300 302
287 280 278 282 284 284 283 282 283 278 280 277 280 281 284 286 286 287 288 286 286 285 286 286 286 286 286 287 288 289 290 291 292 291 291 292 293 294 294 294 295 296 297 298
286 280 281 280 283 282 281 283 283 283 283 282 282 282 286 287 288 288 286 286 285 284 286 286 287 286 286 285 287 288 288 289 290 290 290 292 293 292 292 292 292 293 294 294
284 281 279 276 280 280 277 280 282 282 284 284 280 284 286 286 288 288 287 287 284 284 285 285 286 286 286 286 287 287 287 289 288 289 290 291 291 290 290 291 291 291 291 292
284 281 280 275 276 269 279 284 284 283 285 286 286 286 287 287 287 286 287 286 284 285 285 285 285 285 286 287 286 287 287 287 287 288 288 289 288 288 290 290 290 290 291 290
285 281 278 274 272 276 278 283 283 282 282 287 287 287 288 287 285 284 285 284 284 284 285 286 286 286 285 285 285 285 285 285 286 286 286 287 287 287 288 288 288 288 289 289
285 283 279 276 273 272 277 283 286 284 277 284 288 287 286 285 280 281 283 285 285 286 286 285 286 286 284 284 284 284 284 284 285 286 286 287 287 286 287 287 287 287 288 288
279 279 277 276 274 278 281 286 286 275 277 284 288 287 286 283 284 284 284 284 285 285 285 285 283 283 283 284 284 284 284 284 286 286 286 286 286 286 286 286 287 286 286 287
278 276 276 276 274 273 286 285 281 283 285 287 288 288 287 285 283 283 284 284 285 284 285 285 284 283 284 284 285 284 284 286 287 286 286 285 286 286 286 285 286 286 286 285
278 281 279 280 280 285 287 286 287 287 288 287 288 288 288 285 284 284 284 282 284 284 284 285 283 283 284 284 284 283 284 285 285 285 284 285 286 285 285 285 284 284 284 284
281 283 281 282 282 284 286 289 288 288 288 289 288 288 287 285 284 283 283 283 283 283 283 283 283 282 282 283 283 283 283 285 283 282 284 284 284 284 283 284 284 284 284 284
283 283 282 281 284 285 287 287 289 289 289 288 287 287 286 284 283 283 283 283 283 282 282 282 282 282 282 282 282 282 283 283 281 282 283 283 283 283 283 284 284 284 285 286
284 284 282 283 286 286 285 286 287 288 288 288 287 285 285 284 284 284 283 283 282 282 282 282 282 282 281 281 281 282 282 282 280 282 282 283 283 283 283 283 283 287 287 288